GFSNE_sfc_wetblb_000.txt.gz
Wetbulb
58.68 57.75 57.45 58.30 59.37 59.50 59.23 57.14 54.92 51.96 52.82 55.21 55.99 58.28 55.74 50.32 48.99 48.57 48.54 45.69 46.53 46.01 44.94 44.53 44.77 44.98 45.18 45.06 44.34 43.84 43.61 43.65 43.80 44.19 44.84 44.96 45.30 45.19
59.44 58.67 58.07 58.07 58.25 59.07 57.91 57.32 56.49 54.69 51.18 56.18 56.85 57.84 50.21 44.83 44.70 45.66 46.14 44.41 43.14 43.13 43.02 42.93 42.71 42.53 42.37 42.16 42.08 41.87 41.75 42.13 42.82 43.26 43.88 44.29 43.84 44.02
60.27 59.29 59.13 59.16 58.19 58.16 56.18 55.08 54.09 53.11 51.34 53.98 56.89 56.99 48.24 44.62 42.06 43.54 43.37 45.14 44.82 39.75 40.70 40.82 40.46 40.27 40.27 40.29 39.83 40.26 40.51 40.69 41.20 41.72 42.15 42.50 42.59 42.79
60.01 59.84 59.05 58.71 58.64 58.68 56.57 55.01 54.01 53.90 52.41 51.49 54.45 50.39 46.43 41.03 42.11 42.27 43.15 43.01 43.40 39.37 38.31 38.22 38.91 38.43 38.59 38.23 38.38 38.77 38.69 38.71 39.33 39.74 40.07 40.81 41.50 41.42
60.63 59.35 59.70 59.24 58.32 58.31 57.48 55.80 55.38 53.73 54.19 53.49 53.55 45.82 41.16 41.92 41.73 43.35 42.94 42.47 41.45 36.33 36.67 37.46 36.27 37.15 37.46 37.70 37.43 37.61 37.08 37.21 38.01 38.50 39.52 39.45 39.86 40.33
60.66 60.59 59.62 58.68 58.53 58.28 57.15 56.17 55.67 54.23 54.37 52.74 50.85 42.56 40.69 39.84 42.22 43.07 40.62 41.43 39.55 36.95 36.64 35.76 35.24 36.10 36.47 36.40 36.28 35.54 35.40 36.68 37.96 38.51 38.48 38.56 38.53 39.04
59.95 60.08 59.40 57.75 54.82 57.57 56.66 55.79 55.58 55.40 53.88 49.86 43.56 40.88 39.14 38.10 39.50 41.62 40.19 39.83 36.94 36.00 35.27 35.90 35.69 35.49 35.84 35.65 35.14 34.67 35.69 36.68 37.74 37.46 37.92 38.13 37.75 37.91
58.54 59.10 59.16 53.25 53.74 53.72 53.81 53.83 55.71 54.92 51.40 48.78 45.10 42.83 40.33 40.74 41.73 40.06 37.50 34.05 32.56 35.88 32.85 33.01 35.19 34.00 34.95 35.49 34.70 34.61 35.19 36.61 36.32 36.60 36.76 36.93 36.76 36.72
57.95 57.94 57.96 57.44 54.34 56.46 53.49 53.26 53.09 52.77 51.96 49.82 43.86 42.88 42.42 40.00 40.08 37.13 34.93 33.30 32.47 33.78 31.74 30.81 34.76 32.80 35.02 34.75 34.67 34.16 35.01 35.91 35.10 35.51 35.24 35.16 35.33 35.52
57.71 57.49 57.80 57.63 56.04 55.61 53.78 52.06 51.61 48.41 46.38 45.78 45.58 40.85 40.79 41.35 39.47 37.04 34.64 33.47 32.32 32.21 32.71 29.00 34.10 32.23 34.28 34.68 33.84 33.44 34.58 34.43 34.39 34.42 34.08 34.09 33.93 34.15
56.52 56.78 57.16 57.19 55.18 52.12 52.63 46.97 41.76 38.95 39.73 41.59 41.03 39.93 39.76 38.42 35.37 33.03 31.03 30.24 29.25 30.47 32.11 29.99 31.47 31.25 31.39 32.12 34.09 32.73 33.20 33.24 33.23 33.19 33.37 33.09 33.16 33.36
55.19 55.87 52.25 55.50 52.80 51.08 50.74 44.91 41.02 38.23 37.69 36.00 36.21 36.20 35.51 34.55 34.49 34.67 33.00 29.94 28.88 28.33 31.55 28.51 30.15 28.79 26.17 32.20 32.49 32.84 32.51 32.31 32.26 32.35 32.12 32.26 32.34 31.45
53.51 53.57 54.07 50.62 50.03 49.58 49.43 46.12 44.15 39.19 38.49 36.64 35.42 33.39 32.96 32.91 32.52 32.53 32.36 31.29 29.12 28.72 31.68 30.36 28.36 27.83 26.74 26.77 29.64 31.07 31.40 31.20 31.22 31.37 31.62 32.11 31.83 31.57
52.29 53.36 51.73 48.01 47.52 47.34 46.68 46.24 42.68 40.27 35.72 33.61 30.32 29.85 30.30 31.10 31.64 31.57 31.29 31.46 31.97 30.90 31.96 29.90 26.17 25.55 24.47 23.25 24.33 30.11 30.27 30.79 30.67 30.05 30.74 31.91 32.24 32.02
50.83 51.37 47.88 46.23 46.41 45.70 45.69 43.75 40.34 34.49 31.83 29.89 28.24 29.00 30.57 31.70 30.83 29.52 30.18 29.84 29.69 30.23 30.49 30.28 28.55 27.52 25.10 23.14 23.11 24.89 26.26 28.58 29.75 29.34 29.84 29.48 29.32 29.66
45.78 46.25 45.78 45.75 44.67 42.03 41.03 39.08 34.64 33.56 32.08 29.52 27.78 29.39 29.73 28.85 28.26 29.33 28.09 28.25 27.67 28.48 29.65 29.87 28.70 27.00 24.21 25.51 25.36 24.47 26.62 24.54 28.45 28.60 29.01 28.99 29.82 30.54
42.79 43.00 41.83 38.98 37.82 37.64 34.23 33.49 32.98 33.19 29.49 28.69 27.33 26.70 27.33 27.73 27.18 28.03 28.19 27.22 26.28 26.74 27.61 29.04 29.37 27.88 26.85 25.32 22.59 25.02 25.97 26.69 28.16 28.16 27.86 26.94 28.66 30.40
41.37 39.95 37.35 36.43 35.74 33.53 31.90 31.83 31.77 30.53 28.07 27.47 27.29 27.62 27.07 26.93 26.14 26.66 27.36 26.64 26.00 26.30 26.42 27.49 25.43 24.55 26.30 28.44 27.31 24.32 25.79 25.89 27.28 27.65 27.48 25.90 27.38 30.43
40.53 38.30 36.14 35.80 35.38 33.08 32.74 31.52 30.05 28.82 28.66 27.71 28.32 28.41 27.37 27.30 27.01 25.81 25.65 25.89 25.23 26.02 26.70 25.66 23.43 22.40 20.32 20.13 26.58 27.74 23.27 24.65 25.34 24.90 27.23 26.93 26.57 28.44
36.20 36.64 35.74 35.63 34.14 33.42 31.66 30.24 28.18 27.31 27.75 27.80 28.59 27.80 27.02 27.31 26.14 25.38 25.42 25.39 25.34 25.68 24.67 25.42 24.14 22.77 19.79 19.62 19.26 23.14 25.47 22.92 23.23 23.80 24.33 27.04 28.54 30.32
34.30 34.46 34.54 34.05 33.06 32.19 30.48 28.84 28.20 27.81 27.56 28.05 27.45 26.52 27.30 27.06 25.50 25.59 25.51 24.58 24.19 24.44 23.20 23.85 24.18 22.46 20.99 18.67 17.61 23.19 26.97 28.44 26.53 24.11 24.13 23.18 23.84 25.95
33.87 33.71 33.07 32.48 31.80 30.74 29.59 28.96 28.13 28.12 27.33 26.82 25.86 26.46 27.00 26.55 25.06 24.56 24.74 24.52 24.47 24.39 23.36 24.23 24.54 22.94 21.78 20.78 20.04 21.23 23.99 27.62 28.47 29.42 29.05 27.34 23.55 21.60
33.83 33.37 32.01 31.85 31.59 30.71 29.62 28.95 28.26 27.32 27.45 25.71 25.48 26.54 26.10 25.19 25.52 25.30 24.93 24.51 24.30 22.96 23.07 22.07 23.16 24.13 21.57 20.63 19.85 21.57 24.61 25.02 25.84 25.72 27.32 30.16 30.03 30.70

GFSNE_sfc_wetblb_003.txt.gz
Wetbulb
62.13 60.87 59.50 59.32 59.14 58.61 57.88 56.62 53.22 50.46 51.85 54.66 53.53 56.29 56.02 54.99 50.85 48.33 47.82 49.89 50.70 50.54 49.45 47.72 46.23 45.56 45.53 45.58 45.40 44.96 44.53 43.97 43.85 44.29 45.06 45.14 45.74 46.33
62.06 61.17 59.90 59.54 59.27 58.90 58.14 57.85 57.04 54.35 52.14 55.72 55.89 56.34 52.11 47.86 47.38 46.16 46.81 47.76 48.39 47.84 46.68 45.21 44.14 43.46 43.61 43.15 42.80 42.91 42.46 42.62 43.10 43.43 44.23 44.44 44.42 44.52
62.02 61.23 60.24 59.95 59.01 58.69 58.66 57.81 57.05 56.13 52.91 55.40 56.49 55.68 46.56 42.94 42.12 43.12 43.51 43.49 42.95 44.51 44.12 43.78 42.28 41.86 41.71 41.23 41.26 40.86 40.90 41.31 41.53 42.18 42.88 43.16 42.98 43.28
61.10 60.85 60.15 59.51 58.92 58.98 58.20 57.22 56.63 56.51 54.91 52.93 55.31 55.09 47.86 44.51 43.16 42.13 42.72 44.17 43.70 42.27 42.09 40.89 40.46 40.77 40.46 40.11 40.17 39.85 39.58 39.73 39.66 40.01 40.58 41.18 41.87 41.98
60.66 60.37 60.24 60.10 58.67 58.46 58.20 57.20 56.47 55.92 55.40 53.64 53.52 53.16 46.99 43.55 41.13 42.33 42.82 42.07 42.53 41.46 40.06 39.62 40.21 39.34 39.13 39.64 39.42 39.22 38.66 38.39 38.12 38.34 39.04 40.28 40.49 40.94
60.19 60.04 60.22 59.97 59.33 58.81 57.97 57.34 56.53 55.27 54.56 53.04 52.51 44.51 44.21 43.70 42.63 40.44 40.29 41.50 40.51 40.61 38.41 38.21 38.74 38.27 38.44 38.46 38.41 37.86 37.28 36.85 37.63 38.51 39.43 39.04 39.23 39.24
58.92 59.45 59.53 57.92 55.35 57.54 58.25 57.70 56.85 55.39 53.93 52.38 50.88 43.84 42.58 41.40 40.34 42.11 40.50 40.69 39.69 37.07 34.85 35.15 35.07 34.94 34.78 37.06 37.09 36.93 36.53 36.73 37.63 38.46 38.79 38.64 38.64 38.72
56.02 57.61 58.41 54.23 54.59 53.98 54.52 54.63 56.80 55.56 53.25 52.06 50.17 45.97 45.80 44.27 43.01 40.63 38.65 35.51 31.83 35.03 32.66 32.07 33.47 32.00 32.83 33.11 36.69 36.82 36.17 36.48 37.05 38.22 37.34 37.48 37.33 37.23
54.97 55.70 56.14 57.18 55.01 57.45 55.05 53.49 53.66 53.53 54.14 53.52 50.08 48.16 47.75 44.71 42.69 39.32 36.92 34.39 32.14 32.31 31.05 29.00 32.50 30.70 32.54 34.40 36.80 36.50 36.22 35.75 36.69 37.10 36.46 36.32 36.00 36.02
54.36 54.90 55.33 55.51 56.49 56.49 55.96 55.24 53.71 54.24 53.32 52.33 52.32 50.77 46.79 43.66 41.81 40.24 36.84 33.29 31.59 30.83 31.38 27.99 31.38 30.14 31.53 31.97 36.43 36.38 35.02 35.54 35.54 35.47 35.68 35.51 35.22 35.29
53.13 53.78 54.20 55.03 54.32 52.98 54.27 53.07 51.40 46.25 44.65 46.25 45.68 45.11 44.36 43.14 38.77 35.17 31.05 30.15 28.43 28.62 30.72 29.43 29.00 28.29 28.93 29.44 30.98 34.93 34.26 34.62 35.04 34.69 34.75 34.72 34.90 34.58
50.09 51.11 50.61 52.28 52.78 52.29 53.49 52.43 44.37 39.54 39.33 38.88 39.33 39.87 38.73 37.45 37.04 34.67 32.15 30.59 29.20 27.20 30.67 27.95 27.95 26.46 24.43 28.69 28.57 29.23 29.06 33.66 34.07 33.96 34.21 34.26 33.89 29.84
47.13 47.16 49.73 50.46 51.20 51.27 51.43 51.72 47.05 39.93 40.13 36.22 34.03 32.11 32.07 31.51 32.04 33.09 33.63 32.45 29.11 28.86 31.35 29.96 27.06 26.02 25.10 24.05 26.24 27.05 27.22 27.89 27.79 29.11 33.00 33.57 33.60 32.61
43.34 45.14 47.07 47.86 48.51 49.62 49.81 51.46 47.78 41.53 37.11 34.26 32.56 30.76 30.11 30.17 30.67 31.26 31.91 32.05 32.02 31.17 30.36 28.99 23.48 23.00 21.67 21.27 21.09 25.11 25.74 27.18 27.36 26.69 26.54 31.12 33.29 33.43
43.18 43.97 45.16 45.80 46.35 48.27 48.65 46.40 42.97 37.39 34.35 33.47 31.64 30.12 30.30 30.72 30.97 30.21 30.24 30.12 30.04 30.36 30.70 28.88 26.33 24.78 25.69 22.34 20.47 21.80 23.67 24.89 26.93 25.94 25.35 25.34 25.75 26.12
42.04 42.79 43.95 44.62 45.75 45.73 44.14 42.01 37.07 36.28 35.34 33.62 29.68 29.83 29.80 28.75 28.34 29.10 27.80 27.65 27.56 27.61 29.61 28.10 26.61 26.16 23.70 22.69 22.48 22.42 24.06 21.92 24.12 24.86 24.81 26.03 26.72 27.41
42.02 42.33 42.15 40.10 37.91 37.33 37.53 33.65 33.86 34.63 31.23 30.13 28.49 27.78 27.58 27.99 27.88 28.90 28.72 27.17 26.47 26.17 26.13 27.49 27.74 27.03 25.47 23.65 21.28 21.95 22.26 23.27 24.55 24.31 24.15 24.16 25.75 26.75
42.29 41.98 39.43 36.62 36.45 36.51 32.61 31.97 32.93 32.78 29.97 29.07 27.81 27.34 26.82 26.81 26.50 27.50 27.73 26.63 25.35 25.37 24.27 24.99 21.79 19.89 21.28 24.86 28.16 22.34 23.03 22.53 23.66 23.96 24.09 22.28 22.96 26.17
39.17 38.35 34.82 34.58 34.48 32.74 32.14 31.78 31.11 30.12 29.72 28.44 27.59 27.46 27.50 26.52 26.38 26.12 26.10 25.91 24.98 24.54 23.98 20.72 17.51 16.08 14.34 15.25 22.51 30.91 22.71 22.59 22.47 21.59 22.62 22.90 22.97 24.73
36.21 34.23 35.04 34.74 33.42 32.25 31.91 30.98 28.85 29.04 28.58 28.08 27.65 27.57 27.29 26.95 26.09 25.73 25.58 24.40 24.53 23.14 19.56 19.12 17.69 17.53 13.25 13.19 15.57 19.77 27.60 22.22 21.01 20.73 21.56 23.39 24.74 29.19
35.05 33.71 33.08 33.56 32.79 32.01 31.01 28.86 28.66 27.87 28.05 27.82 27.45 27.11 27.41 27.26 26.29 26.01 25.44 26.00 24.71 20.70 17.27 17.69 17.77 24.08 13.67 13.22 11.91 17.65 22.96 28.96 27.03 23.37 23.86 23.23 21.86 22.38
34.40 34.01 33.64 31.87 31.86 31.23 29.48 28.96 29.03 28.40 27.41 27.00 26.90 27.29 27.55 27.19 25.77 24.92 24.30 22.36 21.57 19.70 17.25 18.24 18.16 16.26 14.33 14.75 16.86 17.71 19.72 23.32 28.90 30.79 30.72 29.32 24.53 19.58
33.42 33.94 33.28 31.85 31.88 30.82 29.84 29.48 29.33 28.02 27.67 27.02 26.81 26.88 26.81 25.67 25.34 25.04 24.01 23.05 20.89 17.84 17.77 16.93 17.35 17.90 15.89 17.03 21.15 19.58 20.55 23.28 25.53 23.75 25.54 30.39 32.17 32.00

GFSNE_sfc_wetblb_006.txt.gz
Wetbulb
61.64 61.46 61.45 61.22 60.57 59.40 58.40 57.15 54.53 51.00 51.78 54.61 53.21 55.54 55.91 56.29 55.85 55.02 50.49 53.20 54.75 54.89 55.40 54.89 53.29 50.55 49.55 48.87 48.16 47.44 46.63 45.73 44.83 44.87 45.01 45.41 46.03 46.43
61.50 61.28 61.38 61.42 60.67 59.45 58.27 57.58 56.83 54.68 51.89 55.43 55.25 54.38 55.24 55.04 54.48 50.77 48.93 49.66 52.39 53.52 53.71 52.17 50.31 48.97 47.81 46.73 45.99 44.92 43.93 42.93 43.01 43.58 44.01 44.72 45.08 45.15
60.34 60.41 60.40 60.97 60.08 59.20 58.51 57.88 56.68 56.24 53.71 55.41 56.99 57.02 51.65 51.85 49.32 46.38 46.63 46.43 48.60 51.71 50.96 49.18 47.95 46.95 46.00 45.05 43.60 42.60 41.87 41.29 41.64 42.01 42.58 43.37 43.92 43.84
57.54 58.88 58.98 59.72 59.56 59.60 58.52 57.40 56.93 56.88 55.24 53.81 55.84 55.80 49.61 47.61 47.34 44.71 45.30 45.77 45.44 48.28 48.62 47.56 46.48 45.14 44.19 43.04 41.63 41.26 40.59 40.01 40.25 40.35 40.65 41.11 42.03 42.40
55.64 56.08 57.20 58.09 58.16 58.51 58.64 57.93 57.24 56.60 56.41 55.05 54.48 55.59 48.16 45.81 43.90 44.03 43.42 43.54 43.54 45.85 46.77 45.56 44.53 43.43 42.75 41.11 40.61 40.62 40.28 39.64 39.54 39.27 39.17 39.65 40.55 41.80
54.06 54.88 55.78 56.22 56.90 57.80 57.86 57.86 57.34 56.53 55.72 54.87 54.14 52.90 44.61 43.21 44.43 42.88 40.24 41.58 40.27 41.94 42.79 41.33 41.72 42.04 41.14 40.43 40.05 39.42 39.13 38.94 38.86 38.55 38.75 39.28 40.19 40.04
51.31 52.27 53.25 53.13 51.57 54.30 56.77 57.39 57.25 56.20 55.56 54.22 52.98 48.53 43.06 40.20 41.29 43.02 42.39 40.93 40.68 38.40 36.02 35.48 34.39 33.80 33.61 38.38 38.18 38.47 38.25 38.09 37.84 38.27 38.83 39.58 39.54 39.44
49.31 50.55 51.66 50.97 52.88 53.48 53.78 53.45 55.03 55.59 54.74 54.06 52.98 50.53 48.27 46.74 43.77 42.88 42.23 37.41 34.74 35.98 33.70 31.97 31.57 29.80 31.30 30.59 36.57 37.59 37.61 37.65 37.43 37.77 38.22 39.18 38.19 38.17
48.46 49.15 50.06 52.20 51.39 53.36 53.91 53.88 53.59 53.29 53.77 55.37 53.38 52.43 50.90 48.96 45.28 42.20 41.88 39.17 34.43 32.33 31.79 28.78 29.01 27.74 29.80 33.53 37.25 37.65 37.81 37.43 37.30 37.17 37.79 37.94 37.75 37.48
46.51 46.58 48.60 49.35 51.12 51.86 52.43 52.49 53.50 54.70 54.51 53.85 54.70 54.73 53.74 51.66 47.39 44.86 41.94 34.19 30.99 31.84 31.29 27.53 28.42 27.19 29.56 30.44 37.22 37.45 37.43 37.47 36.62 36.75 36.81 36.48 36.57 36.66
45.74 46.00 46.63 46.71 47.86 49.55 49.49 49.99 50.62 52.73 47.14 48.69 51.07 51.77 51.21 49.35 45.78 38.62 34.06 33.12 28.00 28.35 30.04 28.10 25.98 26.45 27.55 27.83 28.81 35.13 36.07 35.69 35.79 35.94 36.32 36.09 35.84 36.07
41.92 42.10 44.49 45.04 46.38 46.76 46.73 47.28 48.07 49.91 41.76 39.98 41.54 43.49 44.66 44.44 43.83 41.53 35.42 32.72 30.29 27.84 29.98 27.54 25.54 25.47 23.66 26.97 26.52 27.33 27.66 34.39 34.81 34.97 35.23 35.26 35.41 29.44
36.72 38.62 41.15 44.04 44.69 45.00 45.19 44.82 45.36 49.22 42.81 39.16 35.95 34.51 34.28 33.76 34.00 34.52 35.32 34.01 30.03 28.74 30.28 27.71 23.15 25.03 24.34 23.64 24.96 24.99 24.13 24.16 24.57 26.61 32.36 33.64 34.01 32.70
36.01 37.15 39.51 41.60 42.65 43.55 44.28 45.81 46.73 47.59 38.71 34.63 32.92 32.11 31.30 31.30 31.74 32.22 32.23 31.72 31.58 30.70 32.27 26.02 21.77 21.68 16.86 20.59 20.30 22.55 21.83 23.02 23.17 24.19 24.16 29.35 32.75 33.78
36.73 38.48 40.98 41.96 42.75 43.24 44.14 44.71 46.10 40.57 35.72 33.09 32.51 31.86 31.76 31.43 30.98 30.27 30.22 30.05 30.10 30.60 29.45 25.97 22.98 20.30 18.60 16.84 17.76 18.85 21.27 22.66 24.25 24.23 22.82 23.17 23.27 23.93
37.42 38.47 41.27 43.42 44.51 44.17 43.69 43.52 38.59 36.96 35.32 34.42 33.09 31.73 31.05 29.70 28.36 28.62 26.99 27.00 26.13 26.03 28.64 25.87 24.37 19.70 16.07 18.52 19.20 19.85 20.29 20.59 21.80 22.29 22.39 23.51 23.68 24.38
38.39 39.00 38.95 38.06 38.96 39.43 36.95 33.56 33.80 35.23 32.33 31.64 30.38 29.32 28.76 28.37 27.43 28.04 27.16 27.06 26.32 24.77 23.95 24.69 23.38 22.24 21.38 17.55 21.21 21.44 21.00 20.77 21.85 22.34 21.39 21.61 22.95 23.52
35.80 35.90 35.28 34.83 35.07 35.95 33.51 31.98 32.22 31.40 30.15 30.09 29.24 28.79 27.77 27.33 26.71 27.74 27.37 26.52 25.21 23.79 21.76 18.09 16.94 16.17 14.90 19.97 26.76 19.95 19.42 21.13 21.86 21.15 21.18 20.26 20.77 22.99
32.35 33.53 33.68 33.28 32.96 33.98 32.17 31.57 30.34 29.77 29.61 28.94 28.45 27.93 27.77 26.94 27.18 26.48 26.44 25.73 23.69 20.71 16.64 12.92 10.62 8.80 6.18 8.46 18.89 29.41 22.36 23.26 22.42 21.43 21.13 20.09 20.02 22.36
30.99 30.81 32.81 33.03 32.40 32.02 32.29 30.73 28.79 28.51 28.25 28.19 27.92 27.57 27.47 26.88 26.02 25.63 25.25 22.43 21.91 16.94 15.30 11.63 8.63 4.45 12.50 8.72 14.62 17.67 25.03 19.96 20.00 19.81 20.19 21.89 23.71 28.59
29.19 30.33 32.46 33.03 32.25 31.92 31.37 29.37 29.00 28.36 28.17 27.84 27.75 27.51 27.37 26.86 26.02 25.15 23.67 25.63 23.46 17.85 13.47 9.75 10.50 22.77 4.92 5.29 8.77 14.91 19.94 26.77 25.80 22.73 23.68 23.55 23.26 23.95
28.82 30.35 32.24 33.03 32.26 31.73 29.66 28.91 28.27 29.15 27.78 27.90 27.47 27.61 27.50 27.23 25.45 23.44 23.30 21.27 21.14 17.36 10.86 7.74 8.54 7.01 5.37 10.01 12.70 14.85 17.26 21.49 25.88 29.08 30.63 30.15 25.73 21.24
28.89 30.28 31.81 32.56 32.09 31.67 29.43 28.87 28.66 27.96 27.99 27.29 27.43 27.28 27.02 25.19 24.15 23.89 22.07 22.61 19.65 14.57 13.25 11.76 10.06 6.78 10.25 11.60 19.77 18.62 18.75 21.72 24.75 25.17 25.81 30.12 31.37 31.94

GFSNE_sfc_wetblb_009.txt.gz
Wetbulb
61.10 61.30 61.07 61.11 60.95 60.53 59.85 58.57 55.61 51.95 52.02 54.63 54.60 55.96 55.84 55.98 55.91 55.85 55.20 55.65 57.24 58.33 59.11 58.98 58.78 58.78 57.10 56.10 54.54 53.14 52.09 50.67 49.58 48.39 47.53 46.75 46.85 47.10
58.30 58.47 58.89 59.64 60.07 60.59 60.16 59.53 58.33 55.76 52.78 55.77 56.26 57.06 55.29 54.84 55.32 55.38 55.11 53.41 55.24 57.51 57.34 56.20 56.62 55.87 54.60 53.32 51.82 50.62 49.46 48.37 47.43 46.47 46.22 46.26 46.19 46.43
53.54 54.41 55.34 56.95 57.37 58.00 58.58 58.79 57.93 57.11 54.27 55.60 56.72 57.39 56.15 54.81 54.64 53.78 53.84 52.39 52.54 55.10 56.00 55.39 54.88 54.39 52.95 51.04 49.81 48.64 47.62 46.64 45.52 45.08 45.11 45.11 45.35 45.48
51.49 52.48 53.21 54.75 54.53 55.60 56.72 56.60 57.37 57.54 55.85 54.04 55.88 56.26 55.93 54.93 54.89 51.01 49.82 50.29 49.81 52.31 53.99 54.13 53.70 52.17 50.75 49.15 47.92 46.71 45.34 44.46 43.56 43.13 43.14 43.06 43.17 43.57
49.84 50.02 50.84 51.63 51.49 52.34 53.30 54.18 55.55 56.31 56.66 55.58 54.91 56.48 55.89 47.26 45.60 46.01 46.66 46.86 46.58 48.34 52.26 52.73 51.56 50.18 48.78 47.40 46.38 45.03 43.55 42.92 42.04 41.39 41.10 40.88 41.08 41.82
49.10 49.19 49.50 49.78 49.83 50.35 51.22 52.01 53.09 53.58 54.28 54.27 54.53 54.74 55.14 46.03 47.95 47.24 43.26 44.43 43.88 44.50 48.09 49.12 49.47 48.65 47.64 46.07 44.96 42.80 42.29 41.91 41.73 41.02 40.23 39.33 39.59 40.45
47.53 47.25 48.04 48.29 47.90 49.64 50.45 51.09 51.60 51.83 51.80 52.14 52.29 53.18 52.72 42.07 43.95 46.29 46.61 45.35 42.62 42.21 42.33 43.86 43.30 42.75 42.54 44.48 41.53 41.47 41.15 40.76 40.69 40.17 39.66 39.62 39.75 40.17
42.01 44.14 45.82 46.36 47.31 49.73 50.63 51.08 51.67 50.67 50.04 50.61 50.67 50.77 51.47 48.84 48.68 47.22 45.51 39.49 37.13 40.78 38.77 37.84 38.74 37.42 37.24 36.67 39.24 40.22 40.55 40.02 39.78 39.28 39.06 38.94 39.28 40.04
41.72 41.43 43.69 45.41 44.43 45.93 46.64 47.80 48.81 50.21 50.64 50.53 50.24 50.86 51.73 53.05 51.25 47.76 45.96 43.04 42.21 37.54 38.64 35.57 34.68 33.85 34.40 35.69 38.32 38.94 39.03 39.03 38.96 38.63 38.35 38.38 38.84 39.19
40.38 40.33 41.23 38.79 40.45 42.98 43.70 43.84 43.77 45.68 47.56 49.89 50.81 52.19 53.41 54.27 52.80 50.50 47.96 41.82 33.04 34.38 36.71 31.07 31.60 31.92 32.19 32.44 37.78 38.64 38.85 38.86 38.67 38.29 38.25 37.83 37.81 37.49
39.31 39.67 37.58 36.96 40.73 43.10 41.03 40.88 40.90 42.11 45.28 46.67 48.28 48.28 49.67 51.58 52.44 41.81 35.90 35.80 31.53 30.90 31.48 30.97 29.60 29.61 29.97 29.74 31.34 37.99 38.42 38.35 38.15 38.14 37.50 37.18 36.85 37.00
37.52 37.12 38.96 38.09 40.78 41.65 39.38 38.85 38.08 39.24 40.86 42.38 45.32 46.58 45.85 48.31 50.21 48.30 43.58 39.23 31.96 28.67 30.30 29.19 28.33 28.40 25.72 27.97 27.66 28.00 29.83 36.62 36.90 36.68 36.89 36.61 36.33 29.65
35.22 35.29 35.62 38.38 39.70 40.57 42.01 40.98 40.92 42.59 42.74 42.92 43.88 38.15 34.95 34.89 34.99 36.07 37.58 39.22 33.52 31.91 31.46 30.52 27.66 26.27 25.43 24.90 25.61 26.24 25.56 25.09 25.13 27.01 33.19 34.49 34.59 32.65
33.68 34.62 34.64 38.18 39.13 41.57 42.74 44.38 45.10 44.78 42.83 41.92 38.22 34.24 32.29 31.98 32.03 32.43 32.75 32.43 32.65 33.11 32.38 30.50 26.64 25.92 24.06 22.87 22.49 22.53 22.24 22.80 22.61 22.86 23.45 28.19 32.23 33.77
34.09 35.38 38.14 38.32 40.18 39.86 40.14 41.69 42.31 39.82 40.59 38.95 34.57 32.17 31.80 32.00 31.73 30.07 30.58 31.01 31.01 31.09 29.98 27.97 26.10 23.43 23.21 21.35 20.41 19.79 21.43 22.39 22.61 21.91 22.20 22.42 22.42 23.14
34.59 34.49 37.12 37.64 38.54 37.90 37.06 38.05 35.41 35.53 35.34 33.88 31.94 31.52 31.42 30.30 28.91 29.64 27.80 28.09 27.10 26.50 28.21 26.77 24.23 23.30 21.13 19.31 20.64 18.68 19.98 19.20 20.70 20.63 21.32 21.93 22.79 23.46
34.61 33.67 32.58 32.29 32.84 33.10 34.05 34.50 34.83 33.52 31.83 31.77 30.47 29.78 29.05 28.19 27.13 27.86 27.28 27.16 25.18 24.39 24.67 26.32 26.19 24.67 20.29 17.71 14.52 18.86 19.83 19.59 21.09 21.29 20.80 20.70 21.84 22.92
31.86 29.11 28.53 29.82 31.11 31.70 32.18 32.18 33.36 32.52 30.68 30.44 29.67 29.25 27.74 26.87 26.22 26.81 26.91 26.58 25.26 24.30 22.44 23.80 22.93 21.40 15.53 18.52 25.51 18.75 19.08 19.62 20.42 21.17 21.46 19.23 20.07 22.28
28.01 27.45 27.76 29.09 30.11 31.83 31.82 31.52 31.37 31.51 30.07 29.65 28.89 28.06 27.51 27.00 27.01 26.04 26.29 26.13 24.59 21.75 17.13 13.81 15.32 9.59 5.19 10.61 17.76 27.89 20.87 21.73 21.87 21.20 21.46 20.79 20.08 21.35
26.96 26.80 27.49 28.81 30.21 31.14 31.46 31.19 31.30 29.01 28.48 28.21 27.85 27.51 27.77 27.31 26.15 25.81 25.90 24.25 21.23 16.47 13.69 10.99 6.65 6.12 9.23 8.62 11.09 16.76 25.31 19.88 19.08 18.61 19.53 21.30 22.70 27.53
26.36 26.77 28.14 28.43 29.91 30.90 31.45 31.36 29.38 28.37 27.92 27.61 27.40 27.45 27.12 26.80 25.97 25.94 24.26 24.71 21.58 14.73 10.41 9.65 12.61 21.66 1.05 5.09 9.27 14.52 18.71 25.55 24.56 19.60 20.75 21.52 21.73 23.75
26.39 26.89 27.22 28.55 29.48 29.73 31.21 30.81 28.41 28.71 27.43 27.36 27.04 27.20 27.28 27.13 25.86 23.92 21.85 20.37 17.21 12.95 11.03 5.44 4.60 3.42 2.71 9.01 10.58 11.47 16.31 20.66 25.18 28.18 29.37 28.56 24.80 21.67
25.99 26.54 27.87 26.85 27.72 29.21 30.86 30.12 28.52 27.58 27.31 27.06 27.18 26.96 26.95 25.26 24.08 22.30 22.09 19.86 17.67 14.33 10.40 9.98 7.34 3.52 7.61 11.00 14.71 14.12 15.21 19.08 19.20 22.06 24.93 30.13 31.20 31.86

GFSNE_sfc_wetblb_012.txt.gz
Wetbulb
52.63 54.02 55.84 56.30 57.45 57.99 58.46 58.38 56.33 52.82 53.16 56.07 55.46 57.64 57.28 56.63 56.17 56.36 55.76 55.18 56.35 57.06 57.80 58.25 58.67 59.51 59.72 60.19 60.71 60.43 60.31 59.32 57.64 55.86 54.26 52.47 50.99 50.05
50.78 50.61 51.51 53.02 54.27 55.72 56.34 56.50 56.25 54.57 51.68 55.60 56.96 57.54 57.48 55.79 55.97 55.63 55.74 54.32 55.56 56.71 57.10 56.61 57.06 57.82 58.34 58.65 58.99 59.00 58.05 56.93 55.19 54.04 52.94 51.32 50.10 48.67
47.72 48.73 49.37 50.47 50.89 51.92 52.75 53.18 52.99 53.53 51.65 53.13 56.26 57.68 57.34 56.89 55.61 55.21 55.18 55.08 55.14 55.27 56.72 56.82 56.57 56.80 57.28 57.35 57.29 56.67 55.44 54.03 52.94 52.07 51.13 49.82 48.43 48.05
46.00 47.33 47.79 49.19 48.42 49.28 49.79 49.59 50.11 51.15 50.97 49.45 52.01 53.56 54.98 56.46 57.14 56.19 54.63 54.71 55.19 54.82 55.55 55.84 56.44 56.47 56.39 56.16 55.09 53.80 52.60 51.49 50.47 49.66 48.60 47.41 46.99 47.05
46.23 46.97 46.77 46.42 45.22 46.37 47.57 47.38 47.99 49.43 49.94 50.02 49.90 51.85 53.24 54.86 54.34 52.56 54.69 53.77 52.66 52.92 54.66 54.80 55.96 55.85 55.45 54.76 52.92 51.39 50.22 49.11 47.85 46.67 45.47 44.91 45.33 45.38
45.74 43.20 42.58 42.82 43.17 44.68 45.07 45.47 47.67 48.59 49.26 48.91 48.83 49.42 50.60 52.12 50.63 51.81 50.54 46.88 48.47 48.75 49.78 51.60 53.91 54.34 54.54 53.73 51.42 49.45 47.98 46.74 45.91 44.82 43.44 42.92 42.86 42.81
39.32 39.04 41.09 42.60 44.22 45.99 44.86 40.90 43.91 44.87 43.84 44.84 46.10 48.31 48.78 48.88 46.74 48.94 48.32 49.98 47.28 48.31 46.00 47.42 49.94 51.10 50.92 51.22 48.51 47.06 46.07 44.87 44.39 43.72 43.11 42.36 41.63 41.19
36.25 36.81 39.19 41.26 42.66 43.39 41.68 42.84 43.79 41.66 42.13 42.85 43.45 43.72 45.49 48.39 49.84 49.88 48.80 47.76 45.51 43.12 42.90 43.62 46.03 45.27 46.03 46.81 46.45 46.10 44.37 43.77 43.31 42.91 42.34 41.85 41.26 40.87
35.50 35.20 36.06 39.26 40.51 37.11 38.71 40.61 41.22 41.84 43.22 41.75 40.72 41.47 42.69 45.70 48.57 48.29 48.79 47.98 46.72 41.88 42.77 40.90 40.08 41.64 39.98 41.64 45.15 43.93 43.27 42.36 41.94 41.50 41.22 40.81 40.52 40.22
34.92 34.73 35.55 37.13 37.27 37.48 36.46 36.26 36.72 38.02 39.94 40.97 41.30 41.51 42.92 44.60 45.91 47.50 47.94 49.24 38.63 37.63 41.67 36.82 35.04 36.58 35.30 37.81 43.89 43.02 41.98 40.94 40.68 40.62 40.70 40.17 39.43 39.32
33.92 34.91 36.47 35.75 38.28 39.28 35.69 34.58 35.38 37.18 41.49 43.44 43.93 44.26 44.77 45.63 46.05 45.51 44.11 39.24 37.54 34.81 35.51 33.61 31.24 30.45 32.10 32.55 37.27 40.62 39.90 39.31 40.03 40.06 40.06 39.41 39.00 38.60
33.29 35.06 36.91 35.83 37.73 37.97 35.05 34.24 34.40 36.72 39.51 40.84 42.21 43.30 44.28 44.01 45.52 44.93 44.18 41.71 39.21 31.30 32.53 32.95 29.72 29.54 27.22 29.48 31.20 32.05 35.70 39.05 39.51 39.69 39.57 39.28 38.48 32.57
32.12 31.93 32.72 36.25 36.85 37.59 38.37 36.61 38.11 39.29 39.02 39.29 39.81 41.26 42.39 42.47 37.56 36.12 36.68 42.52 41.22 33.48 33.11 32.35 29.10 27.22 27.63 25.49 27.52 29.72 30.12 29.58 31.90 34.98 38.36 38.12 37.78 34.60
31.57 31.53 32.36 36.06 37.25 37.49 36.95 39.03 39.59 38.75 37.00 35.34 35.46 37.24 39.06 35.42 32.55 32.64 32.91 33.16 33.88 33.87 34.58 32.14 28.21 27.32 25.46 24.26 23.83 24.61 24.72 25.69 26.31 25.39 24.95 29.98 34.77 35.82
31.69 33.52 34.94 35.22 35.29 34.85 35.99 37.38 37.26 33.86 33.23 32.79 33.62 34.21 34.04 33.12 31.62 30.47 30.67 29.97 29.01 29.51 29.33 29.01 28.67 26.79 26.28 24.78 22.15 21.73 22.64 23.50 23.02 22.45 22.31 22.34 22.58 23.31
32.90 31.21 32.90 33.07 33.28 33.32 33.22 34.12 33.07 33.36 33.07 32.79 32.36 33.34 31.51 29.91 28.82 29.53 28.85 28.47 26.36 24.81 27.26 27.42 26.70 25.34 22.77 23.31 22.37 20.61 20.85 19.66 21.14 21.00 21.46 21.78 22.42 22.89
30.84 29.25 27.95 27.49 27.42 28.18 29.80 31.09 32.04 32.72 31.94 32.42 31.17 30.65 29.50 27.96 27.38 28.32 28.23 27.14 24.96 24.10 23.90 25.27 25.69 24.53 22.43 19.93 17.14 17.71 18.65 18.42 20.26 20.54 20.78 20.21 21.31 22.43
27.99 26.06 25.05 24.70 25.78 27.13 27.94 28.98 30.40 31.92 31.51 30.88 30.07 29.38 28.01 26.69 26.45 26.95 27.74 26.12 24.25 24.03 22.97 23.80 22.04 18.07 16.88 19.00 22.92 15.69 19.11 19.51 19.91 20.61 20.84 19.46 19.60 20.81
24.50 25.10 23.89 24.37 25.64 26.81 27.12 28.59 28.67 30.95 31.30 29.28 28.76 28.22 27.48 26.75 26.74 26.07 26.57 26.08 24.02 21.68 18.29 18.81 13.26 7.08 6.97 9.81 16.89 26.44 19.65 20.15 20.78 20.45 21.01 20.31 20.03 20.80
24.68 24.18 23.32 24.24 25.51 26.25 26.72 26.99 28.41 30.32 29.28 28.49 27.70 27.28 27.27 26.94 25.92 25.76 25.82 23.65 21.58 19.51 12.82 9.50 8.21 2.07 6.35 8.51 10.85 15.69 26.61 21.78 20.73 18.57 18.50 20.90 22.77 27.06
23.50 23.49 23.83 24.51 25.99 26.10 25.20 26.91 28.40 29.43 29.64 27.96 27.04 26.81 26.64 26.68 25.85 25.56 25.46 24.59 22.12 16.04 14.30 10.45 6.65 19.20 1.07 5.42 10.43 14.76 18.92 25.10 23.66 18.15 18.67 19.20 20.99 23.21
23.70 23.45 23.76 24.83 25.69 24.64 24.72 26.19 28.23 28.84 27.79 27.02 26.53 26.61 26.77 26.81 25.47 24.57 23.78 21.63 20.15 18.11 10.82 5.84 5.53 3.74 3.82 8.29 7.84 9.49 14.10 18.95 23.53 27.77 28.55 26.28 21.06 16.81
23.77 23.72 23.74 24.81 24.97 24.12 24.29 25.95 27.74 28.40 27.26 26.79 26.48 26.50 26.27 24.47 23.60 22.62 21.60 20.43 17.32 16.07 13.58 10.99 7.60 4.43 6.61 9.02 8.51 8.31 11.13 15.20 17.58 19.85 24.35 30.08 30.88 30.28

GFSNE_sfc_wetblb_015.txt.gz
Wetbulb
47.78 48.22 48.00 49.40 51.09 51.43 52.04 52.27 50.15 46.20 47.13 51.01 52.42 56.24 57.98 58.27 56.74 56.75 56.71 56.56 57.25 56.55 57.33 58.01 58.01 58.45 58.89 59.59 60.51 60.90 61.09 60.99 60.84 61.26 61.45 59.42 58.41 58.18
44.95 44.91 45.90 47.94 48.59 48.99 49.19 49.52 49.65 48.36 45.72 49.42 51.03 52.86 54.72 56.33 56.84 55.64 55.97 54.33 56.03 57.19 56.88 56.23 56.40 56.92 57.21 57.80 58.50 59.32 59.75 60.02 60.40 61.37 61.40 59.18 57.75 56.30
43.09 44.21 44.93 46.98 46.63 45.91 45.53 45.75 46.14 47.20 45.13 46.65 49.02 50.76 51.27 52.31 54.12 55.81 55.50 55.46 55.76 55.81 56.92 56.97 56.37 56.22 56.47 56.59 57.06 57.92 58.85 59.41 59.59 60.28 60.57 58.91 57.16 55.05
42.01 43.31 44.70 43.70 41.01 41.57 42.24 42.27 44.38 44.48 43.71 41.91 45.41 47.30 48.78 51.02 52.23 52.54 54.10 55.78 55.37 55.64 56.42 56.25 56.04 56.05 56.20 56.18 56.06 56.55 56.87 57.54 58.12 58.51 58.35 57.54 55.58 53.78
42.14 41.93 38.37 38.24 37.62 39.96 39.29 40.20 43.15 44.02 39.45 40.45 43.03 46.37 47.49 49.91 50.39 51.55 52.06 53.45 54.84 53.93 55.52 55.83 56.15 55.94 55.71 55.85 55.80 55.79 55.74 56.00 56.12 55.51 55.03 54.30 52.92 51.34
37.27 37.24 36.91 36.43 36.68 38.25 38.97 40.88 37.81 36.00 37.85 39.71 39.26 40.18 42.08 44.62 47.30 47.47 48.33 49.81 50.13 52.04 52.59 53.12 53.98 54.26 54.94 55.40 55.25 54.50 54.17 54.12 53.93 52.99 51.79 50.44 48.68 47.94
33.52 33.38 34.84 37.05 39.47 38.81 38.39 38.90 37.10 35.15 35.38 35.80 36.05 37.31 39.18 40.98 40.97 44.36 45.09 47.04 48.69 48.82 48.77 50.48 49.97 50.33 51.47 53.32 53.32 52.76 52.81 52.65 51.75 51.23 49.64 47.62 46.16 45.98
30.49 32.06 34.43 35.68 35.91 39.55 40.57 40.34 39.13 35.58 34.48 34.40 34.26 33.53 35.38 37.44 40.27 41.27 42.31 42.46 42.22 48.14 48.11 47.81 49.44 47.34 49.27 50.85 52.48 53.04 51.12 50.50 49.71 48.23 46.73 45.32 44.44 43.76
31.24 31.83 32.40 34.31 35.64 36.04 37.43 38.51 38.27 38.90 38.39 35.71 33.72 34.54 35.62 37.75 39.47 38.92 39.41 39.70 40.53 45.94 44.59 44.71 44.21 44.68 47.18 45.90 50.35 50.16 49.10 48.07 47.09 46.32 45.08 43.93 43.21 42.37
31.70 31.94 31.98 32.72 34.45 34.31 33.43 33.19 33.55 34.09 34.87 36.03 36.09 37.52 39.08 40.55 40.74 40.82 40.54 40.33 41.18 42.89 44.27 41.29 42.33 41.14 37.98 40.44 48.08 48.35 47.39 46.11 45.41 44.79 44.08 43.04 42.12 41.66
32.14 32.64 32.99 32.49 35.34 36.56 32.91 32.04 32.76 33.43 37.67 39.93 41.57 42.07 42.10 42.95 43.66 42.45 40.05 38.67 37.58 40.31 39.78 41.49 36.94 32.52 33.25 35.06 42.47 46.73 45.38 44.64 43.90 43.18 42.72 41.74 41.02 41.12
32.20 32.57 35.10 33.78 35.70 36.37 33.30 32.12 31.98 33.76 35.35 37.31 36.94 37.01 38.81 38.07 40.86 41.40 41.71 38.82 38.56 38.58 36.34 36.75 31.26 30.44 28.66 30.18 32.89 42.04 41.42 42.66 41.89 41.01 40.95 41.30 40.97 36.82
31.39 29.96 30.90 34.68 35.50 35.59 35.50 32.52 32.84 35.18 35.80 34.68 33.60 33.73 33.96 35.10 37.68 38.84 38.55 37.75 36.71 36.39 39.60 36.13 30.63 29.45 28.88 25.98 28.99 31.18 32.24 36.06 36.67 38.92 40.88 40.83 40.09 36.14
29.06 30.17 31.29 34.06 33.99 34.10 33.01 34.00 35.09 35.84 32.66 31.61 31.69 31.82 32.09 33.67 34.80 35.28 33.79 33.07 33.20 32.57 36.69 33.63 30.16 28.34 25.84 24.93 24.32 26.55 28.15 29.35 31.19 32.19 33.52 39.01 40.19 39.39
30.58 33.36 32.96 32.65 32.62 30.67 31.54 33.33 33.58 30.70 30.44 30.05 30.60 30.91 32.26 33.15 32.45 30.76 30.73 29.69 28.12 27.94 28.65 30.49 29.77 28.53 27.83 25.25 23.09 23.27 24.66 25.27 27.21 27.40 26.82 27.39 27.02 26.26
33.87 29.25 29.78 30.23 30.62 29.36 28.62 29.56 29.46 29.50 29.79 29.94 30.86 31.65 32.27 31.26 28.92 29.46 28.71 27.85 25.57 24.40 26.45 27.78 27.11 27.27 24.64 24.59 25.28 24.80 24.41 23.52 24.30 23.92 24.18 23.66 23.87 24.50
30.23 26.23 24.38 24.73 24.16 24.52 25.75 26.47 27.59 28.01 28.73 29.19 30.21 29.09 28.68 29.56 27.84 28.25 28.13 27.13 24.67 23.48 23.07 24.90 25.46 25.15 24.14 23.64 22.30 23.05 21.24 20.53 22.04 21.40 21.58 20.78 21.50 22.03
26.74 23.08 22.57 23.18 22.96 23.45 23.65 24.67 26.35 27.15 27.42 28.10 29.38 28.24 27.69 27.81 26.72 27.05 27.55 25.93 23.92 23.53 22.90 23.69 23.03 21.60 20.99 22.68 24.72 19.02 19.57 19.47 20.31 20.82 20.46 18.84 18.95 20.53
23.94 22.99 22.38 22.83 22.80 22.83 23.59 24.91 23.98 25.27 27.35 28.08 29.02 28.05 27.37 27.06 27.55 26.38 26.44 25.21 23.15 21.97 19.50 18.31 17.53 16.31 14.58 12.68 17.62 24.72 18.88 19.57 19.72 19.52 20.05 19.79 19.35 20.65
24.14 22.75 22.55 22.81 22.38 22.46 23.45 23.83 24.06 24.55 25.47 28.41 27.99 27.21 26.86 26.72 25.76 25.79 25.07 23.25 21.86 20.26 18.08 14.64 12.35 7.61 7.83 8.61 11.58 15.52 25.24 20.65 20.44 19.68 19.58 20.89 22.12 26.61
22.85 22.74 23.29 23.09 22.34 22.92 23.73 23.93 23.74 23.74 26.18 27.80 27.14 26.57 26.39 26.42 25.59 25.57 25.56 25.12 22.66 20.02 17.59 15.07 14.14 16.85 -0.97 6.05 14.11 14.71 17.97 26.41 23.74 17.77 18.03 17.89 20.19 22.05
22.57 22.81 23.08 23.03 22.55 23.14 23.54 23.21 23.08 23.71 24.73 27.35 26.45 26.42 26.49 26.47 25.34 24.60 23.71 21.82 20.25 18.91 15.52 11.55 10.73 9.90 9.04 8.36 7.68 8.91 13.07 17.62 22.97 27.55 25.80 25.31 20.34 17.70
22.89 23.14 22.91 22.65 22.72 23.30 22.98 22.61 22.67 23.61 26.28 26.75 26.11 25.83 25.42 23.57 23.72 23.11 21.59 20.13 17.70 13.00 11.48 9.55 6.19 3.27 4.99 7.03 7.34 6.55 10.48 13.46 16.46 17.33 23.13 29.72 29.37 29.95

GFSNE_sfc_wetblb_018.txt.gz
Wetbulb
42.24 41.93 42.92 44.43 45.98 47.70 47.67 46.07 42.81 38.12 38.62 42.76 44.57 49.32 51.02 52.45 53.49 54.36 55.52 56.23 57.51 57.76 57.45 57.45 57.76 58.46 59.09 59.65 60.32 60.92 61.28 61.27 61.38 61.75 62.41 62.18 61.98 62.75
37.98 40.36 41.50 43.55 44.59 45.48 42.61 42.17 41.91 40.20 37.12 40.61 42.58 44.36 46.25 48.24 50.24 51.20 52.33 53.01 55.32 57.05 57.48 57.05 57.03 56.94 57.14 57.67 58.13 58.53 58.98 59.51 60.68 61.74 62.11 62.35 61.91 61.95
36.39 37.15 41.22 42.10 38.03 38.10 38.32 40.19 38.92 37.56 36.51 39.35 42.17 43.25 38.76 42.04 47.26 50.13 51.21 52.03 53.12 54.81 56.50 56.81 56.61 56.49 56.43 56.29 56.74 57.50 58.20 58.72 59.29 60.54 61.47 61.60 61.64 61.54
35.01 36.85 35.90 37.11 35.73 35.91 36.70 36.04 36.34 37.34 38.49 36.11 36.88 37.07 37.69 42.18 42.55 42.34 45.23 48.65 50.49 53.08 54.86 55.41 55.84 56.00 56.16 56.17 56.11 56.17 56.26 56.70 57.36 58.24 59.63 60.34 60.54 61.06
34.89 33.40 32.49 32.05 31.32 33.41 33.55 33.64 35.27 37.60 38.39 35.64 33.68 36.12 37.29 38.60 39.83 41.24 42.95 45.59 48.55 49.97 52.76 53.88 54.65 55.15 55.42 55.77 55.63 55.51 55.22 55.25 55.52 55.89 56.87 58.15 58.91 60.17
33.65 31.92 31.10 30.89 31.77 32.77 32.69 33.06 34.93 36.18 34.66 33.98 34.30 34.01 34.77 36.61 37.18 36.73 37.43 40.67 41.31 45.28 48.24 50.11 52.32 53.05 54.07 54.65 54.69 53.82 53.56 54.01 54.99 55.48 55.44 55.52 56.29 57.94
31.45 31.44 32.03 33.64 36.05 35.74 34.23 33.62 34.07 33.24 33.10 32.85 32.78 33.27 32.66 32.62 32.57 34.90 35.81 37.36 39.40 42.01 42.96 45.35 47.23 49.23 50.03 51.58 51.21 51.23 52.13 53.17 53.57 54.56 55.30 55.68 55.49 56.09
29.93 30.84 31.67 33.65 33.88 37.10 37.29 37.39 36.17 32.59 31.28 31.25 31.14 30.23 30.49 31.76 33.15 33.75 35.21 35.02 33.89 41.12 40.77 41.58 44.39 45.84 48.56 49.57 50.59 51.02 51.52 52.24 52.88 53.54 54.15 54.60 53.26 52.16
30.27 30.40 30.86 32.74 33.82 32.69 35.08 36.45 35.77 36.66 36.56 33.27 30.86 30.84 31.15 33.34 34.16 33.96 35.56 35.95 35.91 38.92 39.78 38.12 41.57 40.88 44.43 47.31 49.43 49.97 50.62 51.35 52.19 52.61 52.88 51.23 49.75 49.43
30.62 30.83 30.76 31.62 32.69 32.94 32.13 31.65 32.55 32.84 32.63 33.65 34.13 34.52 35.25 36.37 37.20 37.25 36.11 36.87 38.51 39.56 40.97 36.70 40.37 40.30 43.84 44.75 46.10 47.63 48.72 49.69 50.35 50.94 49.40 47.82 47.12 46.19
30.88 31.17 32.81 30.91 33.67 35.38 32.55 30.95 30.04 30.67 34.62 35.73 36.88 37.88 38.53 39.18 38.19 35.81 34.32 33.05 32.81 35.96 40.47 39.26 39.92 40.50 34.27 35.30 38.82 43.99 46.90 49.33 48.65 47.56 46.44 45.64 44.68 44.30
29.89 32.12 33.09 32.18 35.05 35.64 30.82 29.74 27.84 27.13 29.12 31.42 33.94 33.94 34.38 34.58 36.72 34.82 33.85 31.51 32.50 31.33 38.50 38.55 39.18 33.86 32.52 31.09 33.57 37.79 45.69 47.66 46.89 45.73 44.96 44.04 43.20 38.68
29.95 28.22 29.15 33.64 35.84 33.59 33.27 28.98 28.00 31.01 32.10 30.57 29.38 30.47 31.62 32.72 33.37 33.93 35.18 33.43 31.22 30.16 34.27 35.88 34.30 31.60 31.00 28.23 29.46 31.45 40.02 42.66 41.81 42.65 43.41 42.45 41.52 38.46
27.59 28.33 29.69 33.97 32.29 31.76 30.67 31.82 32.34 31.94 28.01 27.50 27.70 28.65 29.14 30.43 31.62 32.47 33.04 33.07 31.22 28.85 29.48 29.82 31.46 32.21 27.73 25.85 27.04 28.47 30.77 32.34 35.64 35.66 37.18 40.48 41.45 39.80
29.08 32.12 32.04 31.35 30.45 28.54 29.73 30.43 30.09 25.60 26.05 26.24 26.29 27.26 28.28 30.83 31.53 30.89 31.47 30.76 29.35 27.47 26.81 27.95 30.45 29.30 29.10 26.63 24.43 24.42 26.63 26.89 31.83 31.47 34.56 36.74 36.76 36.22
32.12 28.94 28.92 28.71 28.87 27.77 26.15 25.63 24.61 25.38 26.24 26.29 25.81 27.13 28.01 29.37 28.40 29.92 28.31 27.97 26.06 25.69 27.24 27.37 26.31 27.53 25.14 26.23 27.35 25.54 26.60 25.34 27.45 28.90 28.70 27.40 28.55 31.89
28.90 25.91 23.92 23.37 22.58 22.65 22.96 23.25 23.68 24.75 25.33 25.28 24.95 25.17 25.61 28.05 27.53 29.24 27.53 27.21 24.49 23.37 23.20 24.88 25.84 26.20 25.75 25.94 23.82 24.68 23.64 24.40 25.72 24.92 25.88 24.11 24.73 25.67
25.10 22.60 22.15 21.62 21.36 21.71 21.85 21.74 22.65 24.21 24.59 24.62 24.22 24.58 25.94 26.74 26.54 27.66 27.30 25.54 23.43 22.88 21.93 22.12 21.76 22.64 22.99 24.65 26.82 21.91 21.82 21.68 23.11 23.39 23.97 22.09 21.25 22.67
21.99 22.75 21.23 21.04 21.48 21.72 21.72 21.39 21.21 23.50 24.72 23.82 23.61 24.85 27.15 26.56 26.73 26.06 25.88 24.57 22.30 21.24 19.18 18.77 17.42 18.28 18.25 16.12 20.31 26.27 20.60 20.95 21.25 20.59 21.31 20.88 20.18 21.15
21.99 21.94 20.73 21.23 21.52 21.43 21.42 21.20 22.11 23.22 22.90 23.51 24.22 25.83 26.33 25.79 25.66 25.01 24.13 22.70 21.62 20.60 19.20 18.06 17.28 15.11 15.39 16.01 17.24 19.17 25.17 20.46 19.73 19.12 19.31 20.67 22.46 27.55
21.24 21.14 21.58 21.70 21.56 21.76 21.55 21.77 22.58 22.27 23.57 22.76 23.95 26.14 26.05 25.93 25.23 25.41 25.43 25.38 22.82 20.30 17.77 15.68 13.14 19.15 6.45 11.17 16.76 16.20 18.73 26.46 23.13 19.09 18.71 17.91 19.10 20.63
21.37 21.36 21.84 21.95 21.72 21.62 21.49 22.10 21.87 21.99 22.09 22.90 25.78 25.58 25.21 24.90 24.06 23.51 22.98 21.27 20.13 18.63 15.24 11.34 11.02 8.97 9.64 12.35 9.97 10.57 15.29 18.60 24.02 26.33 26.01 25.08 20.10 16.52
21.78 21.83 21.84 21.41 21.74 21.57 21.78 21.60 21.59 21.65 22.34 23.57 25.85 24.28 23.67 22.89 23.02 22.17 21.03 19.71 18.40 16.71 15.61 15.72 13.89 11.23 7.94 8.88 10.18 10.97 12.72 15.16 19.82 21.42 24.73 28.02 30.13 33.09

GFSNE_sfc_wetblb_021.txt.gz
Wetbulb
38.46 38.79 39.89 41.59 44.58 44.97 43.29 40.17 37.84 32.85 35.76 40.59 40.54 43.65 45.79 47.64 48.59 46.66 46.24 47.84 51.81 53.55 54.61 55.07 55.62 56.70 57.94 58.63 59.23 59.62 60.18 60.57 61.33 61.91 62.42 62.36 62.44 63.08
37.28 37.43 39.04 40.71 40.48 40.95 40.53 39.40 39.10 38.19 35.33 38.49 38.92 40.58 43.76 44.19 44.87 44.20 44.40 47.99 47.68 48.40 49.68 51.99 53.84 55.06 55.83 56.74 57.58 58.04 58.45 58.97 59.65 60.74 61.39 62.44 62.48 62.33
36.55 36.79 38.06 37.25 36.40 36.79 36.62 37.55 38.07 36.84 33.52 35.72 39.61 40.73 41.81 41.30 41.43 42.38 44.12 43.70 46.21 48.26 48.70 51.22 51.73 52.54 53.68 54.74 55.60 56.44 57.23 57.97 58.68 59.40 60.38 60.81 61.78 61.81
34.98 36.36 35.32 34.92 33.67 34.01 34.13 34.44 35.54 35.74 35.20 33.79 36.36 38.29 37.94 39.43 40.18 40.28 41.61 43.14 43.56 45.51 47.34 49.79 47.92 49.45 51.75 53.42 54.18 54.74 55.16 56.05 56.67 57.47 58.42 59.40 60.58 60.73
34.70 34.49 33.47 33.16 32.40 33.51 33.98 34.38 35.45 35.61 36.21 34.80 34.00 36.55 37.13 38.16 38.10 38.80 39.01 40.52 41.84 43.57 44.55 45.47 46.37 48.08 48.75 49.77 51.80 53.17 53.78 54.43 55.10 55.30 55.84 56.71 57.65 58.66
34.25 33.78 33.12 32.82 32.45 33.50 33.89 34.70 34.86 34.73 34.79 34.06 34.03 34.07 34.81 36.16 36.81 33.71 33.53 37.22 37.89 40.23 41.77 42.81 44.45 45.98 47.92 49.04 50.13 50.75 51.56 52.80 54.26 54.83 54.69 54.50 54.75 56.04
33.20 33.08 33.37 34.16 35.15 35.48 34.51 34.26 33.95 33.44 33.48 32.86 32.13 32.56 32.78 33.22 32.51 34.26 32.88 33.92 35.21 37.14 37.49 40.00 42.40 44.34 46.63 45.99 46.48 49.22 50.54 51.46 52.09 52.77 53.76 54.60 54.12 54.25
31.65 32.41 33.09 33.91 34.50 36.05 36.40 36.19 35.24 32.36 31.34 31.50 31.30 30.38 31.21 32.14 33.67 33.65 33.50 32.85 31.33 39.74 38.28 39.87 41.64 40.62 43.24 44.81 45.94 46.46 47.34 50.08 50.86 51.92 52.30 52.53 52.83 53.05
31.42 32.01 32.23 33.21 34.01 33.83 34.70 35.42 35.61 36.55 34.90 32.39 30.05 30.84 31.21 32.82 32.95 33.15 32.42 32.96 32.94 36.38 37.90 34.75 38.86 38.16 42.05 43.14 45.03 45.58 46.48 48.28 49.36 49.88 50.38 51.11 51.81 52.57
31.58 31.88 31.91 32.27 33.39 32.42 32.65 33.31 32.71 32.59 32.81 33.09 32.35 32.07 33.13 34.77 35.02 34.94 34.52 34.52 34.72 36.35 37.08 32.80 36.85 36.68 40.59 42.68 44.85 45.75 46.90 47.84 48.02 48.44 48.92 49.63 50.59 50.88
31.77 31.89 32.50 31.80 33.26 34.66 33.47 31.28 30.11 30.59 33.18 33.52 34.15 35.13 35.77 35.86 34.97 33.27 31.77 31.28 30.88 32.24 36.47 33.87 35.87 35.36 37.81 41.11 43.07 44.42 44.57 45.21 46.37 47.20 48.43 48.65 49.60 49.30
30.95 31.83 32.54 32.00 33.72 35.62 31.11 29.40 27.31 28.21 29.79 30.92 31.58 31.80 32.35 32.93 34.19 33.43 32.08 29.88 30.14 28.69 35.20 32.31 33.01 32.84 33.21 34.59 34.74 36.28 37.99 41.70 43.71 45.56 48.45 48.14 46.05 43.32
30.40 29.46 30.46 32.89 35.86 33.24 32.36 29.11 28.14 30.22 29.93 28.72 27.81 28.01 29.53 30.86 31.65 32.64 32.73 31.93 29.59 29.10 33.34 32.76 31.33 31.60 32.17 33.66 33.51 35.34 34.46 40.89 44.91 46.49 46.35 45.14 43.59 41.61
28.67 29.52 30.81 33.53 31.91 31.25 30.07 30.62 31.27 30.40 27.08 25.59 25.55 26.40 27.73 28.17 29.44 31.06 31.07 33.20 32.70 31.13 34.20 30.44 27.92 29.59 29.98 31.14 30.99 31.50 31.11 35.77 41.81 40.86 40.20 41.29 41.56 41.13
30.01 31.62 31.58 30.68 30.09 28.80 29.00 29.65 29.15 25.98 25.04 24.49 24.90 25.85 27.09 28.22 28.73 29.50 30.95 32.23 32.16 32.09 31.18 28.83 27.76 28.14 29.29 30.89 28.88 28.38 29.90 29.69 35.75 36.75 36.59 35.34 34.93 36.42
31.95 28.86 28.78 28.68 28.78 27.73 26.57 26.59 25.93 25.59 24.73 24.68 24.79 26.46 27.35 26.89 26.68 28.49 30.09 30.22 29.37 29.14 29.31 28.96 28.43 28.99 30.04 31.79 31.26 29.95 28.71 28.66 31.89 31.59 31.25 34.75 35.63 36.49
28.54 26.70 25.04 24.64 24.25 23.69 24.15 24.44 24.95 25.01 24.45 24.60 24.65 24.72 25.10 25.58 26.32 30.24 29.56 29.10 27.04 25.20 25.33 26.88 28.27 29.23 29.03 30.07 26.81 28.29 28.63 28.05 30.52 30.20 29.19 27.14 28.99 34.26
25.76 23.15 22.17 22.96 21.91 22.23 22.29 22.66 23.64 24.12 23.93 24.09 24.51 24.31 24.27 25.14 26.94 28.94 29.06 26.53 24.32 23.50 22.77 22.99 22.88 24.70 26.57 26.66 29.13 25.23 25.54 25.32 27.58 29.28 29.48 26.60 25.27 28.62
22.78 21.98 21.68 21.75 21.78 22.03 22.14 22.35 21.94 23.27 23.95 24.02 23.55 24.01 24.14 26.10 27.25 27.38 26.30 25.20 23.75 22.61 21.24 21.03 20.22 21.23 22.65 19.50 23.77 28.26 23.94 24.88 25.45 24.88 26.89 27.18 25.94 25.85
22.54 21.91 21.52 21.82 21.83 21.68 22.03 22.05 22.34 22.62 22.69 23.36 23.26 23.55 26.05 26.31 26.80 26.06 25.39 24.29 23.52 22.51 21.31 20.02 19.97 18.45 20.72 21.07 21.58 22.84 27.01 25.56 25.59 23.93 23.12 25.04 27.07 29.03
22.07 22.01 22.21 22.09 21.89 22.07 22.10 22.17 22.06 21.94 23.18 22.39 22.97 24.87 25.90 25.98 25.68 25.44 24.99 25.15 23.97 22.29 19.81 18.66 17.46 20.96 17.62 19.74 21.87 21.02 24.66 27.32 26.45 25.05 24.47 24.05 23.13 23.95
22.08 21.87 22.18 22.33 22.06 21.86 21.94 21.81 21.73 21.78 21.91 22.36 23.37 26.41 25.66 25.44 23.83 23.31 22.15 21.50 20.87 20.72 19.91 19.61 19.96 21.21 22.15 22.15 19.52 19.78 22.24 24.68 27.50 27.83 28.56 27.47 26.08 22.44
22.32 22.40 22.17 22.06 22.11 21.90 21.63 21.48 21.47 21.61 22.26 23.10 24.99 25.80 24.79 23.19 22.64 22.06 21.87 22.68 23.54 22.39 21.39 22.41 22.00 21.30 18.94 21.20 21.58 21.48 21.46 23.19 24.79 25.39 27.36 30.51 31.85 30.54

GFSNE_sfc_wetblb_024.txt.gz
Wetbulb
39.73 39.84 39.55 40.24 41.95 41.50 40.38 38.93 36.93 32.74 33.68 37.87 39.15 42.26 41.49 42.63 44.47 43.52 45.66 46.22 45.50 45.14 45.83 48.04 47.58 49.45 50.87 52.49 53.81 55.54 56.49 57.93 58.13 58.53 58.98 59.56 60.95 63.09
38.56 38.34 38.76 39.32 40.42 39.51 38.13 37.34 36.15 34.31 32.46 38.22 39.53 39.40 40.60 41.33 42.84 43.50 43.24 43.51 44.12 44.39 44.51 46.52 47.35 46.90 48.97 51.12 51.64 52.87 54.83 56.05 56.90 57.44 58.74 59.47 59.82 59.73
37.93 37.63 37.28 38.52 37.66 37.05 37.03 36.25 35.37 35.32 33.50 36.02 38.79 39.79 39.14 39.36 40.63 41.21 41.91 41.17 42.70 43.03 43.63 44.14 44.40 45.55 47.95 48.99 48.89 50.47 52.75 54.12 55.23 56.35 57.41 58.52 59.41 59.37
36.44 36.45 36.09 36.58 35.71 35.85 35.65 34.94 35.58 36.21 34.76 33.12 35.97 36.99 37.55 38.53 39.49 38.83 39.58 40.38 40.75 41.56 41.82 42.42 42.97 44.02 44.99 46.40 47.62 48.73 49.33 50.52 52.78 54.92 55.91 56.92 58.02 59.04
36.13 35.55 35.17 34.98 33.98 34.67 34.65 34.97 35.89 35.63 35.98 34.17 33.74 36.86 37.20 38.12 37.30 37.95 38.13 38.86 39.57 40.26 40.65 40.91 41.79 42.84 43.15 44.49 45.60 47.12 48.13 49.27 51.38 52.58 53.90 55.26 56.45 57.28
35.78 35.58 34.87 34.17 33.70 33.71 34.08 33.96 34.76 34.55 34.29 33.82 33.77 34.11 35.37 36.50 36.66 35.30 35.24 37.59 37.37 39.19 40.18 40.63 41.43 41.83 42.67 43.52 44.94 45.82 46.68 46.40 49.53 51.75 52.71 53.23 53.98 55.33
35.08 34.60 34.65 34.73 35.09 35.42 34.36 34.07 33.54 33.16 33.49 32.89 32.48 33.14 32.80 32.76 32.48 34.68 33.93 34.76 35.63 37.59 38.04 39.41 39.74 41.57 42.68 43.60 44.25 43.92 45.23 46.35 47.87 47.64 51.09 52.77 52.98 53.60
32.79 33.49 34.06 34.32 34.47 35.76 35.97 35.98 34.89 32.39 32.53 32.53 31.93 30.44 30.50 31.78 33.42 32.58 32.26 31.38 30.14 37.74 35.93 36.51 39.38 39.13 40.99 42.31 43.36 44.86 44.89 45.26 46.10 46.87 47.46 49.66 51.68 52.21
32.80 32.62 32.82 33.59 34.19 33.69 34.78 35.13 35.37 36.44 35.78 32.18 30.62 30.77 30.58 32.45 32.75 31.73 32.25 32.25 32.15 33.95 34.22 31.62 37.55 37.25 40.14 39.80 41.87 42.76 44.00 45.04 45.69 46.28 47.05 48.85 49.73 50.22
32.83 32.78 32.32 32.52 33.46 33.39 32.98 33.29 34.69 34.08 33.50 33.27 32.38 32.19 32.85 33.79 33.56 33.08 32.58 32.84 33.91 35.63 36.33 31.50 36.96 36.04 38.93 40.26 40.81 41.75 43.07 44.86 45.47 46.06 47.01 48.21 48.08 48.41
32.46 32.68 32.77 32.31 33.55 34.07 32.93 31.35 31.66 31.68 33.39 33.21 33.78 34.26 34.29 34.42 33.71 31.53 30.33 29.63 28.50 31.56 35.06 33.24 34.15 34.46 35.37 35.92 39.11 40.28 42.23 43.96 45.54 45.94 46.43 47.02 47.32 47.77
31.74 32.19 33.21 32.68 33.64 34.44 31.71 30.28 28.35 29.13 30.13 31.15 31.66 31.89 31.42 31.71 32.66 31.47 31.18 27.80 28.42 28.17 32.78 31.34 31.83 32.80 30.62 36.41 39.35 37.31 37.77 40.12 41.97 43.16 44.32 45.28 46.26 46.22
31.14 31.33 31.99 33.04 33.98 32.91 32.17 30.11 28.75 29.83 30.06 29.50 28.71 28.59 29.38 30.14 30.72 31.38 30.92 29.60 27.48 28.25 31.97 32.43 31.38 31.43 31.53 30.95 34.08 36.88 37.88 39.50 39.46 41.00 44.34 45.96 46.92 45.76
29.68 31.33 31.50 33.06 31.66 31.06 30.50 30.87 30.97 30.38 28.77 26.97 26.44 26.53 27.04 27.51 28.76 29.88 30.25 30.32 30.85 30.16 31.71 32.59 29.69 30.25 29.17 28.55 28.82 34.67 37.70 34.85 35.30 39.77 42.19 45.80 45.90 45.34
31.12 31.97 32.51 30.89 30.16 29.36 29.78 29.68 29.38 27.78 26.45 25.46 25.34 25.65 26.75 27.75 28.83 29.19 30.26 30.65 31.07 31.68 32.51 31.61 29.77 28.79 28.23 27.05 27.50 32.35 33.50 31.73 36.28 35.37 35.17 36.72 38.23 39.91
31.67 30.92 29.95 29.33 28.96 28.46 27.85 28.13 27.65 27.11 25.81 25.48 25.03 26.26 27.28 27.41 27.28 28.55 27.90 28.84 30.03 30.73 31.34 30.44 29.72 29.14 27.64 28.28 29.81 32.32 31.87 30.02 32.11 33.66 33.27 32.89 33.64 34.24
30.09 28.40 27.04 26.23 25.34 25.69 26.02 26.26 26.36 25.99 25.15 25.35 24.75 24.64 25.16 25.79 25.93 27.57 28.38 29.69 27.18 26.28 26.57 28.59 29.51 29.55 30.20 31.01 30.76 32.65 31.19 30.26 31.94 31.86 32.31 31.54 32.30 32.71
26.94 24.48 23.94 24.09 23.88 24.00 23.65 23.70 24.44 24.81 24.56 24.23 24.00 24.10 24.18 24.12 25.44 28.90 28.91 27.36 25.41 24.66 23.43 23.83 23.56 24.84 29.12 28.52 31.16 29.06 29.32 29.39 30.93 32.15 32.92 31.20 30.93 32.52
23.79 23.47 23.28 23.39 23.20 23.42 23.36 23.18 22.58 23.54 24.13 23.51 23.49 23.68 23.92 26.10 27.51 27.74 28.01 26.75 25.18 24.33 23.92 23.06 22.76 24.50 24.47 21.40 25.69 30.56 27.38 29.09 29.35 30.06 31.60 30.17 28.98 32.28
23.84 23.43 22.98 23.12 23.15 23.05 23.04 22.71 22.70 22.90 22.72 23.39 23.35 23.96 25.44 26.32 26.03 26.08 26.04 25.40 25.01 24.07 23.65 23.30 20.93 20.09 21.46 22.00 21.75 25.39 29.70 28.65 27.25 26.71 26.43 27.79 29.69 35.73
23.40 23.24 23.67 23.39 23.31 23.12 23.02 22.78 22.64 22.28 23.41 23.01 23.89 24.78 26.85 26.31 25.45 25.10 24.66 25.12 24.81 23.69 22.81 22.78 21.80 23.09 21.73 24.06 24.08 23.36 26.41 30.21 29.82 27.67 27.88 26.78 25.18 26.65
23.50 23.21 23.39 23.45 23.11 22.86 22.70 22.61 22.23 22.19 22.84 23.90 24.71 26.00 27.06 26.30 24.47 23.46 24.44 24.50 25.14 25.20 24.93 26.39 26.30 27.24 26.85 24.65 22.04 22.78 24.09 27.46 30.59 30.93 31.63 30.49 27.90 23.60
23.26 23.22 23.21 23.28 23.35 23.17 22.77 22.21 22.11 22.83 23.95 24.72 25.42 26.67 25.92 24.60 24.95 24.61 24.96 26.20 26.58 26.31 25.62 26.18 26.41 26.08 25.58 25.34 24.70 23.81 24.72 25.65 27.90 28.46 28.88 33.45 31.56 31.75

GFSNE_sfc_wetblb_027.txt.gz
Wetbulb
38.95 39.06 38.77 39.35 40.00 39.58 40.45 38.63 34.75 29.40 29.97 34.08 34.32 38.97 40.49 39.87 40.97 41.29 40.24 43.99 43.88 44.39 44.80 44.70 44.65 45.26 45.79 47.28 48.45 48.27 48.65 50.30 51.69 53.76 55.12 56.55 57.84 58.69
38.14 37.97 37.97 38.50 38.30 38.78 38.52 37.66 36.17 33.14 29.05 34.12 35.05 36.99 38.45 39.76 40.55 40.35 39.94 42.72 41.97 43.09 43.43 43.73 44.52 44.29 44.39 44.75 45.57 46.19 46.89 48.86 50.29 51.52 53.64 55.86 56.86 57.86
37.38 37.18 36.93 37.42 36.81 36.78 36.70 35.98 34.92 34.53 30.59 32.93 35.52 37.20 36.77 36.58 37.55 38.79 39.19 38.97 39.65 41.78 42.31 42.54 42.66 42.94 42.87 42.93 43.53 44.70 45.92 47.24 48.49 50.05 51.68 53.67 55.82 56.76
35.98 36.02 35.73 36.60 35.45 35.72 35.09 34.23 33.89 34.26 32.18 30.13 33.23 33.98 34.44 35.58 36.41 36.26 37.65 38.75 38.15 40.34 41.32 41.52 41.93 41.99 42.10 42.32 42.53 43.49 44.35 44.70 46.13 47.95 48.87 51.28 53.23 55.28
35.35 35.09 34.88 34.96 33.77 33.98 33.83 33.03 33.33 34.20 33.55 31.94 30.90 33.55 33.97 35.17 34.73 35.79 35.48 35.29 37.07 39.85 40.46 40.38 40.79 41.18 42.04 42.40 42.80 43.54 44.35 44.20 44.85 46.15 47.90 49.29 51.36 53.01
35.02 35.01 34.98 34.14 33.30 32.97 32.90 32.83 33.46 32.40 32.34 31.21 30.99 31.42 32.66 34.01 34.29 31.75 30.39 33.28 33.42 36.52 37.24 37.80 39.33 40.02 40.89 41.74 42.21 43.03 43.84 44.78 44.86 44.58 46.62 47.78 49.47 52.06
34.03 34.62 34.66 35.40 35.68 35.25 33.51 32.87 32.04 31.67 30.75 30.09 29.73 30.98 31.47 29.97 28.94 30.42 29.49 30.60 31.61 33.12 33.06 34.38 35.52 36.62 37.50 39.68 40.01 42.00 42.87 43.20 43.80 44.60 45.03 45.64 47.29 48.05
32.51 33.38 33.93 34.45 34.71 35.83 35.92 35.99 34.74 30.88 29.72 30.16 30.74 29.09 28.23 28.65 29.33 28.82 28.43 27.20 25.50 32.95 32.13 31.70 33.92 32.84 34.75 36.21 39.45 40.70 41.51 41.77 42.09 42.98 43.75 44.44 46.43 47.33
32.29 32.26 32.55 33.72 33.81 32.95 34.58 35.24 34.65 35.55 35.61 30.71 28.76 27.87 27.27 28.72 28.99 28.29 28.81 28.87 27.58 30.39 31.13 28.62 32.84 32.34 35.73 37.75 39.99 39.80 40.41 41.37 41.64 42.09 43.39 45.21 46.28 47.09
32.25 32.27 31.76 31.70 32.72 32.58 31.83 31.51 32.32 31.97 31.40 31.42 30.08 29.34 30.01 31.10 31.13 30.55 29.47 29.01 29.46 30.47 31.98 27.03 31.10 31.11 32.85 35.35 38.68 39.06 39.76 39.92 40.96 41.81 42.91 44.74 45.96 46.62
31.93 32.06 31.79 31.58 33.62 34.58 31.65 30.95 28.83 29.04 32.52 33.26 33.27 33.69 33.87 33.92 32.81 29.16 26.66 25.97 24.37 26.52 30.36 27.56 28.81 29.62 31.46 32.12 33.81 37.69 39.04 40.40 40.41 41.97 44.20 45.07 46.11 46.94
31.05 31.77 33.35 32.23 34.03 34.60 30.85 28.42 25.82 26.38 28.18 28.63 28.78 29.41 30.23 29.78 32.07 29.44 28.08 25.06 24.26 23.49 28.02 26.49 26.91 28.24 25.96 30.90 33.24 34.05 34.36 37.27 38.53 40.61 41.55 43.74 44.70 43.33
29.63 29.69 30.81 33.11 34.28 33.47 32.64 28.15 27.05 29.64 28.73 26.96 26.37 26.59 27.11 27.85 28.24 28.66 28.67 27.04 24.90 24.29 28.34 28.25 26.96 27.51 27.37 27.21 30.15 31.84 32.42 34.27 36.69 36.81 39.49 41.39 42.90 43.57
28.63 29.55 30.04 33.80 32.11 31.67 30.35 31.00 31.34 30.32 26.37 25.46 24.83 24.67 24.84 25.18 26.27 27.17 27.84 28.32 29.15 28.03 29.67 29.64 26.96 27.18 26.26 26.38 24.98 29.11 30.51 33.24 35.10 34.40 37.44 41.95 44.59 45.19
29.77 30.83 33.28 31.18 30.60 29.22 29.66 30.09 29.70 25.71 25.01 24.18 23.59 23.65 24.64 25.76 26.43 26.89 27.99 28.66 29.19 29.99 30.94 31.33 29.59 27.80 26.37 24.24 23.69 25.13 27.28 32.24 32.71 33.41 35.62 37.35 40.28 42.52
31.13 30.22 29.39 29.20 29.31 28.04 26.98 26.73 25.64 25.51 24.97 24.00 23.56 24.26 25.11 25.04 25.01 26.60 25.96 27.21 27.76 28.15 29.99 31.10 29.65 28.32 25.40 26.97 26.94 25.32 28.85 28.86 31.76 32.02 33.25 33.52 35.57 37.92
29.19 26.95 25.37 24.61 23.46 23.65 23.90 24.21 24.74 24.76 23.94 23.75 23.19 22.96 23.37 24.19 24.33 26.15 29.10 27.95 25.97 24.81 24.22 25.96 27.02 26.70 26.83 28.43 28.90 31.15 30.49 30.53 31.66 31.71 32.75 31.64 31.85 36.11
26.11 23.30 22.40 22.45 21.94 22.18 22.22 22.66 23.54 24.00 23.36 23.23 22.89 22.93 23.02 23.16 24.51 26.73 26.92 25.91 25.29 24.60 23.82 23.88 23.32 23.91 27.21 28.73 31.07 28.62 29.81 30.37 31.67 31.77 32.47 31.41 31.25 33.87
22.99 22.36 21.92 21.94 21.93 22.19 22.37 22.52 21.75 22.81 23.62 22.80 22.62 23.01 23.07 23.95 25.45 24.80 24.64 24.27 23.75 24.22 24.59 24.11 21.70 20.64 23.26 20.72 25.75 32.22 28.46 30.10 29.86 29.77 31.58 31.64 30.92 33.18
23.01 22.14 21.86 22.13 21.99 22.02 22.32 22.13 22.21 22.41 22.24 22.75 22.68 23.02 23.97 24.65 24.28 24.14 23.73 23.89 25.06 24.48 24.41 24.20 20.88 20.23 20.02 20.63 22.63 26.38 32.02 29.12 28.67 28.63 29.64 31.72 33.40 37.80
22.42 22.46 22.61 22.21 22.26 22.73 22.68 22.62 22.33 21.85 22.96 22.38 23.17 23.93 24.71 25.56 24.19 24.39 24.08 26.66 27.34 25.40 23.53 23.43 23.51 27.12 22.08 25.24 23.38 24.26 28.02 32.89 31.61 29.12 28.89 28.32 28.98 30.36
22.57 21.99 22.26 22.68 22.76 22.65 22.57 22.35 21.81 21.77 22.18 22.96 23.62 24.78 25.70 24.70 24.45 24.65 24.65 24.64 26.01 26.56 25.85 26.71 26.08 26.39 24.83 23.51 22.18 24.17 26.28 28.65 32.40 33.80 32.64 31.35 27.52 25.78
21.88 22.21 22.32 22.54 22.85 22.63 22.27 21.75 21.65 22.09 22.98 23.85 24.63 25.96 24.14 24.26 25.97 26.41 26.45 26.71 26.95 26.78 26.06 26.26 25.28 25.40 24.45 24.00 23.89 23.94 25.62 26.88 28.22 28.06 28.38 32.86 33.92 34.26

GFSNE_sfc_wetblb_030.txt.gz
Wetbulb
32.23 32.48 33.23 34.81 35.31 35.10 34.69 34.13 31.00 26.94 27.34 31.00 31.03 34.85 35.55 36.32 37.97 37.85 37.33 40.85 42.18 42.38 43.47 43.12 43.49 44.05 44.49 44.57 44.97 45.80 46.45 46.61 47.16 48.32 48.96 50.15 52.79 53.90
33.86 32.83 33.36 34.28 34.20 34.39 33.78 33.55 32.52 29.72 25.96 30.89 31.78 33.18 34.43 35.87 37.34 36.53 36.47 40.14 40.73 41.68 42.28 42.30 42.59 42.89 42.95 43.23 44.07 44.68 45.09 44.85 45.55 46.72 48.31 49.54 50.46 52.02
32.00 32.67 32.87 33.57 33.19 33.10 33.23 32.74 31.46 30.86 27.71 29.76 31.67 32.99 32.90 32.78 33.73 34.58 35.66 35.56 36.39 40.49 41.39 41.50 40.81 41.28 41.89 42.55 43.10 43.17 43.32 44.18 44.84 45.77 46.98 48.31 49.26 50.60
31.22 31.63 31.68 33.89 31.89 32.46 31.76 30.83 30.59 30.78 28.74 26.96 30.31 31.04 30.98 32.32 32.73 32.66 34.45 36.39 35.76 38.76 39.67 39.73 40.18 40.53 41.37 41.26 40.78 41.59 42.26 43.45 43.81 44.52 45.26 45.79 47.23 48.37
31.07 30.95 31.07 31.34 30.75 31.00 30.47 30.00 30.40 31.58 31.19 29.81 28.24 30.84 31.24 31.89 31.33 32.62 33.73 33.29 34.18 36.65 37.55 38.18 38.95 39.01 39.35 40.03 40.69 41.40 41.88 41.97 42.54 42.98 43.82 44.86 45.84 47.70
31.26 31.18 31.18 31.19 30.51 30.41 30.64 30.72 31.79 30.57 29.78 28.59 29.25 29.26 29.35 31.08 32.45 29.81 28.22 30.17 29.40 32.61 34.47 35.67 37.08 37.82 38.74 39.65 39.76 39.82 39.79 40.02 41.28 42.20 43.18 43.93 45.17 46.12
30.25 30.91 31.83 33.21 35.48 34.58 32.52 31.36 30.60 29.21 30.05 30.14 28.17 27.71 28.99 26.80 26.19 27.90 26.49 27.19 27.97 29.70 29.63 30.70 31.64 32.18 33.25 36.14 36.32 37.70 38.56 39.94 40.95 41.89 42.61 43.03 44.82 45.23
28.88 30.18 30.82 32.67 32.80 35.36 35.19 35.40 34.41 30.77 28.95 28.00 28.76 25.18 24.90 25.59 27.14 25.74 25.30 24.77 23.72 30.76 29.06 27.97 30.58 29.50 31.13 32.50 36.82 38.14 39.77 39.94 41.83 41.71 41.71 42.04 42.55 44.05
29.15 29.29 29.62 31.42 31.66 30.03 33.07 34.94 34.54 35.25 34.41 29.87 25.60 25.07 25.29 26.66 26.58 26.15 26.98 27.32 26.51 28.42 27.95 25.27 28.81 27.76 31.15 33.40 36.00 37.32 37.70 38.50 40.04 40.22 41.16 41.87 42.47 43.01
29.46 29.33 28.94 28.92 30.25 31.59 30.95 30.39 30.60 31.14 29.40 29.55 27.85 28.11 28.98 29.82 29.59 28.86 27.56 26.71 27.18 27.64 28.77 23.51 27.67 27.48 29.00 30.75 35.17 36.11 36.44 37.38 38.21 39.10 40.11 40.46 41.29 42.71
29.77 29.76 30.04 29.65 32.86 34.28 30.75 30.40 28.19 27.66 30.80 32.24 33.09 33.48 32.85 32.54 31.62 27.96 25.29 24.13 22.28 24.11 26.97 24.82 25.14 25.62 26.74 27.37 30.31 34.79 35.93 38.39 37.66 38.39 39.09 40.37 40.77 43.25
28.88 29.64 32.36 31.37 33.26 34.36 30.59 27.88 25.27 24.63 26.77 27.87 26.51 26.73 28.47 28.10 31.13 28.02 26.39 22.70 22.29 21.31 25.23 23.70 24.09 24.74 23.11 27.90 29.62 31.28 31.22 35.23 36.14 36.43 37.86 40.23 41.78 41.28
28.20 27.47 28.52 32.12 34.02 33.46 32.60 26.97 26.25 29.19 28.01 24.38 24.04 24.81 25.36 25.51 26.05 26.61 27.11 25.45 22.85 22.30 26.52 26.89 25.55 25.57 25.27 24.86 27.66 29.97 31.40 30.33 30.91 32.02 34.92 38.52 40.05 40.80
27.31 27.39 27.97 32.84 31.71 31.32 29.52 30.58 31.12 29.83 24.31 23.41 23.39 23.29 23.24 23.71 24.63 25.63 26.62 27.16 27.84 26.77 28.42 28.52 25.93 25.97 25.17 23.88 22.74 26.92 27.40 28.31 29.08 29.83 34.03 37.50 40.17 41.39
27.89 30.05 32.56 30.87 29.82 27.66 28.70 29.47 28.96 23.59 23.61 23.24 22.75 22.53 23.64 24.64 25.35 25.50 26.60 27.50 28.20 29.23 30.58 28.14 26.77 25.50 24.22 22.97 22.57 23.58 25.73 27.59 30.25 31.78 32.22 34.94 37.27 39.27
30.26 28.99 28.30 27.86 27.92 26.93 25.37 24.95 24.29 24.47 24.39 23.35 22.53 23.40 24.16 23.86 23.72 25.31 24.58 26.82 25.61 26.83 28.97 27.71 26.96 24.35 21.83 23.60 24.99 25.75 26.92 25.21 31.93 31.87 32.04 35.84 37.72 38.68
28.94 24.74 22.66 22.17 21.52 21.98 22.65 23.42 23.81 24.11 23.44 23.13 22.44 22.07 22.41 23.04 23.10 24.74 26.07 25.41 23.65 23.78 24.69 26.52 26.25 24.74 24.45 24.37 25.73 27.57 29.36 30.18 31.70 31.68 33.01 33.05 35.09 38.01
24.72 21.05 20.44 20.54 20.76 21.33 21.34 21.88 22.73 23.48 22.81 22.49 21.99 22.01 22.01 21.95 22.57 24.88 25.52 24.53 22.99 24.01 24.46 24.83 22.63 21.89 25.03 26.83 30.78 27.57 29.55 30.04 31.62 31.95 32.69 32.63 32.72 36.42
21.25 20.58 20.56 21.01 20.88 21.22 21.57 21.75 21.18 22.25 22.61 21.81 21.96 22.50 22.39 22.78 23.67 24.27 24.05 23.80 23.32 25.72 25.26 24.20 22.09 20.58 20.06 19.17 25.95 33.78 28.29 29.76 31.89 31.57 33.10 33.21 31.62 32.73
21.37 20.92 20.67 20.72 21.04 21.39 21.71 21.49 21.43 21.49 21.36 22.29 22.19 22.34 22.98 23.16 23.48 22.83 23.71 23.50 24.99 25.94 24.56 23.95 23.14 23.01 18.73 18.68 21.37 28.70 32.87 29.96 31.28 31.31 31.74 34.20 36.04 38.57
21.34 20.70 21.08 21.23 21.76 21.97 21.85 21.44 20.96 20.86 22.48 21.36 21.94 22.49 23.02 24.47 21.87 23.07 24.14 27.08 27.55 25.78 24.13 22.55 24.35 30.47 25.59 25.70 24.99 25.63 29.71 33.35 32.81 29.75 31.53 32.02 31.48 32.37
20.66 20.74 21.42 21.84 21.85 21.58 21.07 20.80 20.64 20.83 21.02 21.39 22.04 22.90 24.82 24.13 22.39 23.67 24.64 24.49 25.15 26.36 25.19 25.04 25.78 26.22 25.66 24.79 23.96 25.21 27.12 29.37 32.24 34.64 35.35 33.27 28.45 28.88
20.89 21.42 21.40 21.56 21.45 20.97 20.84 20.64 20.74 20.66 21.10 21.78 22.10 23.50 25.54 23.95 23.81 25.18 25.60 25.82 25.82 26.10 23.93 24.05 24.38 24.07 24.64 25.82 26.20 25.95 26.35 26.49 27.37 28.70 31.72 36.27 36.45 36.76

GFSNE_sfc_wetblb_033.txt.gz
Wetbulb
29.55 29.71 30.10 32.18 32.79 32.90 32.68 31.95 29.11 24.56 25.54 29.69 29.54 32.91 33.29 34.22 35.43 35.21 35.18 38.51 40.29 40.93 41.43 41.77 42.36 42.86 43.60 44.14 44.54 44.47 44.40 44.73 45.56 46.68 47.47 47.79 48.36 49.01
30.97 29.16 30.42 31.63 31.87 32.24 31.71 31.33 30.98 28.44 24.77 29.48 30.12 31.60 32.58 33.87 35.41 34.74 34.27 37.62 38.73 40.00 40.61 40.73 41.39 41.96 42.62 42.67 42.25 42.59 43.33 44.21 44.93 45.82 46.78 47.43 47.40 47.59
28.80 30.03 30.02 30.86 30.68 30.97 31.29 31.20 30.24 29.31 25.88 28.45 30.57 31.58 31.31 31.67 32.30 33.00 34.09 33.22 34.02 38.59 40.13 40.77 40.68 40.46 40.56 40.33 40.96 41.64 42.19 43.40 43.93 44.41 44.99 46.22 46.93 46.97
28.57 29.04 29.24 31.51 29.46 30.20 30.33 29.55 29.32 29.65 27.84 25.78 29.07 30.18 30.52 31.38 31.43 31.50 32.42 34.58 33.99 37.11 38.51 38.96 39.20 38.88 38.87 39.28 39.72 40.23 40.18 40.82 41.49 42.37 43.42 43.88 44.84 46.01
28.40 28.66 28.95 28.99 28.43 29.31 29.43 29.17 29.74 31.02 30.57 29.48 28.31 29.97 30.25 31.69 30.25 30.94 30.98 30.46 32.21 34.92 36.24 36.46 37.16 37.39 37.76 38.51 38.99 39.47 39.60 40.11 40.69 41.28 41.93 42.67 43.65 44.60
29.27 29.31 29.13 29.06 28.77 29.22 29.74 29.79 30.97 29.23 28.65 27.59 27.98 29.43 28.58 30.00 30.64 26.36 25.38 27.95 27.91 30.73 32.71 33.98 35.49 36.21 37.17 37.65 37.50 37.21 37.48 38.26 39.20 39.77 40.39 40.83 41.47 42.59
28.20 29.41 30.03 31.49 33.97 33.24 31.23 29.45 28.92 28.31 29.18 29.74 27.35 27.21 27.66 25.10 24.01 25.63 24.96 26.26 27.10 28.26 28.04 29.20 30.46 30.99 31.16 33.97 34.12 35.26 35.98 37.05 38.34 39.54 40.46 41.30 41.55 42.22
27.45 28.95 29.39 31.67 31.41 34.45 34.27 34.69 33.66 30.06 29.00 28.25 28.35 24.84 24.29 24.82 25.43 24.75 25.25 24.87 23.49 30.56 28.29 26.70 28.84 27.51 28.77 29.78 33.94 35.25 36.36 37.57 38.64 38.41 40.38 40.26 40.63 41.87
27.64 28.11 28.69 30.56 31.01 29.26 32.29 34.10 33.65 34.85 34.54 30.18 25.61 25.06 24.79 25.24 26.13 27.04 26.47 25.03 24.35 26.60 26.44 23.99 27.24 26.23 28.66 30.21 33.99 34.63 35.82 35.80 36.56 37.69 38.43 38.98 40.48 40.96
27.57 27.98 27.84 28.31 29.65 30.51 29.78 29.29 30.71 30.98 29.02 29.03 27.45 27.41 28.65 29.66 28.23 26.93 26.48 26.26 26.30 26.14 26.79 21.75 25.36 24.30 26.57 27.48 32.54 33.85 34.80 35.34 35.87 36.74 37.74 38.38 39.14 39.69
28.80 28.53 29.99 28.70 31.71 33.34 30.55 29.85 27.42 26.70 29.86 32.07 33.07 32.57 31.62 31.63 30.60 27.32 24.03 22.36 20.37 22.12 25.46 23.57 23.74 23.43 24.89 25.89 28.10 32.82 34.12 35.21 36.40 37.78 37.99 38.42 39.54 39.58
28.53 28.92 31.37 30.04 32.55 34.59 29.52 27.14 23.38 23.74 26.58 27.59 24.93 25.88 27.46 27.27 30.42 26.86 25.27 21.30 20.99 20.29 24.79 23.10 23.52 24.12 22.15 26.91 27.68 28.56 28.98 33.75 34.75 35.52 36.59 37.05 37.21 35.63
27.37 26.92 27.12 31.58 34.48 32.32 31.52 25.09 25.24 28.71 27.33 23.44 23.26 24.17 25.34 25.79 25.78 26.35 26.47 24.45 21.89 21.51 25.88 27.08 25.28 24.95 24.20 23.49 26.48 27.72 28.57 29.13 29.55 31.18 33.87 34.79 36.18 36.74
26.94 26.74 27.72 32.69 30.96 30.03 28.11 29.84 30.60 29.23 23.86 23.14 23.13 23.22 23.02 23.36 24.36 25.24 25.97 26.22 26.82 25.82 27.70 28.76 25.88 24.71 22.71 20.37 20.37 25.17 26.32 27.43 28.25 28.02 28.72 31.73 35.48 36.96
28.11 30.38 30.98 29.71 28.57 26.43 27.97 28.99 28.56 23.65 23.45 22.58 22.16 22.09 23.14 24.16 24.69 24.66 25.71 26.53 26.61 28.14 28.97 28.93 28.28 26.69 23.80 20.23 19.97 22.69 25.44 26.87 29.41 29.27 29.69 31.34 32.41 34.17
29.96 26.57 27.00 26.71 26.98 26.12 24.97 25.03 24.14 24.01 23.69 22.73 21.96 22.85 23.73 23.53 23.22 24.49 23.44 24.05 24.71 24.97 27.96 28.84 28.85 26.35 22.00 21.42 22.41 22.41 26.82 26.65 29.14 31.74 31.75 32.48 34.26 36.09
27.66 23.41 21.80 21.53 21.06 21.74 22.56 22.96 23.22 23.26 22.81 22.50 22.01 21.72 22.04 22.73 22.91 24.06 24.69 24.71 23.14 23.25 24.02 26.73 27.15 25.55 23.97 22.75 21.72 25.82 27.91 29.69 31.85 31.70 32.02 34.02 36.13 37.16
23.62 20.30 19.94 20.40 20.19 20.68 20.86 21.29 22.10 22.72 21.95 21.90 21.50 21.51 21.69 21.46 22.02 24.12 24.37 23.74 23.10 23.76 25.20 25.17 24.37 22.25 23.96 26.16 30.50 28.48 28.90 29.36 31.85 32.06 32.61 32.87 32.48 37.56
20.57 20.32 19.97 20.06 20.11 20.62 21.00 20.97 20.18 21.35 22.10 21.21 21.06 21.94 21.21 21.48 22.35 22.74 22.31 23.18 23.63 26.06 25.36 24.70 23.68 21.73 19.31 18.68 24.35 34.05 28.26 30.26 32.69 32.14 32.41 32.12 32.06 35.32
21.14 20.19 19.49 20.19 20.67 20.82 20.78 20.38 20.42 20.43 20.17 21.05 21.60 20.78 21.27 21.13 21.50 21.99 21.66 23.04 25.38 24.96 24.28 24.15 24.00 24.28 20.47 20.29 18.95 28.20 33.00 31.05 30.31 31.64 31.99 33.17 34.76 37.39
20.34 19.89 20.62 20.96 21.00 20.83 20.62 20.25 19.99 19.93 21.53 20.58 20.40 20.86 21.42 21.92 23.04 22.17 22.47 26.60 27.22 24.41 22.25 22.73 24.35 31.56 27.87 27.31 25.43 26.91 30.09 34.85 34.61 31.96 33.15 32.46 31.84 32.62
20.08 20.28 20.94 21.02 20.62 20.29 19.99 19.79 19.58 19.69 19.75 19.88 20.43 20.86 22.11 22.93 24.26 23.51 23.01 23.85 24.46 24.90 23.33 22.19 25.58 26.80 26.77 26.00 24.77 24.84 27.26 31.77 35.11 36.37 36.39 35.11 32.59 29.94
20.54 20.95 20.53 20.40 20.27 19.91 19.66 19.24 19.12 19.26 19.71 20.37 20.55 21.57 22.36 23.21 25.86 24.71 24.10 24.88 25.21 24.53 19.86 21.75 23.51 25.48 26.24 26.79 26.11 25.43 26.24 29.40 31.29 31.32 32.45 36.63 36.10 36.12

GFSNE_sfc_wetblb_036.txt.gz
Wetbulb
27.40 27.63 27.64 29.20 30.03 30.20 30.20 29.54 26.97 22.59 23.56 27.97 28.35 31.09 31.25 32.50 34.23 33.95 33.54 37.52 39.57 40.15 40.39 40.49 40.77 41.55 42.25 43.06 43.64 44.30 44.48 44.74 45.22 45.93 45.77 45.82 46.69 48.00
29.61 27.45 27.38 29.13 29.43 29.84 29.62 29.50 28.97 26.60 23.33 28.38 28.92 30.45 31.67 32.89 33.96 33.94 33.68 37.05 38.06 39.12 39.46 39.47 39.93 40.53 41.19 41.72 42.61 42.94 42.64 43.19 43.43 44.42 45.53 46.38 46.85 47.14
27.40 27.60 28.03 28.57 28.66 28.79 29.15 29.13 28.44 28.23 24.73 27.24 29.63 30.85 30.57 30.86 31.75 32.74 33.21 32.29 33.15 37.56 38.67 38.40 38.84 38.79 39.20 40.01 40.55 41.03 41.40 41.59 42.31 43.46 44.29 45.02 45.74 46.27
27.05 27.14 27.33 30.28 27.50 28.16 28.30 27.83 28.03 28.45 27.02 25.36 28.82 29.14 29.04 30.20 30.57 30.69 32.03 33.40 32.65 35.35 36.42 37.10 37.29 37.67 37.99 38.18 38.46 39.12 39.55 40.07 40.68 41.66 42.26 43.02 43.68 44.23
27.02 26.88 27.35 27.38 26.96 27.60 27.72 27.67 28.45 29.90 29.19 26.78 25.69 28.49 29.09 30.63 29.47 30.70 30.33 28.96 30.20 33.28 35.15 35.76 36.44 36.78 37.06 37.50 37.93 38.37 38.48 38.89 39.35 39.82 40.46 41.23 42.00 43.05
27.81 28.04 27.65 27.55 27.25 27.59 28.87 28.63 29.75 27.54 27.44 26.76 26.92 28.46 28.46 29.30 29.64 25.61 24.74 26.93 26.41 29.29 31.83 33.41 35.04 35.52 36.35 36.92 36.77 36.44 36.59 37.14 37.78 38.25 38.60 39.07 39.71 40.91
26.93 27.61 28.74 30.85 33.80 32.95 30.98 29.36 28.70 27.92 28.63 28.44 26.18 26.16 27.48 24.72 23.43 25.12 24.22 25.19 26.16 28.24 28.35 28.14 29.21 29.55 29.88 32.95 33.14 34.21 34.67 35.34 36.10 36.94 37.86 38.60 39.41 40.16
26.32 27.83 28.26 30.95 30.60 34.06 33.57 33.97 32.85 29.14 26.79 26.51 27.03 23.87 23.57 24.01 24.99 24.55 24.85 25.03 21.04 27.71 25.85 25.59 27.67 26.43 27.72 28.53 32.68 33.97 34.77 35.36 36.16 36.82 37.68 38.72 39.38 40.34
25.90 26.83 27.39 29.55 30.44 28.79 31.37 33.18 32.79 34.34 32.89 28.18 24.00 23.74 23.56 24.83 27.08 26.32 24.34 23.67 22.94 25.75 25.72 22.98 25.66 24.19 26.63 28.30 32.53 33.34 34.24 34.98 35.45 35.84 36.37 37.48 37.78 38.35
26.42 26.53 26.21 27.96 28.37 29.33 28.88 28.81 29.47 27.52 27.42 27.13 26.20 27.14 28.74 28.60 27.32 26.71 26.20 25.88 25.61 25.35 25.77 20.61 24.30 23.27 25.69 26.62 31.86 33.13 33.87 34.50 35.06 35.73 36.35 36.98 37.14 37.89
27.58 27.48 29.12 27.81 31.07 33.32 30.70 27.36 25.72 24.95 28.75 31.21 32.75 31.79 31.08 31.30 30.40 27.42 23.89 22.05 20.02 21.92 24.84 22.64 23.10 23.18 25.01 25.64 27.75 32.46 33.48 34.21 35.03 35.81 36.90 37.58 37.99 38.63
28.24 28.89 31.09 29.81 33.00 34.10 28.24 25.41 21.83 22.72 26.49 27.17 24.72 25.39 27.20 26.83 30.32 26.80 25.30 20.97 20.36 19.40 23.99 22.37 22.79 24.17 22.49 27.16 27.77 28.22 28.20 32.39 33.65 34.47 35.43 35.99 36.43 34.90
26.78 26.76 27.03 32.06 32.76 31.59 30.88 24.11 24.68 29.03 26.83 22.92 22.96 23.70 24.84 25.14 25.43 25.83 26.20 24.12 21.31 20.65 24.89 25.59 23.98 23.57 24.05 23.77 25.73 26.24 26.00 26.19 27.89 29.81 33.34 34.71 35.72 35.63
26.64 26.83 28.37 31.35 30.23 29.59 27.81 29.61 30.58 28.80 23.00 22.65 22.53 22.55 22.54 22.92 24.01 24.92 25.61 25.75 26.16 24.82 26.48 26.52 24.28 24.69 23.39 22.28 21.27 23.41 24.34 25.84 27.62 27.93 28.86 31.87 34.43 35.38
27.83 29.85 30.18 29.10 28.19 26.14 27.67 28.88 28.26 22.99 22.53 21.84 21.54 21.44 22.50 23.55 24.24 24.33 25.34 26.05 26.13 26.85 28.17 28.39 26.95 26.32 24.96 21.44 20.94 21.19 22.95 25.38 27.79 28.46 28.66 28.66 28.74 30.66
29.24 25.66 26.32 26.35 26.70 25.90 24.72 24.10 23.18 23.03 22.96 22.08 21.24 22.04 22.80 22.41 22.11 23.57 22.65 23.82 24.04 24.51 28.11 28.63 29.09 27.12 22.86 20.99 21.67 21.63 24.52 23.40 29.43 31.09 31.36 30.92 30.72 31.58
27.41 22.79 21.19 21.06 20.65 21.03 21.68 22.23 22.34 22.46 21.81 21.56 20.94 20.43 20.55 21.23 21.49 22.27 23.27 23.05 22.10 22.69 24.62 27.46 27.71 26.89 25.37 23.14 21.73 25.95 28.87 29.23 32.31 31.76 31.34 33.34 31.96 32.81
23.17 19.65 19.61 19.70 19.31 19.79 20.24 20.66 21.23 21.80 21.04 20.74 19.93 19.68 19.83 20.44 20.15 22.32 21.73 22.57 21.58 23.15 25.65 26.00 25.01 23.70 24.31 25.69 30.52 28.14 30.07 29.69 32.13 32.01 33.35 33.85 33.89 36.21
19.86 19.66 19.22 19.24 19.28 19.93 20.04 19.81 18.90 20.01 20.51 19.65 19.02 20.09 20.85 19.66 21.04 20.39 21.45 22.31 21.73 25.28 25.33 25.65 24.63 23.23 20.27 20.25 25.40 32.94 30.06 31.71 32.21 32.09 32.31 32.71 31.99 34.75
20.41 19.08 18.73 19.44 19.71 19.71 19.71 19.40 19.29 19.20 18.90 18.77 20.38 19.47 19.74 19.92 19.59 20.30 22.47 22.01 24.09 24.81 24.37 25.02 24.60 25.11 23.08 21.65 21.42 24.72 33.64 32.02 31.57 31.77 32.04 33.54 33.73 37.07
19.16 19.04 19.83 19.89 19.87 19.99 19.78 19.41 19.09 18.73 20.49 19.75 18.94 19.55 19.86 19.98 19.88 20.81 23.49 26.30 26.61 23.21 23.04 23.23 25.32 32.37 28.77 28.89 25.32 27.29 31.96 34.32 33.98 32.03 32.44 32.27 31.35 32.00
19.39 19.43 19.83 19.91 19.85 19.58 19.21 19.02 18.39 18.34 18.45 18.81 19.17 19.88 20.48 21.01 21.17 21.87 24.70 23.09 23.25 23.84 21.17 23.98 26.65 27.37 26.79 25.41 24.73 26.89 30.07 32.47 35.01 35.37 35.82 35.15 31.72 28.37
19.55 19.73 19.62 19.39 19.14 18.98 18.87 18.23 18.03 18.19 19.03 19.41 19.62 20.45 21.65 21.41 22.54 23.53 25.25 24.62 24.46 24.08 16.30 21.82 24.98 26.56 25.93 25.96 26.25 27.70 29.03 30.25 31.34 31.15 32.22 36.45 36.45 36.12

GFSNE_sfc_wetblb_039.txt.gz
Wetbulb
26.19 26.57 26.41 27.81 28.45 28.17 28.17 27.75 25.19 21.10 22.02 25.87 25.84 30.05 31.07 31.41 33.19 33.27 32.89 36.77 39.07 39.96 40.54 40.29 40.32 40.72 41.21 41.99 42.37 42.83 43.63 43.90 44.85 45.63 46.35 46.61 47.31 48.04
28.05 26.47 26.27 27.49 27.65 27.95 27.91 27.93 27.32 24.98 22.16 26.83 27.71 29.39 30.70 32.28 33.49 33.23 32.89 36.69 37.94 38.86 39.10 39.05 39.24 39.44 39.59 40.23 40.68 41.00 41.94 42.10 43.22 44.66 45.78 45.65 46.23 46.78
26.36 26.43 26.84 27.48 27.19 27.22 27.52 27.59 26.92 26.70 23.60 26.10 28.52 29.94 29.72 29.19 30.20 31.09 32.18 31.79 32.28 37.16 38.31 38.53 38.12 37.81 38.28 38.78 39.29 39.91 40.48 41.09 41.89 42.91 43.76 44.42 44.86 45.10
26.22 25.92 26.30 29.60 26.71 26.86 26.55 26.44 26.83 27.23 25.75 24.58 27.64 27.61 27.64 29.10 29.63 29.76 31.98 33.25 32.72 35.00 36.58 36.48 36.99 37.39 37.67 37.99 38.14 38.52 38.97 39.52 40.02 40.68 41.41 42.38 43.07 43.83
26.19 25.77 26.30 26.41 25.69 26.71 26.82 26.70 27.54 29.45 28.84 26.34 25.06 27.93 28.49 29.68 29.68 30.28 29.37 28.25 29.57 32.99 34.88 35.35 35.96 36.26 36.73 37.19 37.52 37.72 37.88 38.36 38.76 39.18 39.74 40.40 41.24 42.15
26.97 26.63 26.54 26.47 26.11 26.61 28.17 28.20 29.31 26.91 26.81 26.39 26.63 27.37 27.84 29.23 28.05 24.82 24.00 26.28 26.10 29.05 31.52 33.08 34.53 35.12 35.61 35.76 35.62 35.55 35.77 36.18 37.00 37.69 38.16 38.39 38.91 39.91
25.93 26.19 27.55 29.81 32.89 32.11 30.36 28.07 27.89 27.35 27.14 26.82 26.65 25.96 23.84 23.43 22.28 24.28 23.66 25.05 26.72 28.12 26.97 27.03 27.22 27.47 28.34 31.85 32.19 33.47 34.01 34.75 35.63 36.36 36.90 37.39 37.88 38.62
25.14 26.42 26.61 29.94 29.47 33.53 33.18 33.65 32.50 28.76 28.19 26.90 24.54 22.52 22.23 22.60 24.00 24.03 25.57 23.33 21.20 27.87 25.87 25.53 27.56 25.98 26.75 27.24 31.84 33.33 34.31 35.15 35.72 36.09 36.96 37.41 37.86 38.34
25.24 26.24 26.61 28.75 29.75 27.99 30.79 33.03 33.14 33.87 32.23 26.93 23.20 22.25 22.40 24.42 27.29 24.94 24.31 24.17 23.28 26.06 26.04 23.18 25.67 23.80 26.48 27.67 31.96 32.91 33.99 34.69 35.26 35.72 35.94 36.59 37.24 37.70
25.71 25.72 25.35 26.04 28.02 29.49 29.21 30.91 26.83 26.78 26.38 26.59 25.71 26.69 28.81 28.03 26.96 26.75 26.33 26.02 25.81 25.44 25.86 20.48 24.15 22.75 25.31 26.49 31.48 32.79 33.63 34.41 34.82 35.43 36.08 36.23 36.51 37.23
26.03 27.60 28.47 28.01 31.14 33.50 30.10 26.17 25.08 24.73 28.46 31.07 32.72 31.55 30.99 31.26 30.41 27.49 23.65 21.83 19.86 21.51 24.60 22.25 22.51 22.77 24.29 24.95 27.16 32.16 33.35 34.20 34.67 35.37 35.26 35.88 36.32 37.20
28.41 27.55 30.78 29.73 32.79 33.58 28.14 25.35 22.04 22.77 26.35 27.04 24.41 25.18 26.95 26.54 30.05 26.52 24.84 20.57 20.00 19.02 23.63 21.98 22.13 23.18 21.23 25.77 26.23 27.84 27.99 32.18 33.28 33.98 34.54 35.14 35.72 33.35
26.09 26.61 26.93 31.76 32.58 31.55 31.03 24.67 24.73 29.00 26.73 22.51 22.91 23.42 24.42 24.66 24.91 25.14 25.26 23.63 21.06 20.38 24.61 25.46 23.35 22.64 22.29 22.34 25.41 26.53 27.12 27.40 27.96 28.50 31.87 33.52 35.00 35.32
26.57 26.58 27.40 31.50 30.37 29.75 28.06 29.60 30.61 28.81 22.49 22.28 21.94 22.02 21.62 21.86 22.83 23.64 24.38 24.66 25.60 24.58 26.27 26.34 23.89 23.63 23.02 22.24 21.62 24.41 26.07 27.52 27.58 26.57 27.03 30.41 33.88 35.20
27.57 29.30 30.36 29.36 28.37 25.97 27.44 28.72 27.99 22.21 21.75 21.05 20.74 20.40 21.08 22.03 22.57 22.60 23.47 23.86 24.29 26.15 27.53 27.22 26.58 26.34 25.83 23.54 21.92 22.67 24.82 26.22 27.79 27.33 27.70 28.26 28.35 29.33
28.78 25.84 26.61 26.23 26.45 25.48 23.84 23.58 22.49 22.41 22.49 21.35 20.22 20.74 21.44 20.78 20.24 21.70 21.15 21.90 22.27 23.15 27.02 28.42 29.69 27.62 24.62 24.58 24.10 22.68 25.30 24.92 30.13 31.42 31.64 31.06 29.64 29.52
27.48 22.82 20.67 20.42 19.92 20.23 20.93 21.30 21.73 21.63 20.75 20.21 19.73 19.31 19.41 19.27 19.66 21.03 21.07 21.67 20.21 21.60 22.96 27.21 28.52 27.98 27.43 26.38 23.39 25.45 28.74 31.22 32.15 31.83 31.81 30.90 29.27 29.59
23.15 19.13 18.79 19.01 18.80 19.07 19.31 19.78 20.44 20.82 19.95 19.98 19.07 18.83 17.91 18.75 18.99 20.62 20.11 20.65 21.07 21.94 23.76 26.03 25.60 24.72 26.42 25.68 30.78 28.56 30.23 31.49 32.21 32.37 32.51 32.70 30.98 31.51
19.31 18.85 18.30 18.46 18.55 19.12 19.31 19.16 18.21 19.45 19.97 18.75 17.96 18.20 19.89 18.39 19.28 18.55 19.06 21.01 21.19 23.28 25.24 26.17 24.66 23.89 22.67 21.31 26.83 32.91 28.61 31.18 32.13 32.46 32.23 31.71 31.94 34.34
19.49 18.46 18.01 18.64 18.96 19.00 19.12 18.86 18.75 18.73 18.13 17.95 19.38 18.68 18.53 18.94 18.16 18.29 19.27 20.36 23.27 24.53 23.29 25.22 24.56 24.68 24.46 23.15 24.08 27.56 33.87 31.12 31.34 31.30 31.76 33.27 34.11 37.39
18.68 18.40 18.98 19.07 19.11 19.45 19.29 18.76 18.27 18.12 19.96 19.15 18.02 18.54 18.90 19.32 18.47 19.63 20.44 24.72 26.42 22.68 22.12 22.99 25.59 32.30 28.30 28.80 26.71 28.73 32.12 34.45 34.10 32.09 31.89 31.72 30.94 31.25
18.61 18.51 18.82 19.15 19.05 18.49 18.11 17.91 17.85 18.07 18.03 18.16 18.35 19.00 19.48 20.10 20.23 21.19 21.90 21.43 23.44 23.59 22.48 23.49 26.48 27.22 24.71 25.70 25.35 27.61 29.43 32.38 34.86 35.63 36.21 34.90 31.63 28.25
18.73 18.83 18.67 18.47 18.34 18.20 18.03 17.81 17.81 18.11 18.60 18.67 18.83 19.44 20.11 20.11 21.62 23.00 23.37 25.24 24.28 24.39 14.81 20.56 24.48 25.94 26.52 25.70 27.47 27.05 27.95 28.98 31.18 31.35 32.00 36.49 36.52 36.14

GFSNE_sfc_wetblb_042.txt.gz
Wetbulb
25.42 25.13 25.41 26.86 27.48 27.43 26.99 26.06 24.17 20.13 21.28 24.79 23.82 28.87 29.68 30.75 32.32 32.48 32.14 36.16 38.54 39.31 40.04 40.29 40.40 40.61 40.92 41.64 42.09 42.35 42.62 42.50 43.43 44.39 44.93 45.66 46.57 47.64
27.27 25.57 25.31 26.28 26.80 27.09 26.74 26.84 26.16 24.05 21.29 26.21 26.87 28.55 29.69 31.22 32.66 32.05 31.38 35.48 36.86 38.11 38.67 38.75 39.05 39.43 39.67 40.08 40.27 40.57 40.72 41.24 42.23 43.41 44.22 45.04 45.54 46.24
25.61 25.52 25.94 26.34 26.08 26.24 26.27 26.59 25.76 25.50 23.18 25.67 28.00 29.00 28.81 28.49 29.35 30.23 31.36 30.72 31.59 36.69 37.71 38.01 37.97 38.01 38.27 38.64 39.21 39.73 40.13 40.72 41.30 42.29 43.04 43.68 44.38 44.90
25.61 25.35 25.30 28.72 25.41 25.87 26.01 25.41 25.43 26.34 25.12 23.95 26.81 27.03 27.09 28.61 29.09 29.66 31.42 32.54 31.01 34.31 35.90 36.31 36.88 37.40 37.63 37.75 38.00 38.49 39.12 39.51 39.60 40.18 40.93 41.72 42.55 43.45
25.43 24.91 25.04 24.95 24.37 24.94 25.25 25.49 26.24 28.60 28.43 25.53 24.51 27.61 28.13 29.59 29.09 28.20 27.25 27.27 28.84 32.54 34.60 35.06 35.70 36.33 36.72 37.26 37.53 37.71 37.73 38.01 38.18 38.66 39.11 39.80 40.81 41.77
25.82 25.79 25.45 25.09 24.84 25.23 26.39 27.27 28.50 26.07 26.22 26.06 26.54 27.22 28.06 26.67 25.81 23.52 23.30 25.92 25.75 28.72 31.53 33.01 34.55 34.85 35.43 35.72 35.46 35.20 35.39 35.76 36.55 37.14 37.56 37.85 38.33 39.44
25.36 25.73 26.33 28.33 32.80 32.15 30.22 28.03 27.76 26.79 26.92 27.83 26.33 24.34 23.12 22.86 21.99 23.84 23.49 24.85 26.86 27.62 26.67 27.57 27.89 27.79 28.47 31.98 32.30 33.41 33.65 34.37 35.33 36.14 36.94 37.34 37.47 38.26
24.88 25.89 25.50 29.22 28.60 33.29 33.15 33.63 32.53 29.95 27.56 25.15 23.73 22.18 21.96 22.32 23.95 24.28 25.37 22.91 21.35 27.76 25.55 25.78 27.50 26.15 27.09 27.50 31.75 33.14 34.10 34.96 35.62 36.21 36.69 37.27 37.74 38.05
24.76 25.24 26.21 28.56 29.51 26.61 30.46 33.07 33.67 33.16 31.53 26.64 22.82 22.12 22.26 24.36 27.02 24.63 24.22 24.14 23.36 25.94 25.65 22.62 25.48 23.83 26.37 27.55 31.83 32.75 33.80 34.51 35.10 35.66 36.24 36.71 37.15 37.77
24.65 24.61 24.42 25.48 27.01 29.55 29.34 30.65 26.90 26.56 26.34 26.66 25.73 26.76 28.89 27.88 26.90 26.51 26.12 25.98 25.55 25.19 25.62 19.95 23.82 22.54 25.23 26.56 31.43 32.74 33.57 34.19 34.66 35.21 35.86 36.36 36.66 37.04
25.97 25.66 26.51 27.77 30.87 33.43 30.25 26.20 25.21 24.98 28.65 31.19 32.58 31.73 31.08 31.24 30.19 27.10 22.96 21.35 19.56 21.00 23.83 21.90 22.11 22.50 23.92 24.94 26.96 31.85 33.06 33.97 34.57 35.23 35.95 36.26 36.46 37.05
26.93 26.39 30.60 29.67 32.67 33.65 28.23 25.74 22.45 22.91 26.11 27.28 23.86 24.54 26.22 25.72 29.50 25.15 23.62 19.70 19.26 18.37 23.09 21.88 21.92 23.35 20.81 25.07 26.38 27.69 27.14 31.74 33.37 34.38 35.28 36.08 36.32 33.11
25.78 26.76 27.04 31.51 32.68 31.73 31.15 24.54 24.73 28.88 26.55 21.88 21.78 22.40 23.40 23.56 23.61 23.61 24.12 22.42 19.71 19.28 23.54 24.69 22.59 22.12 22.38 21.99 25.44 27.65 28.44 28.53 28.83 29.56 32.83 34.35 35.53 35.45
26.67 26.52 27.12 31.64 30.58 29.79 27.86 29.52 30.44 28.53 22.02 21.26 20.99 21.30 21.10 20.95 21.69 22.34 22.89 23.05 23.59 22.79 24.21 24.09 22.54 23.22 22.43 21.74 22.09 26.06 27.75 29.04 29.09 28.26 28.86 31.58 34.22 34.90
27.45 29.36 30.58 29.53 28.29 25.61 26.95 28.33 27.58 21.55 21.07 20.42 20.49 19.89 20.25 20.88 21.08 20.86 21.57 22.23 22.41 23.08 25.59 25.45 25.80 25.48 25.55 24.50 23.45 24.51 26.48 27.57 28.95 28.53 29.19 28.97 28.07 28.19
28.93 25.99 26.77 25.99 25.87 25.00 23.28 22.96 21.94 21.89 22.14 20.85 19.67 20.09 20.49 19.65 19.25 19.82 19.47 20.29 21.04 20.76 25.86 27.94 28.52 28.58 25.66 25.54 25.67 24.93 26.97 25.97 31.45 33.03 32.44 32.77 29.77 29.69
27.37 22.56 20.23 19.83 19.22 19.56 20.10 20.72 21.36 21.29 20.67 20.03 19.48 19.01 19.01 18.90 18.36 19.84 19.78 20.28 18.84 20.44 21.93 26.06 29.30 28.91 28.34 26.95 25.63 26.46 28.79 30.07 31.96 32.19 32.24 31.17 29.08 29.15
22.63 18.57 18.13 18.45 18.08 18.29 18.56 18.97 19.85 20.70 19.72 19.78 18.77 18.43 17.59 17.49 18.60 19.65 19.23 18.68 18.91 20.70 21.15 25.91 25.80 25.79 26.29 27.52 31.27 29.03 30.42 30.44 31.80 32.49 32.59 31.21 31.16 29.74
18.71 18.12 17.81 17.86 17.93 18.39 18.49 18.51 17.81 19.07 19.61 18.74 17.68 17.51 19.14 18.61 18.57 17.81 18.22 18.88 19.03 20.73 24.19 25.04 25.01 24.55 21.89 21.55 27.46 33.66 29.70 30.99 31.86 32.08 32.29 31.87 31.67 32.29
18.72 17.98 17.53 18.02 18.07 17.96 18.28 18.15 18.22 18.36 18.21 17.77 18.85 18.86 17.91 18.13 17.51 17.50 18.49 19.00 21.14 23.48 22.68 24.49 24.76 24.46 25.05 23.21 24.13 28.53 33.86 31.48 31.34 31.16 31.26 32.62 34.21 37.99
17.93 17.90 18.35 18.12 18.10 18.55 18.42 18.21 18.18 18.07 19.61 19.19 17.68 18.18 18.25 18.42 17.60 18.37 19.38 24.12 25.41 21.88 21.40 22.91 25.57 31.80 28.50 28.15 26.28 28.08 31.21 33.91 34.23 31.99 31.83 31.23 30.48 31.35
17.94 17.88 18.30 18.54 18.42 17.93 17.76 17.74 17.49 17.52 17.33 17.78 18.09 18.49 18.71 19.06 18.82 19.72 20.88 21.55 22.14 23.50 22.74 23.24 26.15 26.91 26.15 24.81 25.65 27.00 29.28 31.04 33.77 35.27 35.53 34.81 30.31 27.28
17.96 18.13 17.87 17.94 17.93 17.47 17.59 17.10 16.81 16.96 17.73 18.15 18.19 18.50 19.52 19.58 20.94 21.79 22.61 23.40 25.18 23.66 16.48 18.49 23.73 24.76 25.30 26.20 27.08 26.38 27.10 28.94 29.98 30.27 31.87 36.16 36.65 36.00

GFSNE_sfc_wetblb_045.txt.gz
Wetbulb
32.99 32.72 32.09 32.96 33.21 33.12 32.65 31.56 28.55 24.74 26.34 30.11 30.43 33.90 34.00 34.33 34.99 34.98 34.77 36.58 38.15 38.91 39.41 39.55 39.62 40.12 40.63 41.09 41.70 41.91 42.35 42.85 43.25 43.94 44.41 44.76 45.32 46.41
33.37 32.26 32.25 32.59 32.55 32.81 32.35 31.85 31.04 28.25 25.29 30.25 30.94 32.52 33.46 33.57 34.92 34.31 34.10 35.59 36.65 37.79 38.20 38.09 38.49 39.02 39.51 39.89 40.35 40.66 41.10 41.46 42.21 43.03 43.88 44.21 44.84 45.28
32.42 31.75 31.27 31.93 31.61 31.79 31.87 31.29 30.16 29.66 26.87 29.22 31.86 32.94 32.26 32.33 32.89 34.02 34.47 33.96 35.01 36.30 37.12 37.35 37.60 38.08 38.55 39.00 39.31 39.85 40.28 40.79 41.28 42.11 42.85 43.40 43.93 44.51
31.23 30.88 30.64 31.37 30.43 30.82 30.47 29.88 29.95 30.40 28.67 26.16 29.32 30.92 30.82 32.24 32.57 32.16 32.50 32.49 32.55 33.92 35.49 36.15 37.06 37.34 37.59 37.95 38.25 38.81 39.02 39.46 39.93 40.48 41.08 41.73 42.56 43.07
30.92 30.31 30.19 29.84 29.20 29.80 30.05 29.72 30.09 29.93 30.39 29.22 28.16 31.07 31.53 32.58 31.03 31.11 30.30 30.84 31.69 33.33 34.62 35.13 35.95 36.47 36.96 37.41 37.74 37.98 37.87 38.07 38.31 38.62 39.06 39.56 40.38 41.32
31.01 30.98 30.42 29.94 29.28 29.73 30.05 30.51 30.82 29.96 29.97 29.51 29.04 29.71 30.09 30.72 30.02 28.36 27.91 29.93 30.15 31.54 32.93 33.63 34.87 35.14 35.76 36.24 36.09 35.76 35.75 36.07 36.88 37.41 37.81 37.89 38.29 39.29
31.08 30.77 31.00 31.52 33.10 33.15 31.57 30.57 30.22 29.81 30.07 29.79 28.32 27.85 27.27 27.41 26.23 28.13 27.06 28.56 29.65 30.54 30.41 30.94 32.04 32.04 32.63 33.86 33.53 33.86 34.04 34.80 35.63 36.40 37.05 37.57 37.63 38.23
29.82 30.44 30.62 30.90 30.97 33.23 33.09 33.48 32.88 30.68 31.24 28.77 27.45 25.91 26.05 26.65 27.73 27.24 27.72 25.21 23.98 30.97 29.01 28.07 31.50 30.16 31.22 31.75 32.86 33.74 34.63 35.27 35.70 36.19 36.68 37.40 38.38 38.45
30.03 29.84 29.46 30.17 31.34 30.12 31.64 33.17 33.65 34.01 32.38 29.77 26.49 25.96 25.96 27.63 28.93 27.40 27.06 26.55 25.75 28.99 28.26 24.73 29.36 28.23 30.61 30.67 32.64 33.48 34.35 34.97 35.56 36.01 36.50 36.91 37.40 37.62
30.27 29.77 29.13 29.46 30.32 30.68 31.03 32.39 30.72 29.96 29.46 29.34 29.08 29.38 30.53 30.80 29.25 28.54 27.98 27.43 27.67 28.18 28.51 22.84 27.70 26.71 29.44 30.58 32.68 33.51 34.14 34.66 35.24 35.84 36.39 36.76 36.86 37.11
30.03 30.14 29.95 29.80 31.70 33.23 31.53 29.11 28.08 27.95 30.29 31.46 32.55 32.30 31.33 31.29 30.39 28.34 25.75 23.12 21.77 23.67 27.13 24.94 26.15 26.39 27.67 28.49 30.99 32.79 33.56 34.48 34.89 35.64 36.49 36.87 37.09 37.45
30.33 30.12 31.19 30.91 32.50 33.83 29.88 28.26 25.48 25.68 27.98 29.22 26.98 27.03 27.73 27.52 29.49 27.17 26.07 21.85 21.65 20.56 26.78 23.93 24.78 25.58 22.90 28.74 30.71 31.23 32.12 33.41 34.54 35.42 36.42 37.12 37.41 35.47
28.59 28.85 29.60 31.51 32.86 31.95 31.33 27.41 26.07 29.48 28.57 25.01 24.55 25.15 25.84 26.44 26.36 26.38 26.01 24.08 21.62 21.37 25.83 25.69 24.50 24.38 23.80 24.41 28.35 30.83 30.83 31.77 32.62 33.02 34.45 35.25 36.33 36.21
28.41 29.21 29.43 31.91 30.73 29.98 28.69 29.00 30.46 29.32 24.60 23.50 23.26 23.92 24.30 24.18 24.99 25.33 25.25 25.20 25.42 23.62 25.26 25.06 23.14 23.60 23.51 23.57 24.49 30.20 31.38 32.60 33.77 33.33 33.66 34.70 35.84 37.29
29.93 30.25 30.94 29.75 28.56 26.56 26.98 28.44 27.56 23.80 22.85 22.38 22.91 23.06 23.80 24.34 24.23 24.24 24.97 24.97 24.73 25.66 26.54 26.36 25.52 26.16 26.60 25.67 26.20 27.93 29.22 31.69 33.64 32.29 33.67 33.28 32.72 32.34
29.79 28.67 27.70 26.53 26.06 25.51 24.18 24.31 23.83 23.76 23.55 23.15 22.47 23.11 24.04 23.45 22.89 24.02 22.22 23.07 22.81 23.77 27.34 28.49 29.13 28.93 28.67 28.58 28.40 27.98 30.60 29.40 32.70 33.55 33.12 33.35 33.75 32.30
28.43 25.04 22.37 21.75 21.15 21.34 21.79 22.41 22.89 22.88 22.57 22.35 22.08 21.63 21.66 21.92 21.66 23.25 22.93 23.03 21.06 21.73 23.26 27.23 29.46 30.98 30.45 29.71 28.26 30.55 31.38 31.84 32.73 32.54 32.42 32.12 32.75 31.92
24.32 20.45 19.80 20.20 19.57 19.58 19.70 20.33 21.27 22.05 21.70 21.74 21.18 21.06 20.33 20.22 20.96 22.85 22.78 21.84 21.14 22.30 23.53 26.51 28.11 27.58 29.06 31.72 33.48 31.47 32.06 30.84 32.21 33.10 33.18 31.48 32.34 30.44
20.25 19.39 18.92 19.12 19.06 19.54 20.02 20.28 19.91 21.13 21.17 20.77 20.51 20.32 21.19 21.57 20.65 20.72 21.18 21.90 22.14 23.56 26.03 28.17 26.65 27.08 24.30 24.44 31.20 33.31 30.12 31.40 31.57 32.23 32.82 32.37 31.57 32.18
19.64 18.86 18.64 19.16 19.41 19.61 19.92 20.01 20.14 20.33 20.17 20.20 21.42 21.42 20.36 20.69 20.19 20.49 21.36 21.16 22.73 25.91 25.94 27.54 27.48 27.67 26.33 26.46 26.67 30.44 33.10 31.73 31.01 31.01 31.45 33.07 34.41 35.74
18.76 18.67 19.13 19.54 19.65 19.98 20.04 19.89 19.57 19.24 20.90 20.63 19.64 20.21 20.72 21.06 20.33 21.09 21.97 24.29 25.77 25.03 24.64 25.78 27.78 31.29 30.47 31.20 29.43 29.97 32.53 34.33 33.86 31.89 31.93 31.57 30.52 31.57
18.72 18.65 19.38 19.78 19.58 19.52 19.62 19.23 18.81 18.98 19.13 19.44 19.83 20.54 21.08 21.57 21.31 22.02 23.02 23.51 24.52 25.95 26.14 28.19 28.52 29.52 29.37 28.43 27.81 28.67 30.56 32.35 34.12 34.79 34.94 34.65 30.67 27.17
18.68 19.25 19.40 19.15 19.23 19.37 19.20 18.77 18.54 18.75 19.06 19.26 19.79 20.66 21.50 21.38 23.39 24.15 24.73 25.44 26.18 26.81 26.99 25.76 27.27 28.99 27.81 28.06 28.26 28.73 28.79 30.05 31.33 31.31 33.24 35.69 36.27 36.13

GFSNE_sfc_wetblb_048.txt.gz
Wetbulb
37.40 37.24 36.66 36.88 36.93 36.67 36.08 34.98 31.97 28.01 29.76 34.16 34.29 37.31 37.09 36.99 37.09 36.82 36.60 37.93 38.83 39.20 39.61 39.82 39.90 40.27 40.63 41.35 41.74 42.25 42.65 43.17 43.41 43.93 44.38 44.98 45.70 46.53
37.00 36.45 36.24 36.50 36.21 36.25 35.71 35.06 34.12 31.32 28.79 33.17 33.83 35.35 36.12 35.79 37.21 36.72 36.47 37.17 37.80 38.58 38.97 38.43 38.78 39.23 39.55 39.98 40.53 41.29 41.79 42.33 42.91 43.62 44.26 44.70 45.06 45.30
36.51 35.72 35.05 35.53 34.89 34.82 34.77 34.11 32.95 32.44 29.83 32.22 34.12 34.80 34.26 34.69 35.68 36.47 36.22 35.52 36.69 37.05 37.60 37.74 37.88 38.22 38.81 39.33 39.73 40.25 40.77 41.39 41.95 42.82 43.51 43.95 44.32 44.52
35.41 34.90 34.31 34.36 33.62 33.94 33.63 32.74 32.62 33.14 31.53 29.47 31.66 33.38 33.39 35.08 34.60 34.02 35.13 34.59 34.90 35.92 37.07 37.46 37.86 37.99 38.25 38.62 38.85 39.33 39.62 39.94 40.58 40.97 41.93 42.56 43.04 43.44
35.22 34.33 33.87 33.32 32.51 33.14 32.84 32.56 32.71 32.26 32.51 31.46 31.05 34.00 34.89 34.38 34.25 33.64 33.15 33.79 34.56 35.51 36.58 36.77 37.26 37.52 37.69 37.97 38.27 38.50 38.48 38.73 38.98 39.15 39.52 40.01 40.79 41.79
35.23 34.54 33.79 32.91 32.47 32.46 32.59 32.55 32.13 31.90 31.82 31.23 31.52 32.04 33.25 33.79 33.10 31.42 30.44 32.55 32.49 33.69 35.33 35.50 36.49 36.60 37.06 37.45 37.24 36.89 36.87 37.19 37.75 38.20 38.32 38.37 38.76 39.70
34.84 34.27 33.91 33.67 33.48 33.82 32.28 31.68 31.43 30.99 31.49 31.39 30.89 31.12 30.15 30.47 29.27 30.84 29.71 31.26 32.01 32.71 33.26 33.81 34.31 34.49 35.05 36.01 35.48 35.59 35.79 36.25 36.74 37.27 37.79 38.25 38.41 38.79
32.99 33.36 33.67 33.42 33.17 33.95 34.13 34.16 32.92 30.93 31.60 31.31 29.74 28.38 28.46 29.11 30.42 29.45 28.93 28.09 25.97 32.68 31.11 30.42 33.23 32.34 33.83 34.82 35.34 35.77 35.98 36.24 36.59 37.08 37.50 38.14 38.26 38.41
32.88 32.65 32.35 32.79 32.97 32.06 32.74 34.01 34.27 35.30 34.22 31.89 28.37 27.83 28.00 29.59 29.99 29.94 28.73 27.91 27.07 30.23 30.06 27.59 31.98 31.17 33.80 34.06 34.81 35.33 35.97 36.38 36.73 37.07 37.23 37.66 38.12 38.45
33.08 32.67 32.11 32.05 32.26 32.01 31.52 32.50 32.82 32.15 31.91 31.60 30.39 30.42 31.22 31.91 31.41 30.01 29.42 28.75 29.93 30.44 30.76 25.45 30.47 29.60 32.87 33.81 34.51 34.97 35.48 35.90 36.23 36.65 37.25 37.76 38.23 38.53
32.88 33.09 32.69 31.77 32.97 33.53 32.01 31.60 30.03 30.42 32.49 32.56 33.16 33.94 33.64 32.79 31.74 29.69 27.80 25.86 23.74 26.22 29.67 27.56 28.73 28.74 29.33 30.31 33.34 34.81 35.62 35.89 35.97 36.72 37.19 37.34 37.88 38.49
32.52 32.78 33.07 32.45 33.09 33.56 31.48 29.74 28.04 28.31 29.03 30.41 30.65 30.47 30.81 30.60 31.58 29.82 28.68 25.06 24.50 23.03 28.73 26.15 26.55 26.29 24.24 30.04 32.73 32.70 34.14 35.23 35.99 36.73 37.20 37.28 37.58 35.95
30.63 30.65 31.78 32.75 33.17 32.89 32.07 29.17 27.98 29.93 30.01 28.88 27.89 28.40 29.04 29.46 29.55 29.52 28.85 26.93 24.35 24.04 28.07 27.00 25.36 24.87 24.47 25.48 29.17 31.88 32.79 35.01 35.40 35.26 36.71 37.25 37.54 37.24
29.62 30.84 31.54 32.36 31.73 31.08 30.05 29.85 30.57 30.43 27.71 26.37 25.73 25.92 27.07 27.47 28.32 28.20 27.89 27.60 27.73 25.77 27.58 26.62 23.54 24.52 24.24 24.30 24.43 30.93 32.68 34.79 35.61 34.82 35.36 36.58 38.24 38.53
31.05 31.63 32.04 31.03 29.92 28.38 28.54 29.01 28.46 26.91 25.64 24.33 24.53 25.59 27.09 27.55 27.55 27.30 28.22 28.28 27.59 28.15 28.80 28.51 27.56 27.26 26.88 25.06 25.86 28.84 30.49 33.06 35.21 34.84 34.35 34.42 34.28 34.51
31.26 30.99 29.91 28.83 28.09 27.79 26.98 27.13 26.91 26.56 25.66 25.09 24.82 25.95 27.09 26.73 26.09 26.98 25.28 25.73 25.41 26.64 29.70 30.42 30.37 29.72 28.11 29.00 29.32 28.42 31.14 29.95 33.74 34.38 33.36 33.79 34.85 34.97
29.77 27.62 26.06 25.31 24.66 24.85 25.09 25.55 26.14 25.99 24.74 24.66 24.66 24.35 24.68 25.22 24.92 26.36 25.70 25.90 23.44 23.56 25.30 29.76 31.46 31.88 31.81 30.25 28.45 31.02 31.71 32.33 33.75 33.03 32.33 32.52 34.13 34.33
25.99 24.02 23.38 23.56 22.97 22.91 22.64 23.03 23.95 24.84 24.51 24.24 23.76 23.85 23.33 23.06 24.27 25.79 26.01 24.93 23.59 24.14 25.34 27.81 30.23 29.60 30.48 32.37 34.97 32.31 32.64 31.92 32.36 33.01 32.95 31.81 32.07 32.84
23.11 22.63 22.18 22.39 22.20 22.17 22.39 23.13 23.40 24.31 24.25 24.13 23.65 23.59 24.36 24.53 23.27 24.03 24.85 24.86 24.20 26.22 26.70 28.75 29.49 28.82 26.37 25.27 31.86 35.83 31.66 31.70 31.91 32.45 32.51 32.21 31.46 33.55
22.75 21.95 21.67 22.05 22.00 22.18 22.81 23.31 23.70 23.69 23.36 23.02 23.64 24.15 23.31 23.47 23.43 23.89 24.64 24.17 24.99 26.67 26.64 27.82 29.65 29.50 26.80 26.62 27.35 30.93 33.44 32.20 31.48 30.91 31.52 33.12 34.60 36.51
21.94 21.70 22.13 22.04 22.40 22.71 23.14 23.33 22.94 22.67 23.18 23.17 22.60 23.09 23.60 23.83 23.38 24.00 24.76 26.19 27.03 26.46 25.69 25.89 29.49 32.93 31.44 31.74 29.83 30.86 33.41 34.68 33.99 32.00 32.24 31.17 31.02 32.16
21.73 21.39 21.95 22.46 22.47 22.81 23.08 23.04 22.55 22.46 22.27 22.78 23.02 23.24 23.78 24.45 23.99 24.56 25.55 26.03 26.37 26.77 27.47 28.79 30.88 30.98 31.13 29.75 28.65 29.62 31.50 33.12 34.64 35.30 35.64 34.74 31.19 28.02
21.36 21.48 21.99 22.58 22.76 22.82 22.76 22.51 22.01 21.96 22.45 22.74 22.88 23.12 23.83 23.90 25.43 26.21 27.17 27.63 27.38 28.58 27.87 27.29 29.85 30.68 30.51 30.62 29.50 29.88 30.65 30.68 31.39 31.66 33.86 36.04 35.99 36.37

GFSNE_sfc_wetblb_051.txt.gz
Wetbulb
38.17 38.40 37.48 37.79 37.90 37.38 36.62 35.31 32.05 27.57 28.81 33.37 33.82 36.92 36.99 37.02 37.63 36.62 36.07 38.87 40.40 40.73 40.85 40.85 40.90 41.24 41.14 41.62 42.08 42.70 42.84 43.21 43.77 44.33 44.95 45.34 46.02 46.53
37.80 36.91 36.85 37.11 36.80 36.74 36.06 35.37 34.21 31.15 27.28 32.50 33.43 34.87 35.94 35.97 36.72 36.33 36.39 38.58 38.98 39.62 39.89 39.68 39.57 39.95 40.23 40.63 40.94 41.51 42.06 42.58 43.19 44.18 44.91 45.36 45.77 45.88
37.23 36.58 35.94 36.28 35.48 35.13 34.96 34.34 33.09 32.42 28.60 31.17 33.73 34.76 33.40 33.83 35.05 35.66 36.47 35.40 35.82 38.15 38.79 39.16 39.33 39.59 40.03 40.21 40.51 40.74 41.25 41.88 42.51 43.21 44.03 44.56 44.98 45.18
36.05 35.75 35.06 35.45 34.37 34.36 33.91 33.04 32.62 32.85 30.89 28.17 31.35 31.99 32.69 33.85 34.44 34.33 35.22 35.23 34.04 36.82 38.42 38.77 39.12 39.24 39.44 39.61 39.72 39.85 40.10 40.34 40.89 41.38 42.06 42.97 43.57 43.94
36.04 35.23 34.53 34.20 32.92 33.19 32.98 32.23 32.67 33.15 32.26 30.05 29.26 32.13 32.50 33.65 33.88 33.24 32.54 33.19 34.50 36.17 37.29 37.79 38.38 38.56 38.89 39.26 39.33 39.44 39.33 39.50 39.65 39.76 40.26 40.66 41.27 42.18
36.34 35.66 34.76 33.77 32.63 32.33 31.86 31.85 32.10 30.83 30.89 29.54 29.10 29.58 31.43 32.88 31.39 30.00 29.20 31.13 30.72 33.50 35.19 35.78 37.08 37.40 38.23 38.24 38.05 37.87 37.77 38.06 38.70 39.06 39.07 39.12 39.42 40.17
35.47 35.13 34.79 35.11 34.87 34.42 32.58 31.72 31.49 30.10 29.55 28.99 28.84 30.30 28.57 28.42 27.65 28.94 27.90 28.92 29.60 31.82 30.30 31.00 31.95 31.51 32.59 35.51 35.47 36.33 37.00 37.88 38.39 38.71 39.19 39.51 39.50 39.85
33.53 33.76 34.01 34.60 34.15 35.03 35.13 35.11 33.91 30.59 30.26 29.87 29.59 27.36 27.65 28.01 28.52 27.89 27.09 26.90 24.73 30.80 29.23 27.92 30.60 29.83 31.19 32.07 35.95 36.86 37.09 37.53 37.97 38.41 38.83 39.06 39.24 39.62
33.09 32.80 32.62 33.35 33.75 32.51 33.52 34.53 34.08 34.94 34.77 31.35 28.27 27.65 27.04 28.04 28.28 27.24 28.25 26.93 25.80 28.25 28.26 26.16 29.70 28.18 30.63 32.10 35.39 36.62 36.89 37.22 37.69 37.80 37.97 38.51 38.77 39.16
33.26 33.02 32.29 32.22 32.76 32.51 31.90 30.90 31.55 31.99 31.63 31.59 30.36 29.63 29.91 30.95 31.35 30.56 28.17 27.44 27.95 28.63 29.31 24.10 27.73 26.24 29.51 30.88 34.33 35.15 36.00 36.90 37.43 37.94 38.19 38.25 38.29 38.76
33.19 33.13 32.93 32.23 33.88 34.57 31.33 29.94 29.79 29.40 33.02 33.68 33.32 33.98 34.73 34.55 33.01 29.66 26.40 25.40 23.49 24.82 27.61 25.03 26.14 26.15 26.77 26.84 29.94 34.48 35.58 36.10 36.30 37.37 38.07 38.29 38.58 39.15
31.88 32.16 33.99 33.02 34.38 34.30 31.25 29.00 26.79 27.37 28.02 28.75 29.81 30.16 31.06 30.34 32.78 30.06 28.56 25.18 23.59 22.25 26.12 24.77 24.70 24.93 21.40 26.27 28.45 28.74 29.94 33.66 35.74 36.50 38.12 38.39 38.46 35.86
29.94 30.07 31.33 33.61 33.75 33.98 33.25 28.92 27.68 29.70 29.40 27.96 27.22 27.32 27.52 27.57 28.55 29.21 28.74 26.66 23.70 22.60 26.26 25.90 24.16 23.29 22.81 22.10 25.21 27.34 28.30 29.67 31.44 32.49 36.87 37.89 38.35 37.98
29.21 30.25 30.93 33.10 33.17 32.45 30.75 30.79 31.23 30.86 27.07 25.97 25.14 24.78 25.32 26.09 27.31 27.37 27.50 27.46 27.54 25.89 27.22 26.96 23.72 23.39 22.49 21.51 21.39 26.41 28.31 29.92 31.87 31.98 33.64 37.18 38.53 38.32
30.81 31.92 32.82 32.23 31.47 29.41 29.60 30.31 29.96 26.43 25.50 24.54 24.48 25.04 25.93 26.75 26.94 26.92 27.37 27.49 27.51 27.00 27.18 26.90 26.79 26.55 25.95 23.96 23.47 25.28 27.54 29.84 31.67 32.17 33.65 33.95 33.53 34.23
31.16 29.83 30.11 30.10 29.64 28.68 27.46 27.15 26.45 26.12 25.90 25.03 24.22 24.95 25.99 25.36 24.58 25.83 24.80 25.13 24.47 24.35 26.95 27.08 28.89 28.75 27.06 27.17 27.45 27.17 29.16 27.56 31.81 33.06 33.33 33.09 34.08 35.36
29.50 27.01 25.69 25.04 24.34 24.54 24.75 24.98 25.19 25.23 24.40 24.77 24.49 23.79 23.06 23.63 23.85 24.63 24.70 24.84 23.48 23.20 24.19 26.73 29.46 30.04 30.06 29.93 27.84 28.58 29.31 30.76 32.62 32.44 31.94 31.66 33.07 34.35
25.86 23.47 22.94 23.13 22.73 22.70 22.49 22.47 23.30 24.28 24.24 24.54 23.23 22.80 22.59 22.53 22.73 24.16 24.34 23.66 23.08 23.78 24.59 26.28 27.47 27.39 27.61 30.33 33.84 30.12 30.29 30.94 31.93 32.35 32.20 30.84 30.90 33.61
22.97 22.48 21.96 22.23 22.10 22.49 22.59 22.44 21.95 23.35 24.36 23.68 23.34 22.49 22.52 22.80 22.68 21.76 22.80 23.20 23.60 24.12 25.09 27.18 26.92 25.94 23.94 22.56 28.76 34.64 29.70 29.48 31.11 31.45 31.40 31.37 30.79 32.52
22.78 22.01 21.60 21.96 21.94 22.12 22.38 22.09 22.33 22.76 22.76 22.66 22.63 23.00 22.40 21.84 21.50 21.42 22.25 22.84 23.47 24.86 25.93 26.95 27.01 26.33 25.39 25.33 25.78 29.17 33.15 31.54 31.48 30.55 30.30 32.12 33.69 36.14
21.91 21.76 22.15 21.91 22.14 22.37 22.52 22.43 22.34 22.04 23.14 23.27 21.91 22.20 22.56 22.78 21.70 22.14 23.09 25.92 26.53 25.52 24.61 25.46 28.28 32.61 30.54 30.65 27.41 27.96 30.83 34.01 34.12 31.66 31.51 30.79 30.26 31.06
21.77 21.52 21.86 22.08 22.15 22.38 22.38 22.25 21.72 21.78 21.75 21.89 21.98 22.50 22.97 23.30 22.54 22.91 23.39 23.70 24.89 25.95 26.31 28.79 29.47 28.58 29.33 27.83 27.09 27.69 28.77 31.08 33.85 34.84 35.23 34.64 31.16 27.93
21.69 21.70 21.60 21.81 22.18 22.40 22.29 21.64 21.24 21.17 21.60 21.79 21.92 22.46 23.09 22.72 23.76 24.21 24.75 26.06 26.35 27.59 28.17 26.48 26.99 28.39 27.52 28.40 28.88 28.23 28.78 28.64 29.72 29.92 31.61 35.94 36.37 36.33

GFSNE_sfc_wetblb_054.txt.gz
Wetbulb
32.48 32.21 32.23 32.70 32.66 32.00 31.54 30.28 26.96 24.24 25.50 26.43 27.00 32.30 31.37 32.83 33.73 34.75 33.95 38.03 40.32 41.06 41.55 41.41 41.56 41.66 41.76 42.33 42.68 42.89 43.27 43.47 44.00 44.89 45.34 45.79 46.23 46.95
33.20 31.77 31.53 31.89 31.39 31.10 30.51 30.34 29.04 26.04 24.10 28.10 29.18 29.11 30.88 33.74 35.09 34.61 34.17 38.03 39.05 40.28 40.47 40.29 40.15 40.85 41.18 41.36 41.80 42.29 42.64 42.94 43.59 44.39 45.15 45.76 46.00 46.30
32.15 31.82 31.77 31.67 30.28 29.66 29.41 29.14 28.05 27.16 25.44 28.07 30.04 30.74 29.29 30.68 32.27 32.31 33.92 33.17 34.62 38.58 39.12 39.51 39.90 40.07 40.60 40.79 41.14 41.48 41.71 42.18 42.66 43.43 43.89 44.64 44.98 45.26
31.61 31.24 31.02 33.72 29.38 29.22 28.17 27.57 27.24 27.29 27.11 25.65 28.24 28.94 29.02 30.38 30.95 31.07 33.64 34.97 32.59 36.17 38.37 38.81 39.04 39.37 39.68 39.96 40.11 40.51 40.65 41.03 41.28 41.85 42.25 42.84 43.37 43.80
31.63 30.85 30.48 30.02 28.21 27.76 27.35 26.80 27.50 30.34 28.16 26.88 26.59 28.95 29.00 30.12 30.38 31.47 30.60 30.66 32.44 35.44 36.64 37.32 37.83 38.64 38.72 39.03 39.40 39.50 39.18 39.44 39.94 40.12 40.44 40.92 41.67 42.34
32.32 31.55 30.66 29.92 28.49 27.24 28.21 27.20 28.93 27.18 27.86 26.90 26.73 27.38 29.10 31.04 29.31 27.24 26.87 28.62 28.41 31.54 33.38 35.17 36.55 36.58 37.26 37.49 37.27 37.11 37.28 37.80 38.75 39.27 39.62 39.94 40.29 41.06
30.37 31.28 31.00 32.78 35.71 34.39 31.31 27.79 27.65 27.07 27.00 26.81 28.12 27.67 27.92 27.14 26.36 26.80 25.60 26.59 27.48 29.17 29.60 29.20 29.64 29.77 30.25 33.76 34.29 35.41 36.25 37.88 38.68 39.15 39.65 40.04 40.10 40.56
28.53 29.35 29.85 33.26 32.25 35.44 35.59 35.61 33.90 29.66 27.53 26.77 27.34 27.13 26.69 25.59 26.41 25.19 25.12 25.08 24.48 29.67 26.94 26.80 28.63 27.67 29.20 29.94 34.44 36.02 36.55 37.45 38.25 38.45 39.05 39.55 39.90 40.19
27.90 28.11 28.99 32.07 32.25 29.12 32.57 34.63 33.60 34.86 34.29 30.66 27.34 25.80 25.61 26.07 25.38 25.82 27.00 27.62 25.63 27.19 26.96 25.08 27.77 26.19 28.49 30.02 33.61 35.17 36.05 36.45 37.29 37.86 38.46 38.97 39.52 40.04
28.13 28.13 27.39 27.39 28.73 31.28 29.62 25.94 27.22 28.50 29.83 30.09 28.69 28.20 27.57 29.57 30.59 30.46 28.15 26.50 27.22 27.62 27.61 23.16 26.31 24.88 26.96 28.30 33.11 34.02 34.87 36.00 36.92 37.27 37.62 38.07 38.70 39.34
28.69 28.46 29.48 28.49 32.81 35.14 30.71 27.28 27.79 27.25 31.57 33.15 33.23 33.81 34.22 34.17 32.92 28.78 25.46 24.53 22.95 24.40 26.33 23.85 23.90 24.12 24.96 25.45 27.35 32.53 33.99 34.49 34.87 35.81 36.92 37.48 38.36 39.19
27.00 28.36 32.90 31.77 34.17 34.68 30.59 28.79 25.17 25.18 25.76 26.49 27.80 28.10 28.89 26.81 31.40 26.98 26.15 23.97 23.00 21.28 24.43 23.01 22.82 23.40 20.74 23.90 23.31 26.02 26.61 31.12 33.55 34.66 36.10 36.75 37.58 36.07
26.12 26.67 27.45 33.17 34.04 34.50 34.00 27.30 26.31 29.24 29.30 26.02 24.56 24.66 25.23 25.41 26.05 27.36 27.96 26.10 23.26 22.01 25.60 25.92 23.76 22.86 22.23 20.75 23.40 25.33 26.20 27.11 28.67 30.13 33.91 36.04 37.21 37.18
26.44 26.54 27.41 33.09 33.22 32.75 30.88 31.22 31.88 31.17 24.54 23.65 23.36 23.29 23.80 24.32 25.08 25.94 26.32 26.87 27.26 26.00 27.32 26.99 24.01 23.21 22.09 20.97 20.62 24.98 26.70 28.18 29.09 29.51 30.96 34.26 36.66 38.02
28.14 30.55 32.27 31.93 31.18 28.65 29.56 30.77 29.88 23.69 22.95 22.07 22.76 23.23 23.49 24.10 24.60 24.80 25.16 25.26 26.28 26.31 26.90 26.15 25.24 24.85 24.58 22.86 22.55 24.19 26.12 28.31 30.47 30.44 31.75 32.44 33.39 33.79
29.58 26.45 29.10 28.98 28.99 27.68 25.89 25.04 23.77 23.48 23.46 22.84 22.20 23.36 24.15 23.48 22.26 23.19 23.52 23.67 23.12 22.94 26.03 25.09 26.00 26.81 25.28 26.03 26.26 25.60 27.37 26.70 30.06 31.19 32.53 33.35 33.64 33.81
29.15 24.14 22.42 21.28 21.54 22.08 22.48 22.65 22.88 22.75 22.34 22.55 22.29 22.57 22.36 22.00 21.85 23.05 22.57 23.26 22.17 21.58 22.65 25.24 26.98 28.43 28.49 27.81 25.74 26.46 27.52 28.76 30.96 31.41 31.68 30.75 32.26 32.95
24.24 20.36 19.89 20.40 20.40 20.73 20.73 20.93 21.68 22.63 22.00 22.48 22.22 21.76 21.34 21.02 20.95 22.07 22.96 21.66 20.99 21.42 23.09 24.77 25.62 26.14 25.95 26.82 31.39 28.01 28.58 27.78 29.86 30.59 31.02 30.20 30.23 32.11
20.09 19.55 19.50 19.94 20.02 20.25 20.19 20.39 20.14 21.15 21.97 21.81 21.43 20.92 20.93 21.16 21.71 19.89 20.68 21.27 20.54 21.40 22.54 24.87 26.18 25.25 22.65 21.32 27.39 33.46 28.59 28.96 29.47 29.69 31.21 30.91 29.62 31.20
19.99 19.25 19.05 19.76 19.79 19.59 20.03 20.37 20.62 20.80 21.01 20.94 21.21 22.29 21.92 20.95 19.85 20.14 20.75 20.61 21.29 22.63 23.93 24.15 24.92 26.00 24.98 24.49 24.79 28.01 32.54 30.15 29.94 29.18 29.74 31.62 32.59 35.24
19.36 19.24 19.94 19.78 19.74 20.35 20.76 20.62 20.74 20.59 22.13 22.18 20.95 21.42 21.68 21.52 20.62 20.96 21.22 24.56 25.25 23.07 21.96 23.19 25.87 32.11 29.39 28.22 26.34 26.74 30.10 33.42 33.08 30.93 30.93 29.72 29.23 30.57
19.80 19.58 19.97 20.07 20.05 20.24 20.45 20.49 20.28 20.34 20.25 20.58 20.73 21.45 21.79 22.11 21.64 21.82 22.09 21.84 22.11 23.38 24.60 26.77 29.23 27.85 26.07 25.90 24.96 26.58 28.35 30.05 32.72 33.86 34.26 33.53 30.36 27.92
19.58 19.91 19.97 19.83 20.22 20.65 20.63 20.23 19.76 19.75 20.23 20.74 20.75 21.44 22.16 22.02 23.14 23.03 22.98 23.50 24.10 24.90 26.83 26.15 27.23 27.06 25.61 25.77 27.43 27.53 27.94 28.30 28.85 28.54 29.89 34.71 35.53 35.80

GFSNE_sfc_wetblb_057.txt.gz
Wetbulb
32.10 31.65 31.59 31.84 31.72 30.92 30.34 29.23 26.26 22.35 24.16 24.59 25.63 28.90 29.61 30.92 32.57 34.12 33.21 37.28 39.77 40.46 40.92 41.40 41.67 41.79 42.21 42.52 43.01 43.37 43.77 44.16 44.62 45.19 45.77 46.11 46.68 47.25
32.77 30.89 30.48 30.98 30.48 29.93 29.28 29.05 27.84 25.16 22.41 25.26 26.80 26.92 28.93 32.18 33.72 33.48 32.84 36.94 37.76 39.36 40.05 39.92 40.04 40.81 41.22 41.50 42.01 42.39 42.81 43.25 43.92 44.80 45.44 45.82 46.20 46.46
31.41 31.55 31.40 30.70 29.36 28.51 28.16 27.79 26.69 25.32 23.57 26.33 27.35 27.99 26.66 27.78 30.16 30.96 32.14 31.74 33.01 38.03 38.54 39.07 39.41 39.77 40.23 40.60 40.90 41.39 41.63 42.15 42.89 43.67 44.46 44.95 45.25 45.32
31.42 30.90 30.37 32.85 28.63 28.11 27.03 26.15 25.52 25.77 24.58 24.50 27.02 27.61 27.61 28.44 29.14 29.09 31.33 33.79 32.28 35.31 37.49 38.11 38.45 38.70 39.01 39.61 39.97 40.16 40.32 40.71 40.93 41.32 41.99 42.79 43.25 43.88
31.88 30.80 29.93 28.90 27.42 27.03 26.19 25.70 26.33 28.98 26.42 25.84 25.82 28.15 27.96 29.26 28.99 30.01 30.75 30.10 31.46 34.56 35.81 36.53 37.11 37.76 38.53 38.48 38.68 38.79 38.62 38.82 39.10 39.47 39.94 40.65 41.40 42.22
31.01 30.58 29.81 28.71 27.45 26.52 26.74 26.38 27.43 25.51 25.41 25.52 25.83 25.95 28.34 29.99 29.14 27.32 26.53 28.21 27.67 30.36 32.33 34.32 36.03 36.35 36.47 36.79 36.79 36.43 36.37 37.11 37.95 38.75 39.53 39.94 40.49 41.44
29.25 29.80 29.91 31.52 35.50 34.06 31.06 27.04 26.32 25.49 24.91 25.20 25.32 26.39 27.50 27.32 25.34 26.25 25.10 26.01 27.04 28.37 28.91 29.28 28.74 29.08 29.49 32.87 33.29 34.46 35.32 37.04 37.78 38.37 39.15 40.03 40.24 40.69
27.69 28.35 28.32 32.13 31.69 35.29 35.51 35.63 34.11 29.10 24.69 26.44 26.40 26.19 25.66 25.00 25.94 25.78 24.64 23.90 23.63 29.69 25.23 26.72 28.52 27.35 28.21 28.79 33.26 35.07 35.76 36.18 37.24 37.53 38.16 38.98 39.51 39.99
26.60 26.57 27.36 30.54 30.54 27.50 31.68 34.89 33.96 35.01 34.64 29.97 26.36 25.51 24.73 26.00 25.57 24.82 26.34 27.06 25.93 27.38 27.10 25.10 27.39 25.81 27.90 29.19 32.97 34.03 35.11 35.78 36.33 36.79 37.74 38.38 38.79 39.34
26.60 26.38 25.70 26.19 27.41 30.83 28.90 27.19 28.22 27.68 28.02 29.21 28.07 27.51 27.55 29.26 30.36 29.63 27.54 26.02 26.23 26.66 26.68 22.59 25.75 24.18 26.32 26.91 32.02 33.26 34.20 34.92 35.53 36.15 36.34 36.83 37.41 38.17
27.23 27.11 28.27 27.56 32.28 34.63 30.30 26.66 26.48 26.73 31.26 32.99 33.38 33.83 34.02 33.59 32.01 28.28 23.78 22.63 20.91 23.29 26.11 23.68 22.99 23.01 24.26 24.75 26.53 31.70 32.88 33.58 33.85 34.51 35.37 36.29 36.72 37.85
26.09 26.65 31.82 31.10 33.73 34.55 30.83 28.04 24.80 24.53 25.09 25.79 26.66 26.69 27.89 26.24 30.67 26.36 23.67 22.25 21.96 21.28 23.35 22.61 22.58 23.37 20.71 21.96 21.97 25.63 25.08 30.14 32.37 33.70 34.62 35.48 36.27 34.12
25.18 25.81 26.25 32.44 33.81 33.95 33.42 27.05 25.98 29.32 28.06 23.02 23.56 23.85 24.56 24.86 25.66 25.87 25.46 24.86 22.52 21.74 25.36 25.73 23.67 22.99 22.70 21.11 23.55 25.00 25.54 25.98 26.71 28.44 32.44 34.21 35.46 35.92
25.62 25.47 26.13 32.61 32.40 31.90 29.86 30.88 31.65 30.22 23.59 22.77 22.42 22.32 23.03 23.49 24.06 24.55 25.20 24.96 24.98 24.21 25.34 25.22 23.12 23.02 22.00 20.50 19.70 23.82 25.39 26.53 27.08 27.34 28.89 32.44 35.05 36.33
27.24 29.93 32.16 31.25 29.67 26.90 28.78 29.79 29.00 22.79 22.07 20.79 21.24 21.95 22.45 23.29 23.87 24.18 23.92 23.64 22.85 24.26 25.57 24.44 23.72 23.56 23.32 21.61 21.19 22.56 24.50 26.32 28.20 27.92 27.77 30.51 30.95 32.38
29.11 25.50 28.23 27.33 27.19 26.37 24.80 24.29 23.06 22.57 22.30 22.10 21.67 22.47 23.10 22.77 22.19 22.79 21.55 21.51 20.78 20.91 25.23 24.20 22.41 23.21 22.90 23.70 24.23 24.08 26.01 24.32 27.63 28.09 30.18 31.31 32.18 33.07
28.13 22.83 20.96 20.66 20.61 21.15 21.64 21.94 22.17 22.10 21.40 21.39 21.03 20.99 21.39 21.42 21.39 22.06 20.97 20.68 20.20 19.74 20.07 23.10 24.19 24.45 24.86 24.60 23.49 24.72 25.08 25.56 27.75 28.97 28.87 28.92 30.24 30.59
22.01 19.44 18.95 19.44 19.34 19.72 19.73 19.82 20.58 21.63 20.74 21.12 20.65 20.47 20.06 19.99 19.89 21.08 22.31 20.41 18.66 19.51 20.10 21.19 21.76 22.21 23.63 25.56 29.49 24.89 26.06 26.70 27.90 28.89 29.75 28.15 28.30 31.11
19.38 18.67 18.26 18.63 18.91 19.26 19.16 18.94 18.68 20.01 20.56 20.41 19.97 20.11 20.56 20.87 21.81 20.14 19.98 20.03 19.70 19.87 20.21 21.46 23.16 23.03 19.91 18.86 25.26 32.41 27.54 27.46 27.60 27.99 29.33 29.40 29.02 30.48
19.07 18.16 17.91 18.72 18.94 18.69 18.86 18.84 19.13 19.51 19.68 19.48 20.59 21.70 20.92 20.55 20.29 19.96 20.02 19.63 19.80 21.13 22.57 22.57 21.80 23.20 22.71 22.68 24.45 27.01 30.90 27.33 28.11 27.83 28.63 30.25 31.72 34.27
18.78 18.56 19.17 19.02 18.90 19.22 19.25 19.08 19.21 19.44 21.40 21.00 19.50 19.87 20.43 20.98 20.19 20.32 20.54 24.15 24.92 22.04 20.10 21.02 23.80 30.78 29.20 28.57 24.10 24.21 27.30 31.93 32.12 30.26 30.23 28.94 27.71 28.29
18.98 18.69 19.22 19.53 19.39 19.10 18.87 18.93 18.73 19.06 18.80 18.97 19.04 19.93 20.81 21.45 21.03 21.47 22.08 21.88 21.74 22.22 22.65 23.86 26.62 27.45 26.53 25.53 23.41 23.56 25.53 29.01 32.06 33.47 33.99 33.03 29.32 26.08
18.69 19.23 19.57 19.43 19.46 19.16 19.35 18.88 18.55 18.66 19.22 19.40 19.71 20.22 21.00 21.44 22.61 23.24 23.85 24.20 24.16 23.53 25.42 25.59 26.37 27.35 26.29 26.15 26.59 26.21 26.05 26.69 27.71 28.83 30.10 34.61 35.32 35.48

GFSNE_sfc_wetblb_060.txt.gz
Wetbulb
31.94 33.11 30.95 31.14 31.38 30.51 29.93 28.91 26.26 22.10 22.34 24.77 25.11 27.14 28.48 28.97 31.45 32.94 31.34 36.00 38.86 39.67 40.32 40.58 41.02 41.47 41.85 42.52 43.08 43.59 43.74 44.22 45.04 45.24 46.09 46.19 46.81 47.50
32.30 30.49 30.49 30.71 29.92 29.32 28.74 28.41 27.42 25.09 21.80 24.10 25.06 25.86 27.81 31.11 32.51 32.52 31.63 35.93 36.70 38.42 39.16 39.49 39.71 40.26 40.82 41.24 41.74 42.11 42.58 43.10 43.80 44.78 45.43 45.89 46.34 46.65
30.92 30.77 30.54 30.21 29.26 28.40 27.86 27.23 26.15 24.95 22.62 24.88 25.50 26.98 26.07 27.01 29.09 29.69 30.77 30.33 31.34 36.98 38.52 38.71 38.99 39.47 39.81 40.27 40.53 41.03 41.60 42.28 42.78 43.43 44.29 44.95 45.30 45.64
30.94 29.98 30.10 32.37 28.70 27.75 26.69 26.00 25.26 25.18 23.89 23.59 25.22 25.67 25.70 27.58 27.56 27.42 30.21 32.21 31.50 35.46 37.20 37.81 38.28 38.41 38.85 39.19 39.52 40.01 39.75 40.46 40.63 41.16 41.60 42.46 43.16 43.89
30.95 29.76 29.52 28.49 27.17 26.91 25.94 25.01 25.11 27.72 25.25 24.75 25.29 26.12 26.37 27.01 27.95 28.23 28.63 29.65 31.30 34.24 35.56 36.04 36.90 37.30 38.09 38.73 38.73 38.61 38.55 38.72 38.96 39.11 39.66 40.18 41.01 42.03
30.21 29.64 29.33 28.15 27.21 26.12 26.13 25.47 26.54 24.91 24.61 24.97 25.29 24.65 24.95 27.63 27.55 26.14 25.63 27.51 27.10 29.90 32.15 33.85 35.76 36.46 37.00 36.92 36.78 36.38 36.24 36.72 37.60 38.31 38.91 39.15 40.02 40.91
29.02 29.31 28.95 31.06 35.00 33.67 30.62 27.02 26.15 25.22 24.89 23.25 25.33 24.08 25.47 25.85 24.90 25.77 24.66 25.83 26.61 27.88 27.54 27.53 27.08 28.69 29.51 32.86 33.15 34.18 34.70 36.21 37.09 37.99 38.45 38.82 39.39 40.02
27.32 26.38 27.23 30.65 30.24 34.63 34.92 35.33 33.92 28.44 23.85 21.31 27.54 25.79 25.30 25.15 25.93 24.83 24.54 23.50 23.09 28.63 25.45 26.42 28.23 27.05 28.01 28.48 32.86 34.75 35.64 36.00 36.45 37.11 37.80 38.34 38.66 39.35
25.05 25.70 26.88 29.61 29.72 26.81 31.16 34.39 33.64 35.23 34.84 30.96 26.55 25.56 24.84 25.78 25.74 24.23 25.16 25.83 25.47 26.84 25.90 23.92 26.22 24.77 27.26 28.71 32.76 33.79 34.75 35.45 35.99 36.26 36.70 37.48 38.28 38.56
26.13 25.89 25.52 26.11 27.18 30.14 28.42 26.37 27.00 27.82 28.23 28.26 27.24 27.41 27.56 28.58 29.90 29.64 27.07 25.65 25.61 25.81 25.62 21.08 25.05 24.09 26.25 26.58 31.87 33.17 34.13 34.64 35.16 35.62 35.97 36.17 36.42 36.99
26.95 26.80 27.64 26.88 31.55 34.29 29.90 26.87 26.92 26.68 31.12 33.17 33.46 33.99 34.07 33.80 32.13 27.44 23.32 22.42 20.45 22.04 25.11 22.83 22.64 22.69 24.12 24.59 26.54 31.89 32.88 33.58 33.75 34.26 34.81 35.39 35.99 36.56
26.40 26.55 30.72 30.28 33.15 34.33 30.21 26.21 24.23 24.25 24.86 25.56 24.77 25.23 27.16 25.56 30.44 26.12 22.56 20.95 20.67 19.99 22.79 21.13 22.44 22.75 20.09 21.51 22.53 25.22 25.86 30.14 31.91 33.04 33.99 34.59 35.15 33.07
25.77 26.13 26.68 32.10 33.54 33.47 32.54 24.91 25.24 28.58 26.02 22.59 22.73 23.03 23.78 24.01 24.96 25.17 24.83 23.39 21.58 20.38 24.67 25.13 22.48 21.94 21.90 20.41 22.32 24.88 25.11 25.46 25.58 27.11 31.24 32.91 33.99 34.28
25.80 25.85 26.17 32.16 31.99 30.83 28.73 29.98 31.02 29.48 22.64 21.97 21.66 21.46 21.99 22.40 23.05 23.74 24.76 25.04 25.50 23.93 24.57 24.42 21.34 20.59 20.26 19.33 19.04 22.97 24.26 25.25 25.66 25.54 26.77 30.50 33.46 34.93
26.97 29.71 31.42 30.38 28.76 26.08 27.72 29.08 28.41 22.00 21.43 20.15 20.45 21.31 21.72 22.32 22.70 23.04 23.69 24.04 22.31 23.24 24.65 23.89 23.41 22.75 21.84 19.98 19.57 20.94 22.64 24.21 26.32 26.12 26.62 26.41 28.03 30.03
28.83 23.66 26.58 26.18 26.06 25.50 23.95 23.59 22.64 22.05 21.79 21.49 20.56 21.42 21.97 21.35 21.10 21.53 20.80 21.32 20.89 20.35 23.30 23.85 22.44 22.66 20.94 21.31 21.74 21.12 23.53 22.75 25.92 26.46 26.57 27.22 29.32 31.23
25.76 21.11 19.99 19.99 19.65 20.13 20.79 21.24 21.40 21.26 20.63 20.55 20.32 20.09 20.35 20.41 20.16 20.86 20.72 20.43 18.97 19.11 19.11 21.32 23.08 23.30 22.88 22.30 20.86 22.30 23.25 24.16 25.40 25.84 26.54 27.07 29.09 30.51
21.22 18.48 18.03 18.34 18.22 18.74 18.92 19.08 19.68 20.61 19.76 20.07 19.53 19.53 18.90 18.90 19.24 20.77 22.17 20.31 18.62 18.73 18.96 20.29 20.58 20.34 20.99 23.19 27.15 22.37 23.63 24.30 26.04 27.21 28.28 26.73 27.13 30.01
18.60 17.94 17.40 17.75 18.03 18.51 18.47 18.18 17.55 18.83 18.98 18.89 18.86 18.85 19.33 20.38 20.91 18.64 19.66 20.08 19.47 19.51 19.74 20.57 20.68 21.28 18.95 16.78 23.14 30.54 25.77 26.48 27.21 27.08 27.38 27.20 26.91 28.98
18.20 17.44 17.28 18.05 18.35 18.32 18.28 17.87 18.11 18.24 18.35 18.14 19.36 20.25 19.17 18.85 18.45 18.93 19.92 19.64 19.57 20.78 22.48 23.07 21.88 21.06 19.67 19.84 22.42 26.41 30.95 27.30 26.44 25.66 26.04 27.91 30.12 33.61
18.04 17.91 18.39 18.47 18.56 18.80 18.65 18.17 17.83 17.50 20.18 19.83 17.55 18.30 19.19 19.53 18.98 20.26 20.61 24.14 25.11 22.73 20.86 21.63 24.73 30.38 27.57 26.98 24.18 24.78 28.14 31.71 31.14 28.50 28.51 28.00 27.00 27.58
18.20 18.01 18.67 19.13 19.05 18.60 18.21 17.81 17.43 17.60 17.42 17.92 18.30 19.28 20.44 21.00 20.66 21.06 21.99 22.12 22.82 23.70 24.28 25.39 26.99 27.68 26.70 25.67 23.88 24.27 25.76 28.70 31.80 33.18 33.65 32.47 28.98 25.62
17.85 18.80 19.05 19.13 19.13 18.75 18.45 17.86 17.80 17.70 17.84 18.70 19.20 20.57 21.45 21.33 22.69 22.90 22.64 23.22 25.71 26.64 26.96 25.40 26.27 27.21 26.46 26.16 26.66 26.18 26.40 27.64 28.47 28.84 30.00 34.26 35.19 35.48

GFSNE_sfc_wetblb_063.txt.gz
Wetbulb
34.38 34.14 33.33 32.27 30.70 30.01 29.66 28.55 26.40 22.16 22.37 25.76 26.21 27.94 28.85 29.04 31.09 32.06 30.01 35.63 38.34 39.10 39.67 40.15 40.59 41.23 41.91 42.33 42.80 43.51 43.58 44.06 44.50 45.20 46.02 46.43 47.06 47.48
34.43 32.87 32.61 31.04 29.32 29.03 28.58 28.11 27.10 25.21 22.21 24.25 24.77 26.06 27.90 30.75 31.70 32.14 30.90 35.74 36.41 37.67 38.59 38.88 39.63 40.35 40.74 41.23 41.52 42.11 42.43 43.04 43.75 44.63 45.48 46.19 46.41 46.47
33.15 32.75 31.90 31.09 29.16 28.55 27.56 26.96 25.92 24.95 22.63 24.32 24.90 26.09 25.42 26.74 28.83 28.66 29.96 28.96 30.09 36.25 37.70 38.49 38.96 39.49 39.87 40.21 40.50 40.90 41.47 42.07 42.88 43.56 44.16 44.56 45.23 45.45
32.31 31.95 31.15 32.47 29.73 27.97 26.54 25.83 25.23 24.58 23.65 23.03 23.57 24.39 25.03 26.55 26.73 26.54 29.40 31.24 30.41 34.30 36.85 37.80 38.17 38.42 38.74 39.05 39.41 39.88 40.26 40.50 40.63 41.02 41.69 42.42 43.14 43.67
32.39 31.97 31.10 29.83 28.70 28.24 25.61 24.81 24.80 27.00 24.55 23.39 24.33 24.87 25.13 25.70 26.05 27.03 26.97 27.92 29.91 33.71 35.38 35.72 36.67 37.28 37.90 38.59 39.09 39.09 38.81 38.82 39.05 39.17 39.58 40.33 41.14 41.98
31.68 30.40 29.89 28.74 27.33 25.49 25.89 25.30 26.21 24.65 24.39 24.59 25.26 24.59 24.29 25.95 25.43 25.40 25.47 26.66 26.39 29.30 31.86 33.39 35.41 36.11 36.72 37.04 36.95 36.70 36.57 36.95 37.64 38.10 38.35 38.85 39.49 40.48
30.04 28.85 29.61 31.43 34.01 32.85 30.27 26.96 26.21 25.61 25.20 24.03 24.53 24.06 23.05 26.15 24.89 25.99 24.63 25.42 25.94 27.27 27.04 26.45 27.07 27.40 29.03 32.46 33.02 34.14 34.60 35.93 37.22 37.95 38.61 38.86 38.98 39.44
27.39 27.39 26.90 29.73 30.15 33.71 34.38 34.92 33.73 28.53 21.35 20.25 18.28 26.55 25.44 25.05 25.98 24.84 24.43 23.59 22.98 26.89 24.39 26.03 27.66 26.44 27.26 27.44 32.32 34.40 35.58 36.33 36.66 37.10 37.36 38.02 38.22 38.97
26.13 25.85 26.85 29.03 29.35 27.00 31.16 34.18 33.57 35.11 34.66 30.41 26.51 25.42 24.51 25.84 26.04 24.79 25.53 24.85 24.76 26.68 25.77 23.37 25.87 24.34 26.43 27.79 32.68 33.93 34.95 35.49 36.16 36.68 36.77 37.15 37.54 38.28
25.55 25.45 24.93 25.68 27.26 29.99 28.46 27.63 27.72 27.82 28.12 28.32 26.38 26.70 26.56 28.28 29.55 28.97 27.21 25.00 25.38 25.75 25.34 20.34 24.19 23.35 25.89 26.49 32.01 33.42 34.26 34.94 35.47 36.02 36.16 36.35 36.34 36.62
26.48 26.14 27.43 26.85 31.23 33.92 30.02 27.55 26.38 26.22 30.45 32.62 33.05 33.56 33.56 33.32 31.76 26.99 23.07 22.51 20.37 21.76 24.49 22.14 21.91 22.41 23.99 24.44 26.34 31.85 33.31 33.99 34.39 34.70 35.04 35.29 35.45 35.95
26.32 26.61 30.43 29.80 33.30 34.27 29.28 24.75 22.47 23.12 23.90 24.49 24.44 24.89 26.54 25.01 29.85 25.43 21.41 20.22 20.59 19.50 22.30 20.15 21.81 22.46 18.67 21.42 21.41 24.72 26.49 30.32 31.95 32.91 33.80 34.21 34.54 31.83
26.26 26.26 26.70 32.06 33.39 33.16 32.02 23.65 24.57 27.78 25.69 21.73 22.01 22.30 23.11 23.32 24.27 24.52 24.24 22.51 20.74 19.59 24.15 24.71 21.30 21.79 21.27 19.97 21.50 23.43 24.39 24.86 25.05 26.44 30.48 31.83 32.88 32.73
25.94 25.84 26.12 31.83 31.18 30.41 28.26 29.55 30.64 29.31 22.00 21.37 21.06 20.90 21.48 21.99 22.48 23.07 23.72 23.54 24.54 23.61 24.82 24.86 21.29 19.69 19.15 18.12 17.79 21.92 23.60 24.09 24.39 24.29 25.06 28.96 32.02 33.67
27.13 29.10 29.87 29.09 28.06 25.28 27.39 28.75 28.06 21.28 20.94 19.63 19.87 20.84 21.28 21.65 21.73 21.07 21.73 22.16 21.84 23.07 24.72 24.35 22.93 22.04 21.19 19.13 18.45 19.76 21.28 22.81 24.12 23.53 24.34 24.88 25.17 26.44
27.70 22.21 25.62 25.32 25.30 24.83 23.34 22.96 22.06 21.44 21.15 20.72 19.71 20.81 21.28 20.05 19.78 20.26 19.23 19.71 19.85 19.89 22.73 24.01 22.61 21.61 20.13 20.61 20.63 19.50 21.15 20.26 22.70 24.53 25.06 26.20 27.50 28.38
25.08 20.50 19.36 19.19 18.78 19.22 19.98 20.52 20.73 20.61 19.86 19.71 19.76 19.72 19.35 19.54 19.13 19.81 18.97 19.04 18.22 18.56 19.24 21.48 22.91 22.62 21.93 21.31 19.84 20.68 20.88 21.30 22.95 24.11 25.18 25.14 26.52 27.43
20.73 17.71 17.38 17.64 17.48 17.98 18.29 18.54 19.06 19.81 18.74 19.06 18.60 18.08 17.89 18.17 18.47 19.98 21.26 18.86 17.90 18.56 19.02 20.42 20.55 20.21 20.55 22.10 25.86 20.78 21.65 22.40 23.64 24.43 25.76 25.19 26.09 28.89
17.89 17.21 16.83 17.16 17.35 17.96 17.96 17.60 16.77 18.01 17.78 17.25 17.02 17.07 18.19 19.10 20.32 17.82 18.60 19.13 18.98 19.68 20.49 21.50 21.04 20.80 19.14 17.29 23.63 29.96 24.60 24.98 25.38 26.10 26.94 26.58 25.95 27.53
17.46 16.89 16.79 17.43 17.74 17.69 17.63 17.24 17.40 17.41 16.92 16.89 17.76 19.51 18.94 17.77 17.51 18.19 19.06 19.05 20.01 21.74 23.04 24.45 24.06 23.56 21.22 20.51 22.52 26.40 30.69 27.35 26.74 25.86 26.03 27.66 28.93 32.09
17.17 17.21 17.86 17.95 18.03 18.33 18.25 17.82 17.09 16.61 19.41 18.89 16.62 17.66 18.27 18.89 19.02 19.94 20.15 24.17 25.13 23.13 21.96 23.28 26.50 31.82 28.98 27.99 24.08 24.84 28.37 31.95 31.43 28.77 28.23 27.12 26.07 26.86
17.21 17.26 17.99 18.66 18.56 18.07 17.63 17.35 16.66 16.59 16.45 16.53 17.21 18.15 19.47 21.28 20.88 20.81 21.65 21.93 22.58 22.92 23.40 27.19 28.83 28.21 26.83 25.46 24.07 24.98 26.46 29.09 31.78 33.21 33.53 32.83 29.17 25.62
16.44 17.38 18.27 18.54 18.56 18.12 17.76 17.09 17.13 16.97 17.12 17.29 18.03 19.16 21.40 21.74 22.92 23.18 23.42 23.96 24.43 26.35 26.67 25.84 26.60 27.33 26.68 26.21 26.61 25.84 26.11 27.67 28.74 29.06 30.28 34.39 35.18 35.28

GFSNE_sfc_wetblb_066.txt.gz
Wetbulb
35.75 35.17 34.65 33.89 33.97 33.23 32.44 31.18 27.99 23.05 23.38 27.28 26.31 26.79 27.33 27.99 30.65 31.32 30.00 35.43 38.63 39.23 39.56 39.90 40.28 40.82 41.49 42.36 43.00 43.41 43.91 43.97 44.56 45.16 45.65 46.56 47.05 47.81
35.12 34.20 33.57 33.10 32.38 32.40 31.58 29.79 28.60 26.30 22.81 24.62 26.74 26.82 27.04 29.97 30.85 31.80 29.96 36.09 36.98 37.97 38.45 38.58 39.11 39.88 40.53 40.98 41.66 42.25 42.61 43.12 43.64 44.71 45.35 45.97 46.54 46.91
33.85 33.58 32.64 32.45 31.67 31.02 30.67 28.34 27.74 25.90 23.47 24.77 25.49 25.79 24.59 26.19 28.34 27.94 29.03 27.85 29.01 35.84 37.60 38.03 38.50 39.20 39.80 40.13 40.44 41.05 41.41 42.18 42.81 43.71 44.28 44.83 45.05 45.32
32.91 32.71 31.92 33.05 30.85 30.44 29.58 29.15 26.98 26.11 24.94 22.17 23.03 23.72 24.30 26.37 26.62 25.87 28.97 31.14 29.93 33.91 36.55 37.60 37.84 38.18 38.62 39.07 39.38 39.89 40.35 40.94 41.49 41.73 41.90 42.40 43.03 43.78
33.76 33.44 32.50 31.71 30.59 29.85 28.42 27.38 26.56 27.17 24.65 23.01 23.10 24.24 24.60 25.21 24.75 25.74 26.23 27.77 29.14 33.52 35.34 35.58 36.32 37.15 37.75 38.45 38.80 38.87 38.77 38.98 39.18 39.44 39.91 40.36 41.09 41.96
32.35 31.74 30.93 30.02 29.14 28.66 28.27 27.68 26.34 25.19 24.66 24.19 24.11 22.47 24.24 25.35 24.56 24.98 25.33 26.29 26.53 29.04 31.79 33.11 34.91 35.82 36.38 36.80 36.78 36.49 36.36 36.87 37.80 38.43 38.72 38.75 39.08 40.09
30.67 30.44 30.59 31.82 33.94 33.07 30.83 28.74 27.21 25.83 24.12 21.02 24.57 24.56 20.94 27.67 25.49 26.11 24.62 25.40 25.87 26.84 26.77 26.66 26.82 27.14 28.54 32.37 32.81 33.80 34.32 35.78 37.05 38.04 38.54 39.09 39.32 39.65
28.70 28.13 28.69 30.04 31.02 33.34 33.91 34.78 33.36 27.77 22.44 19.51 19.31 23.82 26.26 24.43 25.18 24.69 24.57 24.48 23.22 27.05 24.46 26.08 27.57 26.47 27.42 27.55 32.09 34.13 35.40 36.25 36.89 37.25 37.59 38.00 38.47 38.88
27.67 27.44 27.77 29.34 29.31 27.53 30.92 33.84 33.40 34.79 34.27 30.09 26.01 24.78 24.02 25.37 25.91 24.93 25.49 24.76 24.80 26.95 25.60 23.24 26.04 24.51 26.67 27.57 32.18 33.72 34.99 35.68 36.26 36.59 36.79 37.19 37.68 38.17
26.39 26.15 25.66 26.07 27.07 29.38 28.39 27.48 27.78 28.29 28.21 28.18 26.06 26.32 25.88 27.42 27.60 27.72 25.70 24.43 25.03 25.59 25.03 20.53 24.43 23.32 25.57 25.95 31.44 33.20 34.33 35.12 35.60 36.10 36.35 36.55 36.78 37.13
27.30 26.71 26.99 26.47 30.92 34.10 29.41 27.00 25.83 25.48 29.51 31.90 32.61 33.09 33.06 32.77 31.09 26.42 22.18 21.28 19.30 21.30 24.09 21.92 21.67 21.83 23.75 24.30 26.10 31.49 33.15 34.07 34.50 34.63 34.97 35.19 35.47 35.73
27.07 26.70 30.44 30.12 33.44 34.16 28.75 24.53 21.73 22.36 23.11 23.93 23.93 24.41 25.89 24.42 29.57 24.90 19.32 19.74 20.11 19.29 21.94 20.66 21.21 22.09 17.68 21.44 22.01 24.58 26.07 30.12 31.75 32.75 33.52 34.06 34.38 31.79
26.31 26.30 26.68 32.23 33.03 32.69 31.88 23.45 23.89 26.82 25.07 21.10 21.33 21.70 22.52 22.79 23.80 24.07 23.59 18.92 20.18 19.83 23.67 24.26 19.81 21.21 21.06 19.37 21.26 23.36 23.85 24.11 24.24 25.84 29.89 31.28 32.12 32.07
26.19 26.12 26.29 31.42 30.47 29.79 27.80 29.37 30.59 28.41 21.44 20.79 20.55 20.39 20.99 21.56 22.02 22.59 23.16 22.77 22.82 22.13 23.14 23.32 20.55 18.59 19.59 18.33 17.63 21.31 22.09 23.39 23.81 23.62 24.38 27.86 30.74 32.33
27.07 28.72 29.36 28.55 27.74 24.82 27.01 28.43 27.09 20.58 20.36 19.13 19.43 20.26 20.67 20.98 21.10 20.14 20.60 20.75 19.80 20.59 22.24 21.70 21.60 21.27 20.72 18.55 17.85 19.24 20.56 22.54 23.84 22.89 23.11 23.28 23.35 25.02
27.23 21.90 25.09 25.12 24.89 24.39 22.69 22.13 21.43 21.00 20.91 20.17 18.84 19.95 20.51 17.36 19.01 19.14 17.98 18.68 18.15 18.97 21.69 21.86 21.10 20.73 19.67 20.15 20.15 18.92 20.65 19.53 21.75 22.99 23.09 24.41 26.10 27.23
24.71 19.86 18.64 18.46 18.16 18.58 19.33 19.90 20.13 20.06 19.36 19.09 18.32 18.80 18.55 18.45 18.31 19.10 18.08 18.40 17.79 18.33 18.43 21.54 23.07 23.25 22.85 22.11 19.69 20.31 20.35 20.47 21.88 21.88 22.35 22.72 24.56 26.06
19.96 17.11 16.84 17.02 16.87 17.37 17.79 18.02 18.52 19.27 18.09 18.11 17.52 16.93 16.62 16.65 17.05 19.85 20.19 17.87 17.57 18.29 18.84 20.78 21.58 21.49 22.24 24.15 26.16 20.23 20.99 21.48 22.77 23.66 24.75 23.20 23.59 26.93
17.29 16.28 16.03 16.50 16.73 17.31 17.35 17.06 16.30 17.41 16.61 16.17 15.97 15.69 16.35 17.26 20.13 17.28 17.57 18.65 19.23 19.69 20.74 22.72 23.92 23.36 20.24 18.61 25.61 31.41 25.54 25.77 25.98 26.13 26.53 25.76 25.39 27.15
16.65 15.82 15.86 16.81 17.17 17.11 16.99 16.69 16.80 16.74 16.33 15.99 16.26 17.94 17.80 17.20 17.29 17.46 18.95 19.62 19.95 22.24 23.62 24.32 24.02 24.51 23.54 23.42 24.75 27.08 30.78 27.43 26.68 25.71 25.98 28.04 29.36 32.43
16.07 16.01 16.85 17.18 17.56 17.97 17.66 17.00 16.10 15.93 18.75 18.38 15.19 15.22 17.07 18.99 18.68 19.79 21.00 24.74 25.44 23.43 22.10 23.16 25.58 31.42 29.90 28.61 24.41 25.09 28.63 32.13 31.71 29.18 29.00 27.92 26.88 27.69
16.24 16.07 16.82 17.61 18.23 17.75 17.29 17.07 16.07 15.87 15.32 15.73 16.05 17.04 18.65 20.54 20.89 22.21 22.63 21.97 22.42 23.31 23.72 26.32 28.66 28.50 27.37 25.96 24.31 24.63 26.01 28.59 31.67 33.27 34.18 33.09 29.47 25.97
15.22 16.18 16.31 16.31 17.07 17.71 17.46 16.47 16.29 16.12 16.22 16.38 17.12 18.18 20.26 20.70 23.02 24.22 24.36 24.18 23.61 25.24 26.94 26.37 27.41 27.55 26.54 26.22 26.45 25.25 25.13 26.53 27.59 29.01 30.33 34.74 35.45 35.64

GFSNE_sfc_wetblb_069.txt.gz
Wetbulb
38.49 37.15 36.72 36.17 36.49 35.17 35.37 34.89 33.63 29.27 30.09 31.90 33.47 34.83 35.62 35.80 36.11 36.89 36.88 37.22 38.70 39.76 40.09 40.27 40.40 40.70 41.25 41.98 42.76 43.38 43.94 44.35 44.78 45.63 46.29 46.90 47.57 48.02
36.09 35.27 34.79 34.52 34.76 34.23 34.51 32.82 33.10 31.35 29.60 32.89 32.10 34.35 34.48 34.41 35.69 36.49 36.30 36.52 37.35 38.35 38.86 38.88 39.18 39.68 40.21 40.80 41.54 42.15 42.75 43.35 43.90 45.02 45.90 46.40 46.79 47.27
34.99 34.84 33.53 33.39 33.32 32.40 32.67 32.00 31.42 30.84 28.83 31.66 31.74 32.96 32.36 33.19 34.34 35.48 35.31 35.09 35.32 36.55 37.82 38.20 38.57 39.27 39.72 40.05 40.55 41.04 41.67 42.14 42.92 43.80 44.74 45.33 45.95 45.93
33.63 33.66 33.52 34.39 32.58 32.50 31.82 31.11 30.58 30.86 30.34 28.62 30.81 31.43 31.19 33.05 33.61 33.09 33.30 34.12 34.38 35.08 36.76 37.70 38.29 38.48 38.75 39.05 39.44 39.93 40.39 41.06 41.48 41.90 42.26 42.99 43.82 44.34
34.38 33.66 33.13 33.53 32.86 32.73 31.17 30.25 31.08 30.64 30.23 28.66 28.77 30.88 31.35 32.35 32.69 32.84 32.10 32.66 32.81 34.21 35.58 35.98 36.69 37.21 37.73 38.31 38.75 39.00 38.87 39.10 39.39 39.63 40.14 40.74 41.44 42.26
33.48 33.21 32.51 31.68 31.27 30.88 30.60 30.79 31.18 29.74 30.28 30.15 29.78 30.29 30.78 32.40 31.60 29.65 29.67 31.68 31.15 32.54 33.82 34.43 35.56 35.97 36.63 36.96 36.82 36.62 36.65 36.98 37.84 38.51 38.86 39.07 39.40 40.15
32.04 32.25 32.19 32.14 33.55 33.97 33.75 32.31 31.31 31.03 31.09 30.92 30.08 30.19 30.08 29.75 28.82 29.83 28.36 29.89 30.98 32.41 31.76 32.24 32.47 32.68 33.32 34.36 34.11 34.29 34.69 35.93 37.11 38.01 38.58 39.18 39.47 40.16
30.47 29.98 30.44 31.81 32.43 33.23 33.78 34.45 34.62 32.69 31.18 30.28 30.04 28.50 28.91 28.74 29.34 28.75 28.44 27.37 24.99 32.64 30.28 29.79 32.38 30.70 32.04 32.60 33.74 34.60 35.64 36.28 36.69 37.34 37.80 38.24 38.55 39.12
29.70 30.03 30.07 30.74 30.95 30.15 31.97 33.57 33.62 34.36 34.41 32.47 29.25 28.36 27.65 29.04 30.00 28.34 28.83 27.97 26.77 30.34 29.83 27.05 30.58 29.22 31.51 31.52 33.19 33.96 34.84 35.45 36.22 36.83 37.18 37.37 37.64 38.27
29.58 29.44 29.02 29.46 30.09 31.81 31.82 31.73 31.60 31.51 30.93 30.64 30.37 29.96 30.78 31.58 31.37 30.76 29.81 28.83 28.84 29.48 29.74 23.65 29.34 28.05 30.22 30.83 32.54 33.27 34.04 34.83 35.26 35.83 36.49 36.70 36.61 36.83
29.29 29.27 30.56 30.01 31.64 34.22 32.74 30.28 29.03 28.76 30.27 31.41 32.38 32.76 32.87 32.72 31.98 29.93 27.25 25.20 22.59 25.43 28.46 25.77 27.16 27.43 28.54 28.48 30.50 31.97 32.74 33.60 34.16 34.66 35.03 35.16 35.48 35.93
30.04 29.76 30.86 31.65 33.33 34.01 31.25 28.62 25.80 26.49 27.66 28.32 28.49 28.31 28.67 28.16 29.73 28.29 26.96 23.25 22.61 22.17 28.58 24.71 25.72 25.29 23.24 28.68 29.41 30.14 29.62 31.16 31.95 32.77 33.54 33.97 34.09 32.70
28.82 28.78 29.47 31.87 32.26 31.48 30.95 27.17 26.91 30.28 27.35 26.09 25.86 26.41 26.83 27.15 27.53 27.77 27.38 25.45 22.10 22.49 27.22 26.70 25.08 24.44 23.09 23.20 26.36 28.31 28.84 29.11 29.10 29.70 30.79 31.41 31.88 31.93
27.93 28.67 29.08 30.29 29.57 29.19 28.16 29.29 30.12 28.72 25.35 24.53 24.20 24.45 24.82 25.41 26.18 26.22 25.96 25.92 26.18 24.83 26.43 25.93 22.72 22.79 22.17 21.54 21.56 26.86 28.80 29.33 29.38 27.97 28.53 30.15 31.12 32.02
29.12 29.11 28.39 27.75 27.24 25.52 26.83 27.58 26.73 24.28 23.57 22.98 23.08 23.76 24.44 24.79 24.84 24.64 25.20 25.42 24.52 24.61 25.05 24.37 23.41 23.52 23.48 21.58 21.64 23.12 24.57 27.33 28.71 27.94 27.82 27.94 28.07 28.76
27.19 25.20 25.62 25.11 24.60 24.66 23.78 23.91 23.87 23.88 24.07 23.52 22.47 23.06 23.70 23.70 23.36 24.19 22.81 23.51 22.60 23.86 28.13 27.13 25.12 24.13 22.68 23.75 23.67 22.66 25.50 23.71 27.84 28.15 28.48 28.34 29.06 28.95
26.18 22.91 22.00 21.48 21.04 21.47 22.13 22.49 22.91 22.84 22.60 22.21 21.46 21.25 21.57 22.05 21.98 23.49 22.65 22.40 21.65 22.31 23.09 26.39 28.11 27.45 26.45 24.91 22.83 24.88 25.43 25.93 27.65 27.52 27.19 25.86 27.61 29.28
22.22 20.17 19.96 20.15 19.78 19.89 20.23 20.65 21.29 21.53 21.40 20.84 20.55 20.29 19.66 19.96 20.82 22.83 25.02 22.62 21.19 22.33 23.78 25.82 25.95 25.69 27.23 28.63 28.64 24.53 26.18 26.37 28.09 28.77 28.19 25.62 26.20 29.89
20.06 19.46 19.06 19.32 19.48 19.90 20.11 20.23 19.84 20.78 20.23 19.71 19.57 19.39 19.55 19.97 22.02 21.57 22.09 22.62 22.94 24.32 25.23 26.57 27.56 26.43 23.04 21.89 28.74 33.31 29.66 30.11 30.19 28.92 30.38 29.59 28.34 30.07
19.33 18.91 18.95 19.33 19.77 19.99 20.19 20.07 20.21 20.29 19.96 19.66 19.81 20.63 20.54 19.73 19.82 21.98 23.65 23.52 23.90 25.94 26.69 27.88 27.63 27.74 26.21 25.37 26.41 29.28 31.65 29.85 29.83 29.33 29.74 31.72 32.58 33.94
18.56 18.73 19.29 19.48 19.86 20.44 20.54 20.07 19.48 18.92 20.82 21.15 18.72 18.67 19.58 20.11 20.96 23.02 24.10 26.45 27.27 26.23 24.60 25.90 28.74 31.80 31.18 30.95 27.34 27.72 30.81 32.60 32.36 30.67 30.82 29.95 29.26 30.27
18.43 18.42 19.05 19.60 19.64 19.62 19.69 19.65 19.16 19.63 19.44 19.30 19.32 19.87 20.56 21.56 21.88 23.11 24.43 25.26 25.71 26.20 26.26 28.13 30.66 30.86 30.16 27.76 25.78 26.26 28.04 30.68 32.23 33.03 33.69 32.44 30.41 28.10
18.13 18.37 18.96 18.99 18.93 18.55 18.74 19.20 18.90 19.32 19.47 19.41 19.66 20.03 21.58 21.88 23.86 24.94 25.70 26.52 26.51 27.22 29.24 28.69 29.69 30.30 28.97 27.29 26.54 26.51 26.32 27.41 29.28 29.36 31.05 34.95 35.04 35.11

GFSNE_sfc_wetblb_072.txt.gz
Wetbulb
46.37 40.89 38.30 37.85 37.29 37.69 37.36 38.07 36.22 33.72 31.91 32.96 34.11 35.93 37.21 37.88 38.48 39.05 38.87 39.59 39.76 40.37 41.06 41.05 41.03 41.14 41.48 42.05 42.61 43.11 43.60 44.05 44.61 45.38 46.13 46.78 47.60 48.31
38.93 37.49 36.12 36.10 35.77 35.63 34.60 35.20 33.60 32.11 29.63 32.32 33.00 34.83 35.20 35.84 37.17 37.18 37.98 38.12 38.85 39.55 39.86 39.67 39.59 39.94 40.41 41.01 41.76 42.28 42.75 43.28 44.06 44.83 45.73 46.29 46.60 47.39
36.85 35.75 34.65 35.37 34.26 34.59 33.54 33.92 33.53 32.97 31.19 32.34 32.34 34.17 33.87 34.84 36.51 37.71 37.99 37.90 37.87 38.37 38.92 38.86 38.80 39.54 40.21 40.51 40.78 41.20 41.70 42.33 42.87 43.47 44.47 45.25 45.79 46.16
35.09 34.29 33.55 35.41 34.30 34.32 34.27 33.26 32.39 33.30 31.63 29.30 32.34 33.04 34.33 35.32 35.07 35.38 35.98 36.35 36.18 36.88 37.62 38.05 38.78 38.90 39.21 39.48 39.65 40.15 40.50 40.99 41.34 41.94 42.33 42.95 43.70 44.14
36.15 35.35 34.66 34.95 33.63 33.37 32.74 32.17 32.22 32.89 31.89 30.58 30.74 34.13 33.45 33.87 33.86 35.57 35.27 35.03 35.42 36.33 37.07 37.30 37.76 38.05 38.56 38.96 39.25 39.43 39.27 39.39 39.65 39.83 40.28 40.84 41.45 42.10
35.52 35.02 34.19 33.88 33.00 32.48 32.93 31.72 31.78 32.05 32.67 32.65 32.37 32.64 33.59 35.17 34.76 32.58 32.14 33.58 33.37 35.07 36.15 36.71 37.12 37.17 37.59 37.94 38.01 37.66 37.38 37.61 38.19 38.66 38.80 39.03 39.35 40.22
33.39 33.79 33.50 33.91 34.17 33.64 33.92 34.37 33.75 32.59 31.94 32.21 32.38 33.10 33.04 32.92 31.71 32.35 30.43 31.79 33.05 34.38 34.02 34.77 35.37 35.49 36.16 37.18 36.66 36.52 36.55 36.95 37.47 38.17 38.87 39.26 39.37 39.70
31.61 31.57 32.22 34.29 34.63 34.51 34.65 34.73 34.65 33.53 33.41 33.09 32.05 31.16 31.91 31.82 31.52 30.28 29.87 29.08 27.12 34.52 33.03 32.15 34.84 33.68 35.16 35.70 36.52 36.46 36.67 36.84 36.90 37.40 37.88 38.18 38.53 38.95
30.89 31.10 32.28 32.89 32.45 31.69 32.18 33.77 34.71 34.98 35.15 33.85 31.21 30.82 29.90 30.83 31.05 30.04 29.43 29.51 28.50 32.08 32.06 29.45 33.23 31.85 34.68 34.92 36.06 36.05 36.15 36.23 36.54 36.81 37.03 37.38 37.68 38.28
32.28 32.28 31.13 30.94 31.10 32.30 33.43 33.83 33.91 34.10 33.73 32.98 32.16 31.38 31.89 33.02 33.12 32.27 31.68 30.89 31.50 32.74 33.13 27.96 32.01 31.03 33.57 34.56 35.69 35.66 35.76 35.92 35.95 36.14 36.41 36.68 36.77 37.00
31.39 31.37 32.06 32.12 31.90 34.19 33.83 32.19 31.76 31.64 32.53 31.87 32.48 33.18 33.44 33.46 32.90 31.25 29.28 28.71 26.56 28.15 31.65 29.25 30.58 30.42 31.97 32.32 33.44 34.64 34.36 34.38 34.87 35.42 35.57 35.66 35.83 36.13
32.13 31.93 30.95 32.33 33.02 33.24 31.88 30.56 28.22 28.44 29.92 30.66 31.45 31.70 31.91 31.73 31.32 30.88 30.09 25.87 24.88 24.77 32.01 27.30 28.22 28.19 25.43 30.31 31.64 32.81 32.44 33.99 34.17 34.50 34.72 34.70 34.70 32.84
30.96 30.60 31.39 31.40 31.48 30.88 30.64 29.49 27.93 30.90 31.08 29.86 29.69 30.34 30.88 31.26 31.34 31.59 30.92 28.12 24.93 24.36 29.77 28.98 27.55 26.68 25.80 25.43 28.55 31.48 31.94 31.95 32.59 33.28 33.82 33.91 33.83 33.23
29.46 30.37 30.71 29.83 29.28 28.95 28.69 29.07 30.06 30.00 28.94 28.22 28.01 28.48 28.82 29.38 30.25 30.20 29.56 29.33 29.13 27.94 29.58 28.70 24.39 24.36 23.54 22.19 23.39 29.40 31.51 32.27 32.13 31.00 31.95 33.32 33.75 33.99
30.82 29.63 28.21 27.87 27.57 27.50 27.21 27.89 28.07 28.03 27.38 26.87 27.02 27.72 28.44 28.66 28.40 29.04 30.83 30.55 29.45 29.69 29.72 28.33 26.61 25.07 24.38 22.83 23.52 25.39 26.76 29.21 30.86 30.80 31.08 31.10 30.98 31.42
28.85 28.82 26.44 25.93 25.75 25.98 26.43 27.18 27.50 27.35 26.94 26.81 26.52 27.02 27.72 27.67 27.65 29.03 26.81 27.50 25.74 27.46 32.30 31.25 30.05 27.64 24.16 25.56 25.32 24.64 27.64 25.50 29.82 30.56 31.04 30.92 30.98 31.13
28.19 26.62 26.03 25.61 25.27 25.89 26.28 26.49 26.84 26.75 26.38 26.44 25.37 25.23 25.82 26.69 26.81 28.13 26.40 26.46 25.12 24.91 26.49 30.41 32.01 31.14 29.56 27.61 25.13 26.66 26.84 27.51 30.37 30.62 29.93 28.61 30.20 31.40
25.60 24.14 24.14 24.49 24.18 24.20 24.42 24.96 25.84 25.46 25.93 25.04 24.56 24.51 24.12 24.46 24.69 26.12 27.56 27.02 25.17 25.10 25.95 29.13 29.49 28.18 29.46 30.75 31.49 27.62 28.88 29.22 31.50 31.73 31.67 29.63 29.75 32.81
23.69 23.61 23.22 23.60 23.75 24.14 24.52 24.63 24.48 25.38 24.66 23.85 23.73 23.64 23.42 23.72 25.00 25.32 26.25 26.56 26.01 26.05 27.05 29.13 29.06 27.96 24.90 24.11 30.68 34.45 30.62 31.48 31.16 30.53 31.06 30.97 30.09 31.94
22.86 22.61 22.99 23.58 23.98 24.15 24.30 24.06 24.23 24.74 24.50 24.19 23.77 24.40 24.43 23.88 23.69 24.51 25.65 25.56 26.01 27.30 27.87 29.36 29.51 28.74 27.37 26.07 26.71 30.10 32.79 30.74 30.59 30.00 30.16 31.83 33.19 34.98
22.56 22.40 23.22 23.59 24.10 24.60 24.70 24.19 23.76 23.33 23.90 24.13 23.22 23.18 23.66 24.14 23.98 24.85 25.62 27.32 27.87 26.92 26.49 27.39 30.22 33.04 31.59 31.54 28.84 29.18 31.60 33.35 32.90 30.97 30.90 29.79 29.05 29.98
22.33 22.24 22.81 23.49 23.96 24.22 24.26 23.95 23.35 23.85 23.93 24.05 24.08 24.10 24.24 24.60 24.26 24.80 26.33 26.52 26.12 27.12 27.89 30.10 31.96 32.01 31.10 29.65 27.91 28.45 29.16 31.09 32.78 33.31 33.62 32.62 29.47 27.50
22.34 22.45 22.83 23.33 23.81 23.74 23.50 23.41 23.08 23.64 24.10 24.04 24.14 24.03 24.10 24.06 25.17 26.34 27.38 27.48 28.01 28.10 29.90 29.10 30.48 31.37 30.52 30.08 29.85 29.22 28.73 28.56 29.79 29.70 31.23 34.66 34.90 34.88

GFSNE_sfc_wetblb_075.txt.gz
Wetbulb
48.29 43.77 40.93 39.42 39.47 39.64 39.62 40.71 40.63 36.77 33.90 34.08 34.15 36.45 36.85 36.75 37.78 37.80 36.92 39.13 41.39 41.85 42.07 42.42 42.50 42.50 42.55 42.71 43.10 43.48 43.91 44.37 44.83 45.50 46.18 46.50 46.80 47.97
42.76 39.73 39.20 37.92 37.02 36.82 36.67 35.39 35.33 34.92 32.66 33.76 33.92 35.36 35.56 36.81 37.77 37.98 36.96 38.75 40.11 40.88 41.37 41.30 41.18 41.33 41.23 41.52 42.21 42.83 43.31 43.63 44.21 44.97 45.60 46.06 46.53 46.70
40.19 38.02 36.63 36.96 35.71 35.17 35.58 35.53 34.38 34.31 32.68 33.74 34.45 35.08 33.91 34.20 35.17 35.89 37.01 36.45 37.22 39.45 40.09 40.22 40.19 40.18 40.74 41.40 41.61 41.91 42.29 42.68 43.13 43.86 44.52 44.72 45.34 45.67
36.80 36.62 35.49 36.25 35.65 35.50 36.06 34.53 34.15 33.45 33.42 31.89 32.87 32.86 32.13 34.79 34.75 34.16 35.01 36.95 36.27 37.98 39.31 39.31 39.47 39.94 40.25 40.49 40.62 40.92 41.12 41.45 41.75 42.17 42.61 43.13 43.57 44.01
36.30 36.18 36.11 35.88 35.17 34.55 34.14 33.41 33.15 33.68 32.33 30.79 30.89 33.59 33.76 34.34 33.94 35.02 35.13 35.14 35.94 37.71 38.33 38.62 39.26 39.46 39.69 39.97 40.19 40.29 40.18 40.19 40.34 40.24 40.49 40.91 41.57 42.27
36.74 37.01 36.32 35.74 34.38 33.59 33.51 32.78 32.46 31.64 32.14 32.07 32.08 32.82 33.47 34.54 34.31 32.59 31.93 33.51 32.23 34.97 36.62 37.43 38.43 38.63 39.13 39.49 39.54 39.16 38.85 38.87 39.04 39.19 39.26 39.40 39.64 40.39
33.98 34.36 34.69 35.43 36.11 34.80 34.02 33.70 33.82 32.93 32.47 32.55 31.60 32.72 33.11 31.85 30.78 31.69 29.78 30.58 31.63 33.26 32.54 33.23 33.18 33.68 34.63 37.11 37.26 37.91 38.20 38.57 38.70 38.98 39.26 39.32 39.25 39.76
31.52 31.78 33.59 35.10 35.42 35.53 35.18 34.97 34.75 32.39 32.39 32.55 32.82 30.21 30.91 30.98 30.77 29.36 28.67 27.43 25.98 32.66 30.33 30.14 33.19 31.72 33.13 33.86 37.30 38.06 38.24 38.25 38.32 38.39 38.46 38.53 38.54 38.70
31.58 31.87 31.89 32.98 32.84 31.93 32.27 33.38 34.20 35.34 35.39 33.43 30.71 30.37 29.19 30.02 29.73 28.82 28.90 29.05 27.92 30.86 30.42 28.21 31.77 30.49 32.81 34.26 37.12 37.61 37.96 38.12 37.96 37.97 37.91 37.91 38.06 38.33
32.68 32.28 31.56 31.49 31.74 32.07 33.15 33.65 33.84 33.77 33.94 33.34 31.60 30.61 30.42 31.28 31.40 31.07 30.29 29.59 30.02 30.80 31.93 26.52 30.28 29.43 31.83 32.91 36.65 36.87 37.09 37.21 37.07 36.99 37.13 37.21 37.30 37.54
31.46 31.43 32.18 32.07 32.98 34.21 33.21 32.62 31.43 30.71 33.34 32.93 32.74 33.41 34.08 34.31 33.76 30.35 27.45 27.05 26.22 26.69 29.56 27.16 28.06 28.33 29.20 29.39 30.92 35.56 35.96 36.45 36.53 36.77 36.90 36.79 36.77 36.75
31.96 31.72 31.56 32.22 33.25 33.29 30.73 29.37 27.27 27.67 28.75 29.74 29.91 30.63 31.83 31.06 33.26 30.11 28.59 26.00 24.99 24.52 28.96 27.05 26.93 26.46 24.95 27.78 28.53 29.58 29.42 33.91 35.32 35.87 35.88 36.27 36.45 33.29
30.12 29.92 30.59 31.38 31.50 31.11 31.07 28.39 27.33 29.66 29.94 28.32 28.00 28.26 29.00 29.47 29.83 30.20 30.30 29.42 25.97 24.76 28.45 28.85 24.62 25.29 24.83 24.17 26.39 27.64 27.99 28.70 29.64 31.18 34.22 34.76 34.88 34.44
28.58 29.48 30.19 30.65 29.89 29.71 28.94 29.64 30.57 30.38 27.76 26.84 26.76 27.20 27.73 28.55 29.48 29.67 29.08 28.99 29.24 27.76 28.17 27.90 24.90 23.93 22.65 21.49 21.11 24.86 26.70 27.87 28.49 28.65 29.43 32.43 34.20 34.76
30.00 29.36 29.21 28.75 28.75 28.27 28.34 28.86 28.88 26.87 26.43 26.19 26.25 26.94 28.18 28.42 28.20 27.85 29.49 29.92 29.33 29.76 29.60 28.02 27.48 26.33 24.76 22.33 21.69 23.00 24.65 25.81 27.53 27.25 29.51 30.30 30.12 30.75
29.80 29.33 27.49 27.42 28.06 27.13 27.06 27.29 26.81 26.45 25.98 25.33 26.43 26.93 27.41 27.20 26.64 27.92 26.79 26.55 25.35 25.93 28.13 28.79 29.89 28.78 25.96 25.68 25.08 24.06 25.87 24.30 27.15 28.47 29.41 30.29 30.81 30.65
27.99 26.13 25.32 25.05 24.75 25.35 25.79 26.09 26.16 26.05 25.66 26.47 25.46 25.34 25.04 25.69 25.58 26.95 26.56 25.95 24.82 25.01 25.72 28.12 30.30 30.99 30.37 28.40 25.33 25.87 26.44 27.10 28.72 28.49 28.67 28.60 30.52 31.39
25.08 23.84 23.46 23.93 23.86 24.22 24.35 24.74 25.68 26.18 25.82 25.46 23.81 23.90 23.37 23.46 23.25 25.24 26.50 26.06 25.04 25.28 25.85 27.35 27.84 28.05 28.62 29.55 32.26 27.79 28.49 28.58 29.63 30.50 31.23 29.49 29.47 31.54
23.46 23.23 22.84 23.38 23.76 24.35 24.59 24.46 23.92 25.03 25.69 24.72 24.44 23.64 23.47 23.72 23.83 24.21 25.24 25.44 25.08 25.37 26.40 28.03 28.00 27.05 24.20 22.46 28.64 34.61 29.12 28.98 28.94 29.36 30.11 29.67 29.03 30.80
23.25 22.43 22.56 23.45 23.86 24.53 24.39 24.06 23.94 24.19 24.27 23.93 23.87 24.51 24.51 23.66 23.07 23.57 24.74 24.73 24.91 25.84 26.59 27.53 27.36 27.13 26.02 25.23 26.14 29.47 33.09 29.69 29.21 28.79 28.99 30.42 31.49 34.25
22.94 22.62 22.91 23.09 23.67 24.78 24.83 24.63 24.06 23.23 24.19 24.50 24.12 24.00 24.25 24.02 23.04 24.06 24.64 26.97 27.09 25.94 24.79 25.03 26.87 32.85 31.08 30.98 27.84 27.77 30.76 33.82 33.26 30.66 29.67 28.63 27.45 27.94
22.62 22.30 22.69 23.02 23.20 23.42 24.17 24.23 23.49 23.25 23.33 23.72 24.02 24.34 24.30 24.23 23.07 23.62 24.40 24.47 25.35 25.93 25.96 27.51 29.79 30.10 28.73 27.82 26.62 27.73 29.28 31.32 33.57 34.50 34.43 33.13 28.73 25.15
22.42 22.55 22.51 22.73 23.08 23.03 22.56 22.61 22.46 22.73 23.30 23.86 23.91 24.01 24.12 23.18 23.94 24.45 25.00 25.35 25.95 26.51 27.31 27.76 28.91 29.25 28.98 29.68 29.49 27.98 28.24 28.87 29.58 29.48 30.70 34.63 34.84 34.75

GFSNE_sfc_wetblb_078.txt.gz
Wetbulb
49.93 45.81 42.94 42.30 42.89 42.79 41.67 42.66 41.98 36.99 36.22 34.90 34.74 36.97 37.78 38.04 38.48 38.23 37.42 39.07 41.47 43.17 42.65 42.87 42.74 43.04 43.31 43.46 43.58 43.66 44.00 44.48 45.07 45.69 46.21 46.70 47.22 47.89
43.53 42.52 40.96 40.00 39.21 39.10 39.82 40.21 41.12 38.67 35.39 35.03 34.56 35.50 36.27 37.37 38.16 39.06 38.57 40.02 40.36 41.35 41.63 41.80 41.89 41.96 42.17 42.26 42.33 43.00 43.63 43.97 44.58 45.22 45.77 45.94 46.36 46.83
41.15 39.87 38.25 37.92 37.35 37.85 38.92 38.30 36.37 35.95 34.49 33.27 34.69 35.63 34.91 35.36 36.38 36.53 36.63 35.67 35.63 39.42 40.13 40.56 40.82 40.93 41.03 41.45 42.05 42.43 42.67 43.06 43.57 44.09 44.58 45.18 45.47 45.80
37.13 36.87 36.94 38.43 37.04 37.74 37.29 35.58 34.56 34.48 34.54 33.21 33.49 33.42 33.05 33.92 33.93 33.43 34.43 35.66 33.71 37.88 39.62 40.01 40.07 40.11 40.61 41.00 41.22 41.43 41.66 41.92 42.18 42.42 42.85 43.25 43.61 44.09
36.93 36.62 36.28 36.27 35.71 35.87 34.54 33.79 33.81 33.99 32.69 31.43 30.23 32.33 32.14 31.75 29.92 31.27 31.44 31.92 34.70 37.71 37.91 38.25 38.92 39.63 40.11 40.61 40.71 40.92 40.82 40.91 41.04 40.95 41.06 41.30 41.63 42.33
36.74 36.59 36.36 35.79 34.72 33.81 33.78 33.32 32.75 31.50 30.52 29.73 28.39 29.71 31.40 31.40 30.08 29.31 29.22 30.35 29.70 33.46 34.95 36.60 37.75 38.36 38.94 39.19 39.36 39.15 39.01 39.30 39.78 40.02 40.09 40.23 40.27 40.87
34.12 34.76 35.39 36.50 36.77 35.68 33.79 32.94 32.24 30.62 30.38 29.98 29.08 29.68 27.79 28.57 27.85 28.31 25.95 26.31 27.95 29.57 28.91 29.41 29.48 31.22 32.40 35.98 36.23 37.31 37.93 39.10 39.53 39.87 40.14 40.14 39.93 39.98
31.89 32.19 33.36 34.98 35.81 36.21 35.99 35.69 34.81 31.95 30.86 28.19 27.81 27.70 28.17 26.60 26.76 26.63 24.80 23.34 23.06 28.79 27.13 29.00 29.56 29.73 30.94 31.32 36.23 38.01 38.55 38.84 39.20 39.57 39.86 39.51 39.51 39.57
31.79 31.90 32.69 33.20 32.60 31.76 32.43 33.50 34.18 35.25 35.07 31.41 28.64 27.89 25.87 26.29 25.01 23.61 24.99 22.77 24.93 29.03 27.57 26.55 29.13 27.98 30.57 32.51 36.17 37.27 38.01 38.24 38.40 38.73 38.75 38.57 38.60 38.79
30.14 29.98 30.22 30.50 31.09 31.93 32.25 30.66 30.95 31.58 32.06 31.95 28.08 27.44 26.91 27.56 27.45 25.48 24.23 25.29 27.15 27.57 27.34 24.44 26.57 26.38 28.98 29.11 35.05 35.85 36.54 37.18 37.58 37.72 37.94 38.10 37.98 38.13
29.25 29.67 29.95 29.34 33.56 34.59 30.83 28.32 27.09 27.00 31.98 33.10 33.16 33.98 34.46 34.84 33.77 25.55 21.11 19.56 23.25 24.50 26.88 24.28 24.28 25.20 27.38 27.39 28.51 34.10 35.07 35.25 35.43 36.10 36.99 37.38 37.52 37.51
28.08 29.01 32.81 31.52 33.24 32.93 27.90 25.24 23.30 23.39 24.29 26.38 26.22 27.61 29.34 27.89 33.38 27.56 21.08 16.60 25.12 23.86 25.02 21.07 22.05 23.17 22.93 24.24 25.12 27.04 26.70 31.80 33.68 34.22 35.07 35.95 36.24 33.41
25.65 25.85 26.85 31.63 31.28 30.95 30.75 24.16 24.66 26.61 27.38 24.44 23.68 23.91 25.25 25.86 27.08 27.60 28.00 28.11 25.96 25.36 28.03 28.60 22.82 25.40 24.50 23.74 23.97 23.67 25.61 25.84 26.90 28.19 31.91 33.62 34.47 34.50
24.75 25.27 26.19 30.62 30.03 29.90 27.96 29.54 30.40 29.68 24.47 23.24 23.45 22.77 23.52 25.34 28.44 28.57 28.38 28.48 28.88 27.53 28.84 28.53 24.93 24.43 23.14 22.25 21.92 23.69 25.20 26.52 25.74 25.97 27.00 30.28 33.38 34.36
26.18 28.24 29.49 29.04 28.74 26.27 28.75 29.22 28.85 23.03 23.23 21.52 21.67 22.55 26.95 27.68 28.09 27.71 29.00 29.66 29.29 29.31 29.58 27.83 26.91 26.64 25.98 23.69 23.06 23.73 25.15 26.25 27.05 26.11 24.21 27.22 27.54 28.89
28.32 25.13 26.96 27.72 28.36 26.79 25.74 25.19 24.16 23.37 21.64 18.82 19.94 26.17 26.67 26.36 25.89 27.13 25.93 26.31 25.32 25.79 29.15 29.79 28.54 28.17 26.24 26.62 26.22 24.52 25.62 24.65 27.11 27.76 28.23 28.77 29.37 29.74
26.15 22.33 21.17 21.34 21.40 22.22 22.84 23.28 23.23 23.39 21.36 23.99 25.12 24.40 24.62 25.00 24.74 25.81 25.37 24.64 23.40 24.50 25.48 28.12 30.02 29.95 29.39 28.23 26.32 27.43 27.50 27.78 29.20 28.59 28.13 28.13 30.47 31.07
22.66 19.98 19.61 20.23 20.41 21.79 22.10 22.36 24.16 25.57 25.25 25.11 23.91 23.48 23.35 23.21 23.13 24.08 24.23 23.80 24.02 24.67 25.21 26.52 27.28 27.47 27.76 27.86 31.70 27.52 27.37 26.92 28.93 29.56 29.92 28.37 28.17 30.95
20.23 18.93 18.99 19.55 19.93 20.40 23.06 23.90 23.47 24.39 24.94 24.50 24.29 23.72 23.65 23.60 24.01 23.15 22.67 23.73 24.07 24.98 25.58 26.89 27.01 25.59 22.31 20.61 26.22 33.43 27.80 28.63 29.23 29.30 29.71 29.32 28.51 29.80
19.76 18.41 17.89 19.19 19.17 17.99 22.56 23.69 23.96 24.05 23.56 23.59 23.47 23.68 23.72 22.85 22.03 20.13 20.74 22.42 23.45 24.69 25.03 24.87 23.62 23.50 22.78 23.13 24.81 28.48 32.84 29.51 29.37 28.71 28.86 30.20 31.54 34.29
19.27 18.77 19.19 18.33 17.26 16.57 18.57 23.88 23.81 23.20 23.41 23.68 23.63 23.49 23.19 22.90 21.33 21.03 21.83 25.27 26.06 24.57 22.97 23.10 25.20 31.43 29.09 29.35 26.80 26.57 28.64 33.26 33.13 31.09 30.91 29.84 28.65 28.84
19.31 18.39 18.79 17.66 15.65 12.22 11.39 12.09 15.60 15.72 21.72 22.44 23.03 23.46 20.87 21.54 21.16 21.14 21.82 21.91 21.96 22.83 23.84 25.01 26.75 27.22 28.30 27.28 25.74 26.54 28.20 30.07 32.44 33.86 34.47 33.81 29.87 26.44
18.15 18.50 16.49 14.91 11.90 10.74 9.49 10.01 11.90 14.66 16.72 21.79 22.42 21.72 21.34 21.28 22.02 22.69 22.54 22.71 22.90 23.74 25.10 25.29 25.86 27.34 27.02 26.94 28.14 27.71 26.78 26.97 27.81 27.82 29.50 34.10 34.81 34.94

GFSNE_sfc_wetblb_081.txt.gz
Wetbulb
55.05 52.32 47.67 45.07 45.21 44.41 44.14 45.36 44.37 37.42 35.83 37.47 37.45 38.68 39.45 39.70 39.99 39.80 38.92 40.14 42.19 43.07 44.22 44.69 44.19 43.85 44.30 44.36 44.40 44.58 44.42 44.59 45.15 45.98 46.46 46.79 47.38 47.76
44.17 43.03 41.64 41.90 41.41 42.56 42.75 43.29 43.23 41.91 39.84 36.56 35.57 36.15 37.42 38.53 38.52 38.94 38.39 39.79 41.63 42.62 42.57 42.33 42.36 42.51 42.70 42.85 43.00 43.14 43.61 44.31 44.69 45.32 45.86 46.16 46.47 46.70
41.15 39.76 38.60 39.53 38.73 39.12 39.29 39.25 38.76 38.40 36.63 34.19 35.84 36.08 35.14 35.35 36.63 38.05 38.06 36.47 36.28 39.45 40.53 41.05 41.41 41.60 41.79 41.85 42.12 42.65 43.12 43.41 43.75 44.24 44.59 45.09 45.61 45.90
38.19 38.04 37.50 38.67 37.57 37.52 37.53 36.35 36.39 35.65 35.75 33.76 34.00 34.16 34.04 34.76 34.22 33.74 34.84 35.85 34.64 37.85 39.92 40.34 40.19 40.17 40.65 41.12 41.43 41.80 42.11 41.90 42.06 42.35 42.59 43.14 43.48 44.08
37.81 37.43 36.93 36.76 35.92 35.73 35.20 34.35 34.40 34.86 33.35 32.70 30.42 31.47 31.02 31.17 30.56 32.31 32.82 32.73 34.27 36.93 37.35 37.92 38.50 39.07 40.00 40.51 40.87 40.69 40.48 40.62 40.91 40.93 41.11 41.49 42.03 42.58
36.85 36.69 36.36 35.67 34.69 34.36 34.20 33.66 32.99 31.75 31.48 30.55 30.60 30.41 31.52 32.68 31.49 29.92 28.89 29.46 28.97 32.22 33.89 35.13 36.92 37.42 37.83 38.42 38.79 38.00 38.19 38.71 39.37 40.03 40.48 40.71 40.98 41.27
34.99 35.64 36.11 36.96 37.51 36.12 33.42 32.82 32.59 31.62 30.77 31.12 30.65 29.38 27.38 27.70 27.15 26.36 25.52 25.79 25.91 26.66 27.16 28.12 28.23 29.69 30.69 34.57 35.28 36.38 37.65 38.93 39.59 40.16 40.48 40.66 40.61 40.84
32.23 32.65 34.40 36.39 37.31 37.62 37.03 36.51 34.51 30.26 29.11 29.65 26.66 27.38 26.11 24.93 25.26 25.27 23.59 22.06 22.26 27.39 27.22 27.90 28.91 28.41 28.93 29.20 35.26 37.33 37.80 38.21 39.04 39.44 39.60 39.77 39.94 40.03
30.93 32.13 33.03 33.75 32.39 30.02 32.49 34.01 34.09 35.41 35.03 30.09 27.47 26.68 25.54 25.37 24.02 21.85 23.93 20.64 21.28 26.76 26.58 24.83 26.60 26.55 27.75 30.83 34.89 36.25 36.93 37.25 37.78 38.35 38.58 38.91 39.03 39.26
29.25 29.18 28.60 28.44 29.21 30.20 30.10 29.22 29.25 29.93 30.67 31.29 27.62 26.44 25.81 26.05 25.36 23.92 22.67 23.56 25.39 26.14 26.29 19.44 24.36 25.38 26.44 27.89 33.68 35.03 35.85 36.05 36.26 36.50 36.94 37.41 37.87 38.44
28.20 28.24 28.23 27.73 33.61 34.47 27.94 25.88 24.30 24.91 30.63 32.82 32.93 33.88 34.16 34.41 33.75 24.60 20.86 18.10 19.23 23.51 25.20 23.71 23.35 24.56 26.36 25.76 26.64 32.91 33.82 33.85 34.27 34.96 35.58 36.00 36.29 37.07
27.16 27.87 33.27 30.12 32.61 32.08 25.72 23.82 22.21 22.36 23.28 25.73 25.11 25.90 27.40 27.32 32.56 26.28 19.12 12.49 22.30 18.51 24.45 22.25 20.25 24.89 21.30 23.32 24.47 26.56 25.41 30.61 32.59 33.24 33.73 34.20 34.75 32.86
24.86 25.25 26.22 31.66 31.36 30.98 30.48 23.63 24.23 25.43 26.71 23.45 22.55 23.37 24.72 25.44 26.27 26.57 26.62 21.97 24.71 25.18 28.87 28.00 24.62 25.59 24.74 23.92 23.48 24.22 25.93 25.19 25.63 27.53 31.03 32.36 33.30 33.79
24.22 24.85 25.71 30.80 30.20 30.14 28.07 29.19 30.10 28.78 23.43 22.85 23.42 22.32 22.50 25.95 27.83 28.04 28.16 28.57 28.81 27.44 29.04 28.70 25.46 25.08 24.02 23.05 22.52 24.07 25.58 26.68 25.74 25.54 25.94 29.44 32.52 33.90
25.77 28.12 29.95 29.20 28.84 26.16 28.18 29.33 28.50 22.58 22.86 20.75 20.71 20.58 26.79 27.28 27.81 27.51 28.78 29.33 29.01 28.61 27.90 28.69 27.29 26.55 25.68 23.58 23.14 23.79 25.21 26.14 27.17 25.72 24.79 26.29 26.43 27.89
27.85 24.06 27.18 27.67 28.05 26.53 25.27 24.70 23.72 22.91 20.86 17.59 18.89 25.72 26.49 25.81 25.33 26.55 25.16 25.62 24.71 21.60 23.57 25.01 28.51 27.57 24.96 25.64 25.67 25.14 26.97 25.38 28.81 28.37 27.93 29.02 30.30 30.62
25.77 22.37 20.72 20.91 21.12 21.99 22.55 22.93 23.11 23.47 20.94 22.92 24.72 24.17 24.39 24.84 24.37 25.13 24.59 23.87 20.93 20.32 22.06 23.73 26.68 27.09 27.26 26.10 25.20 26.51 26.74 27.17 28.55 28.33 28.57 28.49 30.34 31.23
22.72 19.66 18.93 19.64 19.75 21.28 21.55 21.84 23.15 25.07 24.81 24.74 24.36 24.06 23.21 23.17 22.92 24.10 24.32 16.47 20.64 21.13 21.76 23.48 23.35 24.21 25.42 26.11 30.39 26.19 26.49 26.20 27.16 27.28 27.43 27.52 28.26 30.83
19.93 18.24 18.18 18.59 18.76 19.23 19.06 22.89 23.21 24.32 24.57 23.97 23.47 23.62 23.55 23.37 23.75 22.24 16.60 17.96 20.19 20.96 22.06 23.14 21.60 22.17 21.15 19.12 25.02 31.38 23.26 26.54 27.55 27.64 28.95 29.31 28.48 29.88
19.34 17.48 17.03 18.33 18.02 16.41 15.81 17.45 23.69 23.98 23.42 23.22 23.09 23.33 23.47 23.14 21.70 19.18 18.03 18.86 19.60 20.56 21.79 23.64 17.45 19.52 20.47 21.53 23.01 26.78 31.85 27.37 27.81 27.55 28.34 30.09 31.78 34.49
18.46 17.98 18.69 17.83 16.52 14.92 14.42 12.41 17.30 22.11 23.26 22.85 22.54 22.39 23.04 22.73 19.87 20.43 20.31 23.93 24.56 22.14 20.34 21.00 22.96 29.48 27.32 26.59 24.46 25.49 28.18 32.24 31.77 29.18 29.31 28.21 26.90 27.75
18.83 18.21 18.47 17.67 15.68 11.05 8.26 6.60 7.67 10.80 9.66 19.38 21.45 21.85 22.69 19.04 19.72 20.02 20.57 19.93 19.96 20.11 21.39 23.71 25.94 25.54 25.73 24.78 23.90 25.65 27.20 29.41 32.07 33.49 33.75 32.66 28.36 25.05
18.32 18.29 17.19 15.54 12.07 8.88 4.97 5.22 7.67 10.69 9.17 12.50 15.05 18.25 20.40 19.26 20.20 21.16 21.20 21.21 20.91 21.25 22.40 23.07 24.37 26.02 25.72 25.18 26.11 26.65 26.93 26.93 27.89 27.54 28.99 33.69 34.19 34.16

GFSNE_sfc_wetblb_084.txt.gz
Wetbulb
52.82 51.98 48.47 45.56 46.11 46.31 46.36 46.90 47.48 41.89 38.03 38.52 38.09 40.09 40.42 41.30 41.77 41.57 40.48 42.32 44.77 45.20 45.39 44.93 45.68 45.79 45.49 45.22 45.18 45.29 45.53 45.46 45.38 46.03 46.85 47.37 47.80 48.49
44.55 43.06 42.39 42.43 42.77 43.84 44.18 44.70 44.97 43.36 40.43 38.30 37.55 37.18 38.70 39.71 40.25 39.72 39.32 40.50 41.99 43.16 43.90 44.17 43.82 43.28 43.17 43.40 43.67 43.79 43.91 44.36 45.16 45.78 46.33 46.65 47.04 47.47
41.48 40.72 40.01 40.62 40.06 40.15 40.22 39.91 38.79 38.89 37.34 34.69 36.16 36.64 35.79 36.46 37.67 38.98 38.94 38.57 38.07 40.56 41.02 41.35 41.72 41.97 42.21 42.25 42.34 42.56 43.18 43.69 43.99 44.66 44.90 45.51 46.20 46.37
39.22 38.92 38.46 39.06 37.72 37.93 37.78 36.41 35.70 35.51 36.23 34.09 34.40 34.58 34.81 36.05 35.99 34.31 35.28 36.31 35.10 37.26 39.72 40.63 40.77 40.28 40.41 40.68 41.21 41.94 42.23 42.25 42.26 42.79 43.25 43.77 44.24 44.63
38.43 37.81 37.47 37.48 36.30 35.94 35.50 34.74 34.69 34.57 33.96 33.89 31.18 32.74 33.07 32.91 31.91 31.29 32.68 33.13 33.98 36.09 36.67 37.65 38.10 38.53 39.38 39.96 40.10 40.73 40.62 40.18 40.42 40.72 41.21 41.90 42.44 43.07
37.24 37.05 36.52 35.77 35.00 34.73 34.31 33.83 33.21 32.13 32.27 31.35 31.01 31.44 31.86 31.96 30.00 28.44 29.02 28.48 27.21 31.06 32.37 34.49 36.39 37.00 37.63 38.14 38.17 37.92 37.88 38.37 39.22 40.02 40.64 41.08 41.26 41.67
35.80 36.10 36.41 37.29 37.89 36.69 34.17 33.16 33.10 31.91 31.17 30.80 29.73 27.78 24.68 26.27 25.37 25.09 24.78 24.46 24.47 25.23 26.33 27.39 27.48 27.89 29.08 33.68 34.43 35.79 37.12 38.68 39.40 39.87 40.46 40.97 41.02 41.31
33.04 33.25 35.85 36.90 37.97 38.46 38.02 36.61 33.32 28.99 26.87 23.24 19.74 24.75 24.47 23.99 23.82 23.57 21.42 19.56 19.37 26.49 25.88 26.86 27.05 26.91 27.46 27.85 34.46 36.68 37.21 37.80 38.57 38.99 39.35 39.70 39.83 40.27
31.86 31.90 31.82 32.64 30.59 29.03 33.23 34.46 34.09 35.58 34.38 28.31 25.66 25.02 24.36 24.32 21.22 19.64 22.31 18.01 19.46 25.59 25.32 23.69 25.70 25.38 26.90 29.61 33.94 35.34 36.40 37.04 37.38 37.63 38.09 38.42 38.81 39.18
28.36 27.41 26.96 27.27 28.65 29.77 28.59 28.15 27.67 27.79 28.27 30.17 27.15 26.08 25.38 25.54 24.36 22.43 21.61 22.70 25.00 25.53 25.49 17.98 23.78 24.57 25.92 27.31 32.86 34.08 34.75 35.13 35.42 35.67 36.27 36.88 37.13 37.65
27.73 27.12 26.98 27.38 34.22 34.04 27.06 25.48 23.87 24.52 29.73 32.73 32.42 33.22 34.02 34.19 32.92 24.65 20.77 17.64 18.83 23.26 24.76 23.49 23.27 23.82 24.67 24.67 26.14 32.19 33.59 33.65 34.03 34.59 35.31 35.49 35.68 36.18
26.45 27.48 33.33 29.52 32.54 32.02 25.44 23.71 21.83 22.09 22.88 25.68 24.90 25.38 26.84 28.11 32.05 25.90 18.53 11.51 13.64 15.97 24.21 26.07 23.01 23.25 18.66 23.01 24.21 25.83 25.75 31.26 32.94 33.67 34.18 34.40 34.73 32.40
24.82 25.23 26.09 31.79 31.26 30.91 30.09 23.61 23.85 25.00 26.52 22.92 22.18 23.23 24.63 25.00 25.81 26.08 25.66 20.77 22.37 23.25 27.78 27.49 22.96 25.91 24.74 19.87 22.75 23.73 24.49 25.60 25.53 27.21 31.34 32.74 33.32 33.51
24.10 24.74 25.42 30.56 29.93 29.96 28.00 29.33 30.13 28.10 22.96 22.63 23.07 21.71 22.19 23.38 27.41 27.71 28.16 28.54 28.85 27.13 28.77 28.93 24.82 21.09 22.16 21.67 21.85 22.66 24.19 26.15 25.02 25.40 25.70 29.31 32.55 33.53
25.69 27.81 30.52 29.92 29.08 26.49 28.30 29.46 28.66 22.49 22.51 20.05 19.96 19.39 23.91 26.73 26.94 27.26 28.38 28.92 28.56 28.93 26.15 16.73 23.66 22.32 24.48 23.53 22.87 24.23 25.09 25.84 26.85 23.34 25.09 26.70 26.53 29.41
28.28 24.25 26.85 27.67 27.85 26.15 25.14 24.46 23.52 22.53 20.13 16.98 17.29 25.37 26.19 25.59 24.91 26.08 24.69 25.00 24.26 20.60 21.72 21.51 19.95 19.75 23.91 24.65 24.70 24.33 26.14 24.70 25.48 27.28 27.27 27.76 28.62 29.51
25.59 22.13 20.41 20.50 20.53 21.47 22.07 22.58 22.68 23.17 20.20 22.04 24.97 24.54 24.55 24.93 24.57 24.98 24.47 23.99 20.39 21.08 19.99 22.01 24.41 24.46 24.85 24.09 23.87 25.56 25.70 26.11 26.60 26.32 26.16 25.97 27.82 29.36
22.98 19.42 18.33 18.88 18.80 20.46 20.96 21.24 21.96 24.88 25.12 24.95 24.46 24.23 23.50 23.38 23.30 24.04 23.00 17.75 18.78 20.18 19.28 20.39 21.14 21.03 24.01 24.90 29.05 24.88 25.68 24.51 25.56 25.83 25.26 25.91 27.07 29.54
20.42 17.96 17.50 17.85 17.88 18.44 17.95 16.54 18.64 24.36 24.56 23.83 23.52 22.97 23.26 23.35 23.69 21.36 12.37 15.01 17.46 17.97 18.58 18.55 14.74 20.83 19.70 18.19 22.27 30.55 21.53 22.88 25.92 26.34 27.29 28.13 27.74 29.04
19.13 17.20 16.64 17.65 17.71 16.39 14.83 12.26 13.49 22.55 23.72 23.46 22.90 22.76 22.93 22.64 22.15 17.76 15.68 15.66 17.52 18.09 18.41 21.52 18.52 12.91 19.63 20.27 21.61 24.47 30.39 25.26 26.06 25.71 26.49 28.57 30.25 33.85
18.15 17.78 18.28 17.50 16.53 15.01 14.02 10.78 7.76 10.31 16.85 21.77 22.60 21.70 21.23 21.78 21.56 15.59 18.07 23.07 23.83 21.11 18.39 18.55 20.37 27.30 26.52 25.89 22.44 22.90 25.90 31.31 31.46 28.17 27.95 27.76 27.55 27.94
19.08 18.24 18.35 17.49 15.68 11.81 8.74 6.36 3.90 7.12 8.61 9.46 13.62 17.72 19.35 17.08 18.95 18.71 19.08 18.48 18.82 19.12 19.71 21.68 22.90 24.78 24.73 23.65 22.26 23.18 24.10 27.37 31.45 32.87 33.43 32.58 28.32 24.94
18.92 18.47 17.29 15.92 13.19 10.11 5.74 4.53 5.78 8.51 7.86 8.43 9.80 12.43 13.20 16.58 18.42 19.28 19.43 20.01 19.97 19.26 19.26 20.80 22.87 23.91 23.38 23.89 24.51 24.03 24.97 26.00 27.08 26.83 27.98 32.76 33.70 33.89

GFSNE_sfc_wetblb_087.txt.gz
Wetbulb
49.59 50.33 49.50 46.52 47.28 47.53 48.05 48.41 48.21 42.51 40.27 39.77 38.41 40.76 41.19 42.18 43.41 43.10 42.31 44.27 46.22 46.74 47.32 46.89 46.19 46.28 46.77 46.67 46.25 46.08 45.99 46.09 46.22 46.49 47.01 47.77 48.30 48.84
45.49 44.90 43.68 43.38 43.73 44.23 44.58 44.85 44.81 44.66 41.73 38.40 37.65 37.90 39.66 40.34 41.31 40.74 40.54 41.78 42.89 44.53 45.08 44.69 44.92 44.52 43.99 43.84 44.09 44.29 44.51 44.75 45.19 46.19 46.95 47.41 47.37 48.06
42.46 41.87 40.83 41.58 40.84 40.90 40.95 40.68 39.47 40.15 38.30 34.77 36.26 36.64 36.36 37.29 38.37 39.87 39.54 39.05 39.13 41.19 41.36 41.25 41.78 42.29 42.38 42.54 42.46 42.67 43.09 43.70 44.21 44.92 45.38 45.91 46.29 46.45
40.05 39.84 39.29 39.90 38.60 38.53 38.12 36.76 36.10 36.36 36.90 34.27 34.75 34.85 35.34 36.48 36.77 36.16 36.01 36.76 34.58 36.80 39.27 40.29 40.92 40.83 40.77 40.74 40.74 41.35 42.06 42.64 42.72 42.83 43.11 43.96 44.44 44.89
39.44 38.87 38.30 37.99 36.55 36.33 35.89 35.20 35.01 35.44 35.48 34.76 31.81 33.60 33.59 33.19 32.56 33.13 32.61 31.14 32.91 35.55 36.09 37.00 37.76 38.32 39.26 39.80 40.19 40.03 40.31 40.71 40.61 40.57 41.06 41.69 42.41 43.20
37.68 37.51 37.06 36.38 35.44 34.31 34.10 33.79 33.49 32.15 30.63 31.90 31.44 31.32 32.12 31.44 29.11 28.09 26.37 25.70 26.10 29.99 31.39 34.13 35.52 36.31 36.73 37.64 38.12 37.95 37.94 38.40 39.17 40.00 40.69 41.10 41.54 42.24
35.40 35.06 35.00 37.43 38.18 37.08 33.21 32.31 32.32 31.30 28.76 25.05 25.85 26.32 23.59 25.53 24.43 23.75 23.83 23.54 23.84 24.57 25.86 26.76 27.16 27.24 27.99 32.81 33.46 35.28 36.96 38.48 39.25 39.85 40.34 40.76 41.04 41.46
33.37 33.86 35.01 36.60 38.42 39.14 38.16 36.72 32.73 28.39 26.02 21.54 17.01 24.13 23.68 23.64 23.35 23.05 20.94 19.27 18.82 25.54 24.98 25.53 26.52 25.71 26.88 27.28 33.98 36.40 36.78 37.33 38.33 38.86 39.17 39.45 39.58 40.11
32.58 32.00 30.49 31.52 30.30 28.96 34.67 35.34 35.33 36.39 33.58 27.73 25.28 24.39 24.14 24.48 20.91 19.55 21.67 17.02 18.38 24.99 24.89 23.26 25.12 24.78 26.42 28.74 33.51 34.99 35.89 36.54 36.81 37.21 37.51 37.74 38.22 38.60
27.36 26.50 26.21 26.73 29.02 28.98 28.23 27.11 26.07 26.45 28.17 29.96 26.97 26.05 25.71 25.17 23.96 21.54 19.99 21.69 24.94 25.23 25.04 17.42 23.38 24.04 25.63 26.80 32.20 33.72 35.24 34.92 35.35 35.68 36.17 36.70 36.97 37.10
27.25 26.42 26.93 27.47 34.69 32.87 26.70 25.31 23.65 24.43 29.52 32.80 32.10 32.76 33.56 33.98 31.51 23.84 20.72 17.57 18.72 23.10 24.51 23.14 22.85 23.04 24.11 24.13 25.98 32.20 33.74 34.50 34.56 35.03 35.59 36.01 36.00 36.40
26.78 27.66 33.35 29.35 32.67 32.17 25.07 23.49 21.51 21.67 22.44 25.52 24.72 25.17 26.85 28.92 31.56 25.18 18.22 10.15 12.82 16.26 23.61 22.48 20.78 21.77 18.08 22.30 23.89 25.22 26.22 31.24 33.22 33.80 34.41 34.68 34.95 32.61
25.17 25.33 26.26 32.04 31.39 30.99 30.07 23.60 23.34 24.60 26.25 22.93 22.02 22.96 24.25 24.72 25.50 25.80 24.97 15.98 22.98 23.79 25.82 27.61 23.08 25.51 24.69 18.44 22.15 23.20 24.54 25.75 25.65 27.40 31.24 32.77 33.54 33.65
24.23 24.74 25.31 30.64 30.00 29.99 27.78 29.60 30.37 28.50 23.02 22.18 22.28 20.65 21.49 21.77 24.11 27.71 27.94 28.82 28.98 27.15 28.39 28.18 25.16 23.08 16.39 21.98 22.07 21.66 23.72 25.96 25.65 25.33 25.91 29.40 32.75 33.83
25.81 27.63 31.01 31.11 29.62 26.39 28.34 29.62 28.78 22.45 22.02 19.22 19.13 18.64 21.20 27.16 27.19 26.81 28.05 28.32 27.89 28.44 29.33 22.69 22.75 20.88 22.47 22.33 22.41 23.80 25.17 24.54 27.83 23.46 20.87 24.51 25.52 27.39
28.89 24.47 26.93 27.89 28.16 26.35 25.13 24.42 23.37 22.12 19.39 16.30 16.72 20.97 26.57 25.39 24.74 25.87 24.22 24.75 23.95 20.36 20.09 16.92 15.86 13.52 19.21 23.33 24.22 23.31 24.72 23.72 23.29 27.43 26.10 26.28 27.14 27.67
25.65 22.15 20.48 20.07 19.95 20.77 21.54 21.98 22.15 22.61 19.30 20.68 23.90 24.78 24.94 24.98 24.71 25.30 24.22 23.86 22.18 16.53 21.51 20.78 22.09 21.43 21.28 21.08 21.71 23.51 23.67 23.62 26.10 25.31 24.05 24.52 26.09 27.07
23.62 20.03 18.21 18.15 18.09 19.53 20.20 20.63 21.37 22.60 23.71 25.35 24.68 24.34 23.57 23.28 23.23 24.00 24.38 20.65 19.53 18.20 16.73 15.25 13.46 15.46 18.33 22.09 26.87 22.15 22.43 22.58 24.48 24.33 23.30 23.88 25.52 27.99
22.35 18.68 16.83 17.39 17.37 17.98 17.66 15.77 13.54 17.99 23.43 23.92 23.55 23.21 23.09 22.84 23.07 22.49 18.49 13.10 17.11 16.76 16.77 16.27 7.68 15.83 17.97 16.59 21.46 29.89 21.88 16.73 22.54 24.10 25.23 25.76 26.21 27.62
19.41 17.64 16.85 17.52 17.37 16.52 15.05 11.80 11.07 12.40 14.46 19.94 23.16 22.84 22.47 22.14 21.59 20.81 20.84 15.39 16.84 16.87 16.59 14.53 12.70 13.06 18.06 18.56 20.51 23.24 29.17 24.32 23.49 23.21 24.47 26.95 28.93 32.78
18.07 17.52 18.06 17.45 16.76 15.69 14.85 11.70 8.33 7.72 9.38 9.30 11.00 18.01 22.17 21.01 20.01 20.54 19.57 22.06 23.03 20.76 17.23 17.17 18.69 25.27 23.66 24.42 21.46 22.09 25.12 30.06 29.09 25.48 25.78 25.88 26.18 26.70
19.73 18.65 18.52 17.82 16.52 13.84 11.43 8.50 5.93 6.46 6.86 6.36 8.29 9.49 11.61 14.00 17.58 17.44 18.59 17.21 17.59 17.66 17.77 18.98 20.19 17.77 21.26 21.94 20.82 21.78 23.38 26.00 29.19 30.97 32.03 31.42 26.96 24.45
20.07 19.62 18.53 17.53 15.35 12.41 8.71 6.11 6.21 8.55 6.93 6.98 6.86 7.96 8.00 12.27 16.05 17.41 17.54 18.02 18.25 18.08 18.23 18.29 19.44 20.12 21.01 22.20 22.97 22.66 22.96 22.88 24.33 25.00 27.18 32.10 32.98 33.60

GFSNE_sfc_wetblb_090.txt.gz
Wetbulb
52.25 51.74 50.96 47.58 48.08 48.42 49.05 49.75 48.88 43.29 42.27 38.67 38.49 40.63 41.67 42.70 44.83 43.21 42.57 45.64 46.40 47.19 47.64 47.88 47.38 47.12 47.41 47.39 47.14 46.67 46.54 46.26 46.49 46.63 46.95 47.69 48.54 49.25
47.43 46.69 45.06 44.45 44.70 45.19 45.49 45.96 46.07 46.35 42.78 38.91 37.13 38.68 40.29 40.94 41.80 41.49 41.32 42.20 43.11 44.81 45.55 45.17 45.28 44.92 44.47 44.00 44.11 44.39 44.57 44.71 45.33 46.03 46.71 47.34 47.79 48.23
42.90 43.08 41.98 42.60 42.05 42.02 41.97 41.27 39.92 40.60 39.39 35.31 36.71 37.03 36.96 38.28 38.76 40.22 40.06 39.34 39.40 41.13 41.37 41.31 41.59 42.01 42.39 42.62 42.47 42.54 42.84 43.29 43.76 44.53 45.38 45.84 46.27 46.48
41.21 41.29 39.61 40.90 39.44 39.31 38.93 37.74 37.26 37.64 37.74 35.21 35.21 35.25 35.81 36.84 37.05 36.71 37.11 37.58 35.66 36.87 39.24 40.29 40.72 40.54 40.50 40.54 40.50 40.65 41.34 41.83 42.52 42.80 43.18 43.70 44.19 44.70
39.01 38.58 39.11 38.77 37.38 37.16 36.57 35.95 35.69 36.52 36.32 35.45 31.43 32.62 32.89 33.34 32.81 33.43 32.91 31.67 32.43 35.22 35.75 36.82 37.56 37.72 38.11 38.96 39.79 40.04 40.15 40.32 40.78 41.04 41.16 41.51 42.24 42.89
38.08 38.12 37.73 37.13 36.15 35.54 34.38 32.37 33.36 33.02 32.88 31.35 30.81 31.74 31.37 29.46 27.86 26.71 25.84 25.64 25.83 29.24 30.93 33.41 35.24 36.14 36.36 37.16 37.82 38.13 38.06 38.48 39.36 39.91 40.47 41.13 41.51 42.07
35.97 35.93 35.75 37.23 38.47 36.79 32.76 31.15 30.36 29.12 26.92 25.15 25.50 25.85 23.29 25.42 24.28 23.56 23.60 23.25 23.30 24.28 25.55 26.31 26.86 27.12 27.63 32.19 33.12 34.96 36.57 38.26 39.20 39.82 40.25 40.67 40.65 40.86
33.87 33.96 35.44 37.56 39.23 39.38 38.16 36.39 31.94 27.89 25.51 21.94 21.36 24.02 23.38 23.33 23.13 22.83 20.42 18.78 17.81 24.69 24.63 25.14 26.11 25.58 26.75 27.25 33.45 36.28 36.76 37.36 38.16 38.91 39.06 39.23 39.37 39.57
32.99 32.06 30.83 32.09 30.84 29.52 35.86 36.22 36.48 36.67 32.98 27.07 24.91 24.17 23.95 24.27 20.95 19.28 21.07 16.40 17.56 24.54 24.76 22.92 24.89 24.49 26.36 28.23 33.19 34.76 35.62 36.77 35.92 36.66 37.20 37.61 37.97 38.31
27.70 26.63 27.02 27.43 29.41 28.68 27.90 26.84 25.90 26.43 28.41 29.62 26.77 25.88 25.60 24.88 23.50 21.02 19.49 20.82 24.50 25.09 24.80 17.29 23.20 23.93 25.47 25.56 31.72 33.87 35.60 35.05 35.87 35.97 36.45 36.77 36.98 37.32
26.96 26.75 27.81 27.86 34.78 32.41 26.67 25.30 23.49 24.43 29.92 33.29 32.06 32.63 33.29 33.68 29.70 23.28 20.14 17.68 18.40 22.70 24.12 22.82 22.43 22.55 23.99 23.91 25.68 32.25 34.03 34.15 34.50 35.18 35.63 35.87 36.22 36.61
27.53 28.66 33.70 29.34 33.13 32.45 24.50 22.94 21.00 21.05 22.09 25.16 24.14 24.93 26.98 29.56 31.01 24.46 17.87 9.58 12.48 15.60 22.91 21.05 20.30 21.30 17.27 21.95 23.59 25.13 25.45 30.84 33.19 33.54 34.06 34.58 34.86 32.73
25.92 25.62 26.85 32.63 31.59 31.15 30.28 23.54 23.12 24.15 26.20 22.84 21.62 22.78 24.01 24.60 25.18 25.33 24.41 18.40 23.08 23.98 26.65 27.51 20.18 25.19 24.32 19.81 22.00 23.57 24.26 24.97 26.19 27.52 31.17 32.53 33.47 33.66
24.12 24.61 25.22 30.74 30.29 30.12 27.73 29.66 30.51 29.06 23.08 21.79 21.65 19.82 20.80 21.21 22.07 24.02 27.86 28.71 28.99 26.89 28.42 27.65 24.23 23.99 22.11 22.09 21.25 21.24 21.58 25.29 25.33 25.49 25.61 29.21 31.94 33.39
25.64 27.78 30.92 31.39 30.38 26.96 28.36 29.63 28.81 22.46 21.65 18.71 18.51 17.80 18.78 25.00 26.77 26.65 27.56 28.20 27.33 27.47 28.70 28.52 27.22 25.16 22.50 22.07 21.45 22.45 23.81 22.45 25.11 23.19 20.79 22.64 25.09 26.58
29.60 24.81 26.98 27.81 28.01 26.29 24.91 24.43 23.11 21.77 19.17 15.97 16.15 18.92 25.29 25.48 24.86 25.78 23.78 24.43 22.62 15.51 19.68 14.58 11.93 10.74 13.61 19.56 21.04 21.50 23.30 22.37 21.34 23.83 25.05 25.45 26.36 26.79
24.77 22.36 21.13 20.66 20.19 20.65 21.34 21.59 21.63 22.09 18.74 18.37 20.13 24.57 24.57 25.22 24.54 25.36 24.36 23.47 22.05 14.31 14.41 18.63 21.26 19.70 18.36 18.06 19.38 21.05 21.30 21.81 23.43 23.22 20.89 23.71 25.22 26.01
24.01 20.76 19.41 18.80 18.54 19.29 19.52 19.88 20.84 22.08 20.38 20.60 22.16 24.53 23.81 23.59 23.23 23.34 24.26 23.00 20.40 15.74 13.19 12.57 9.81 12.36 15.22 20.83 25.15 19.95 19.08 19.72 22.07 22.04 20.56 21.75 23.34 26.56
23.70 20.56 18.07 17.65 17.57 17.66 17.15 15.82 13.43 16.77 12.83 13.87 16.71 23.28 23.35 22.97 22.84 22.19 22.23 21.32 18.67 14.52 15.81 11.67 4.49 10.11 13.95 14.82 20.69 29.32 21.26 21.28 18.65 22.61 23.81 23.19 22.83 25.27
20.54 19.11 18.02 18.00 17.28 16.30 14.80 12.11 11.17 11.44 10.34 12.47 12.49 13.02 16.89 22.11 21.47 21.16 21.06 20.24 19.44 16.44 15.93 11.45 7.26 9.32 14.92 14.75 16.55 21.55 27.72 22.55 22.11 21.53 22.58 24.69 26.27 30.83
18.59 17.73 18.22 17.67 17.00 16.00 15.37 12.23 9.33 7.68 7.00 5.80 7.19 9.33 11.76 20.27 20.74 20.34 19.70 22.28 22.47 19.50 16.99 16.74 17.60 24.39 19.46 21.24 18.32 19.71 23.28 28.59 28.15 24.45 24.07 24.19 24.03 25.75
20.90 19.76 19.64 18.46 16.95 14.93 13.79 10.10 6.25 6.26 7.01 5.58 7.20 6.54 9.27 7.28 16.81 18.57 18.25 17.60 16.68 15.77 15.85 17.60 18.70 12.31 10.86 18.51 17.35 19.48 21.46 24.44 28.12 29.84 30.56 29.85 25.68 23.38
22.63 22.23 20.90 19.54 18.37 16.55 11.92 8.16 7.09 8.37 6.07 6.67 6.10 6.61 5.21 7.00 13.44 15.62 16.48 16.87 16.30 15.52 16.01 16.66 18.36 16.19 17.93 18.47 20.33 20.27 21.58 22.75 23.78 23.62 24.95 29.99 31.16 32.48

GFSNE_sfc_wetblb_093.txt.gz
Wetbulb
59.73 58.42 56.01 51.92 52.12 51.91 52.86 53.84 50.68 44.99 46.14 41.70 43.18 42.37 44.81 45.72 46.03 46.03 46.38 48.22 47.98 47.56 47.69 47.94 47.79 47.46 47.19 47.38 46.81 46.17 46.12 46.21 46.33 46.80 47.19 47.75 48.47 49.13
51.27 51.16 49.67 48.92 49.07 48.93 49.77 49.76 49.06 49.41 44.85 41.95 38.74 40.37 42.08 42.43 44.23 44.98 43.91 43.55 44.08 44.79 45.37 45.10 45.07 44.34 43.98 44.11 44.03 44.17 44.23 44.41 44.94 45.64 46.33 46.99 47.51 47.86
47.23 47.47 46.31 46.66 46.72 46.40 46.47 44.46 44.40 46.91 44.45 37.28 38.34 39.49 40.36 41.33 41.32 42.57 42.05 41.40 41.50 41.27 41.36 41.36 41.55 41.91 42.32 42.47 42.47 42.46 42.59 42.83 43.31 44.29 45.19 45.55 45.61 45.58
44.62 43.87 42.78 42.81 42.18 43.79 43.43 41.50 41.49 42.25 42.75 39.01 37.66 37.33 38.01 38.62 38.61 39.05 38.35 38.85 37.21 37.63 39.44 40.29 40.69 40.48 40.27 40.24 40.59 40.94 41.10 41.54 42.01 42.74 43.60 43.56 44.07 44.48
43.23 42.92 42.28 42.08 41.01 40.86 39.59 38.99 39.17 39.17 40.07 38.82 35.00 36.09 36.79 36.79 35.92 35.79 34.57 34.52 35.49 35.66 35.93 36.35 37.43 38.29 38.38 38.53 39.17 40.17 40.52 40.62 40.78 41.10 41.35 41.67 42.21 42.79
40.91 41.05 40.59 40.48 39.09 37.90 37.10 37.19 37.27 37.34 37.47 36.41 35.07 34.61 34.52 33.35 34.00 34.51 34.18 34.09 34.08 33.37 32.90 34.30 35.95 36.57 37.08 37.35 37.85 38.21 38.31 38.54 39.13 39.79 40.48 41.09 41.59 42.06
38.16 37.98 38.40 38.87 38.85 38.14 36.60 35.62 35.62 34.53 34.51 34.05 33.14 33.07 33.01 32.77 32.73 31.65 31.33 31.59 32.34 31.91 32.65 33.92 34.26 34.49 34.65 34.29 34.68 34.93 36.29 38.04 39.15 39.87 40.34 40.52 40.79 40.67
35.49 36.35 38.80 39.90 39.81 39.37 38.06 36.61 35.19 33.52 32.60 33.27 30.95 32.02 30.76 31.29 30.93 30.78 30.04 29.42 28.33 31.97 31.63 32.26 32.80 33.31 34.20 34.81 33.90 36.25 37.24 37.74 38.14 38.77 38.61 39.10 39.29 39.43
34.15 34.48 33.86 34.62 34.85 36.60 38.25 37.88 37.69 36.92 34.25 33.27 31.19 31.27 30.58 31.20 30.34 28.74 28.63 28.63 29.16 31.99 31.00 30.33 32.14 31.80 34.12 33.03 33.32 34.83 35.93 36.83 36.67 36.60 37.14 37.65 37.99 38.33
32.10 32.01 31.85 31.77 32.41 31.91 31.66 30.93 30.55 32.04 32.80 32.56 32.84 32.06 31.91 31.26 30.71 30.31 29.81 29.56 30.45 30.85 30.95 28.47 30.89 30.77 32.46 32.67 31.76 34.93 35.74 36.77 35.56 36.07 36.42 36.88 37.05 37.48
30.46 31.76 33.06 33.46 34.74 32.98 30.37 28.84 28.53 28.87 33.06 33.94 32.91 33.16 33.38 33.75 31.75 30.65 29.69 29.03 27.99 28.39 30.06 28.60 29.58 28.56 30.22 31.07 32.21 32.61 33.21 33.95 34.56 35.18 35.74 35.81 36.12 36.54
31.31 33.52 34.22 33.43 34.43 31.83 28.54 27.81 26.03 26.39 28.02 28.85 28.76 28.81 30.12 33.28 31.65 30.03 29.05 27.80 27.71 27.43 29.16 27.66 28.07 28.05 27.83 30.19 30.75 31.80 32.09 31.77 32.88 34.03 34.22 34.57 34.89 34.71
30.11 30.20 31.60 33.42 32.45 32.40 30.42 28.45 27.00 28.39 29.85 27.68 27.04 27.92 28.70 29.48 29.52 29.55 29.19 28.23 27.34 26.77 30.16 29.55 28.02 28.16 27.84 27.10 29.17 30.23 30.87 31.16 31.57 31.95 32.24 32.48 32.95 33.93
28.01 28.65 29.97 32.08 31.29 31.02 30.13 30.11 31.13 30.38 27.75 25.97 25.87 26.43 27.10 27.97 28.73 29.35 29.29 29.51 30.08 28.85 30.17 30.14 27.51 27.23 26.27 25.06 25.12 29.25 30.00 30.49 30.70 30.44 31.12 31.82 32.91 33.41
28.63 29.41 30.23 31.81 31.17 29.70 29.00 29.87 30.68 27.32 25.60 25.08 25.46 26.15 27.55 28.65 29.36 28.58 28.70 29.51 30.18 30.33 30.72 30.43 29.00 28.20 26.98 24.53 24.32 25.88 26.30 29.39 29.83 29.85 30.76 30.50 30.56 31.33
31.18 30.92 29.05 28.53 28.14 27.41 27.35 27.68 26.60 25.98 25.71 25.79 25.96 27.00 28.03 28.24 26.96 27.65 26.49 26.78 25.82 26.73 28.10 26.89 25.48 23.57 24.15 24.86 24.83 23.48 26.19 24.81 29.86 30.05 29.75 29.69 30.44 31.19
27.83 25.98 24.63 24.28 24.07 24.11 24.50 24.77 24.94 25.34 26.01 25.71 25.94 26.27 26.60 25.89 25.89 27.48 26.62 26.13 24.44 24.71 25.34 26.24 26.73 26.10 24.94 23.42 22.66 24.79 25.31 26.51 28.34 28.69 27.74 27.48 29.55 30.47
27.31 24.41 23.55 23.30 22.94 23.04 22.93 23.19 24.14 25.65 25.86 26.33 26.51 26.52 25.94 25.81 25.47 25.90 25.99 25.14 23.98 23.42 23.36 24.11 23.34 22.80 24.56 26.80 26.99 25.01 26.06 26.01 27.78 28.46 28.06 25.88 26.78 30.01
27.10 25.14 24.09 23.19 23.00 22.79 23.04 23.35 23.51 24.91 24.22 25.19 25.94 25.73 25.84 25.53 24.84 24.21 24.10 23.52 22.78 22.70 23.23 23.18 21.39 19.65 19.56 19.30 25.93 29.56 26.02 26.99 27.05 26.96 27.76 27.17 26.92 28.75
27.01 25.97 25.06 24.27 23.64 23.05 22.66 22.39 22.60 22.92 22.36 23.48 23.75 24.00 24.24 24.50 23.85 23.19 23.05 22.03 21.61 21.65 21.87 23.11 21.00 20.85 19.58 20.42 21.32 25.16 27.90 26.07 25.89 26.08 26.05 28.17 29.54 30.73
25.61 24.47 24.45 24.04 23.24 23.12 22.78 21.98 21.29 21.29 20.67 20.57 20.95 21.17 22.20 22.54 22.52 23.14 22.10 23.00 23.20 22.79 21.22 21.47 23.23 24.77 23.78 23.36 19.66 21.74 26.12 28.15 28.16 27.12 27.22 25.60 24.96 26.62
25.13 24.61 24.06 23.81 23.56 23.22 22.61 21.37 20.11 19.71 20.91 19.93 19.26 19.69 19.96 20.30 21.08 21.58 21.65 20.83 20.46 20.46 20.31 21.69 22.24 22.03 20.76 19.45 19.36 20.90 23.26 26.11 28.13 29.01 29.64 29.20 26.65 23.55
26.94 26.18 26.03 25.44 24.97 24.15 22.38 20.60 18.46 19.86 18.46 17.84 17.89 18.12 17.41 16.70 18.36 19.24 19.31 19.45 19.43 19.01 18.99 18.74 20.24 21.69 20.55 20.28 20.78 20.47 21.70 22.80 25.11 25.90 27.81 30.12 30.48 30.82

GFSNE_sfc_wetblb_096.txt.gz
Wetbulb
62.29 62.00 61.16 61.05 59.54 58.91 57.34 55.75 54.12 50.64 50.89 45.38 45.96 45.85 46.97 47.18 47.66 49.39 49.99 49.34 49.31 48.73 48.37 48.10 47.75 47.41 47.30 47.12 46.74 46.38 46.39 46.51 46.57 47.05 47.36 47.58 48.06 48.75
58.17 59.24 55.38 52.89 53.24 54.71 56.03 55.49 53.14 52.72 49.00 45.93 44.14 42.88 44.73 44.09 44.95 47.06 45.63 44.78 45.13 45.90 46.01 45.59 45.29 44.39 43.99 44.24 44.36 44.38 44.48 44.60 44.98 45.72 46.35 46.63 47.12 47.33
51.52 51.31 50.66 51.75 49.69 50.29 51.97 51.75 51.03 51.37 46.57 39.59 42.58 41.83 42.03 44.39 44.63 45.56 44.56 44.82 44.34 41.98 41.93 41.72 41.75 42.00 42.30 42.42 42.55 42.67 42.88 43.05 43.25 43.87 44.92 45.17 45.40 45.35
47.80 49.70 47.41 47.01 47.14 46.19 47.04 47.04 48.41 47.82 47.83 42.28 40.79 40.59 41.77 41.92 42.52 42.10 41.09 40.77 40.97 38.64 39.75 40.36 40.69 40.55 40.28 40.21 40.53 40.95 41.27 41.48 41.74 42.15 42.77 43.56 43.68 43.72
48.06 46.10 46.22 46.42 44.10 45.01 46.61 45.66 45.21 43.34 45.62 44.54 39.94 40.13 39.07 40.19 39.98 39.65 38.98 38.07 37.34 36.37 36.41 36.45 37.70 38.63 38.94 39.08 39.20 39.36 40.28 40.82 40.90 40.88 41.03 41.38 41.87 42.49
45.09 46.09 44.92 45.42 45.45 44.37 42.80 42.44 42.14 42.62 42.53 41.72 40.23 39.24 38.87 37.47 38.65 37.67 37.52 38.67 38.08 36.97 35.76 34.52 36.33 37.14 37.87 38.30 38.28 38.41 38.71 39.04 39.26 39.72 40.38 41.04 41.44 41.89
43.17 42.26 42.48 42.02 41.21 41.22 40.60 40.78 41.11 40.36 40.70 40.05 38.61 37.83 37.24 36.27 36.61 36.58 35.93 36.31 36.81 35.72 35.34 36.33 36.59 37.34 37.74 37.24 36.40 36.32 36.47 37.57 38.96 39.74 40.29 40.58 40.77 41.00
39.23 40.24 40.44 40.33 40.24 39.89 39.06 38.69 39.16 38.35 37.79 38.20 36.58 36.50 35.86 35.92 35.09 34.94 34.46 33.19 32.16 35.42 34.10 34.95 37.03 36.14 37.21 37.60 35.40 35.90 37.28 38.20 38.59 38.80 38.92 38.60 39.13 39.38
36.45 37.36 37.09 38.41 39.79 39.20 39.36 38.59 38.09 37.15 36.56 36.23 34.33 34.57 33.55 34.59 34.62 32.60 32.43 32.06 31.78 35.17 33.61 33.11 36.01 34.86 37.39 36.26 35.03 35.22 36.52 37.02 37.76 36.87 37.18 37.89 38.24 38.53
36.51 36.08 36.70 36.34 35.80 35.72 35.02 34.07 34.34 34.61 35.01 34.93 35.95 35.09 34.91 34.72 33.95 33.57 33.11 33.06 33.43 34.36 34.18 31.21 35.39 33.92 36.48 36.58 32.28 35.30 36.13 37.36 37.23 36.30 36.72 37.00 37.31 37.63
34.55 35.29 35.46 35.05 35.23 34.60 33.59 32.08 32.06 32.81 34.92 34.38 34.09 34.01 33.83 33.15 34.14 34.02 32.00 31.00 31.26 31.64 33.51 31.24 33.51 32.00 34.07 34.26 35.21 33.19 33.96 34.89 35.91 36.05 36.39 36.66 36.36 36.60
34.63 35.35 35.72 35.15 33.89 32.18 32.00 31.18 29.35 30.11 30.91 31.07 31.71 31.40 32.17 33.86 33.85 32.78 32.58 30.39 30.99 30.71 32.06 29.98 30.62 30.96 31.11 34.42 33.83 34.47 35.01 34.92 34.38 34.88 35.83 35.61 35.31 35.02
33.07 33.25 34.26 34.58 34.06 32.89 31.38 31.13 29.77 30.64 30.56 30.96 30.88 30.95 31.32 32.12 31.84 32.29 31.87 31.32 29.33 29.62 31.81 30.36 28.61 28.73 29.35 29.99 32.55 34.02 34.12 34.12 34.44 34.40 34.89 34.80 33.83 34.10
31.96 33.05 34.02 33.37 32.36 32.27 32.11 30.88 32.11 31.56 31.49 29.89 28.81 28.72 29.51 30.48 31.22 31.75 31.27 31.28 31.10 30.21 31.21 31.28 28.16 28.02 26.96 26.04 27.66 32.63 33.51 34.03 33.78 32.75 33.68 34.17 34.86 35.04
32.01 31.94 32.47 32.56 31.74 31.24 30.01 30.65 32.46 31.29 29.54 28.01 28.12 29.09 30.44 31.60 31.40 30.36 30.53 30.64 31.11 31.68 31.81 31.53 29.39 28.88 27.72 25.89 25.88 27.53 28.57 31.79 33.05 32.55 32.93 32.63 32.36 32.97
31.68 32.60 32.31 31.92 31.33 30.36 29.66 31.10 30.37 30.25 29.39 29.19 29.01 30.19 30.72 29.80 28.80 28.94 27.86 27.86 27.00 27.63 32.05 31.09 29.52 28.60 26.58 26.76 26.48 25.78 28.43 27.52 31.99 32.37 32.32 31.51 31.99 32.66
31.76 30.40 29.12 28.94 28.69 28.39 28.21 28.37 28.57 28.40 28.16 28.60 28.81 28.95 28.99 29.11 27.18 28.27 27.68 27.14 25.23 25.31 26.44 28.97 29.69 29.04 28.32 27.29 25.11 27.98 29.11 29.88 31.76 31.73 29.88 29.26 31.29 32.05
29.37 28.43 28.19 28.00 27.33 27.50 27.06 27.14 27.58 27.69 28.51 29.28 29.11 29.12 28.57 28.29 27.60 27.32 27.10 25.90 24.82 25.19 25.58 26.77 26.20 25.41 27.08 29.05 29.87 27.51 29.03 29.68 31.62 30.62 30.40 27.65 28.43 31.66
30.31 29.24 28.27 28.00 27.66 27.40 27.47 27.62 27.67 28.22 30.51 28.98 28.67 28.77 28.70 28.17 27.32 26.85 26.06 24.79 24.17 25.08 25.99 26.44 24.58 23.26 21.20 21.12 28.15 31.58 27.80 28.81 29.18 29.44 30.12 29.60 28.65 30.30
31.54 30.25 29.23 29.06 28.78 28.31 28.16 27.91 27.99 27.68 26.99 27.37 27.60 27.76 27.69 27.17 26.47 26.14 26.12 25.09 24.75 25.00 24.68 25.92 25.56 24.11 22.26 21.58 22.22 26.44 28.98 27.35 27.42 27.17 28.01 29.84 30.55 31.50
32.54 31.33 30.88 30.02 29.33 29.18 28.76 28.32 27.87 27.51 27.40 26.58 26.28 26.18 26.57 26.34 25.56 25.71 25.47 25.29 24.75 24.52 23.74 24.59 26.86 27.63 26.35 25.01 20.55 22.22 27.71 29.92 28.62 26.86 27.38 26.43 25.83 26.36
32.03 31.02 30.84 30.01 29.56 29.39 29.02 28.55 27.54 26.60 26.37 25.83 25.22 25.40 25.34 25.43 24.31 24.00 24.31 24.20 24.15 24.01 23.71 25.43 25.95 25.02 23.54 21.18 20.01 21.15 23.87 27.58 29.49 29.52 29.60 28.81 26.30 23.87
32.83 31.54 31.37 30.44 30.26 29.99 29.60 28.90 27.33 27.20 26.39 25.82 25.29 24.81 24.57 23.28 23.68 23.79 23.61 23.28 22.80 22.17 22.37 22.04 23.25 23.95 23.12 22.80 21.88 21.39 22.04 23.72 26.17 26.37 28.18 30.56 31.08 31.41

GFSNE_sfc_wetblb_099.txt.gz
Wetbulb
62.07 62.28 61.68 60.82 60.34 60.36 59.28 57.65 55.16 50.39 50.15 48.65 46.47 46.70 47.06 47.61 46.89 49.81 47.74 49.90 50.16 50.01 49.49 49.07 48.42 48.19 47.83 47.20 46.88 46.45 46.40 46.42 46.54 47.02 47.33 47.43 47.90 48.52
60.22 59.99 58.27 56.59 56.65 56.80 56.80 56.93 55.18 54.24 50.15 47.39 45.19 44.33 44.67 45.67 45.55 47.12 45.55 45.93 46.81 47.20 46.70 46.09 45.50 44.96 44.42 44.38 44.40 44.47 44.50 44.49 44.83 45.30 45.65 46.01 46.49 46.92
53.65 56.36 53.34 52.42 52.37 52.08 53.70 53.38 52.18 51.38 48.41 40.88 43.12 43.22 43.55 44.08 44.21 45.37 44.79 44.68 42.88 42.95 43.04 42.77 42.48 42.46 42.59 42.76 42.87 42.79 42.86 43.02 43.04 43.38 44.07 45.05 45.25 45.22
50.30 51.10 48.22 48.33 49.77 49.26 48.60 48.84 48.85 48.83 47.83 41.46 41.04 40.99 42.78 43.61 43.49 42.86 41.64 41.93 40.91 39.55 40.70 41.15 41.32 41.21 40.78 40.56 40.53 40.54 40.83 41.16 41.40 41.93 42.40 43.17 43.80 43.87
48.19 47.36 47.12 46.61 46.53 46.55 47.81 46.73 46.73 45.75 47.01 44.06 40.83 41.41 40.34 40.88 40.53 40.17 38.94 37.72 37.96 37.86 37.83 37.95 38.51 39.01 39.59 39.64 39.56 39.66 39.48 40.09 40.82 40.85 40.95 41.32 41.88 42.53
45.97 46.29 46.22 46.83 46.06 45.15 44.71 44.54 44.33 43.95 44.46 43.06 40.44 39.01 38.95 37.97 38.81 36.40 35.11 36.46 35.76 37.06 36.50 35.96 36.68 37.45 38.20 38.97 38.99 38.58 38.40 39.02 39.48 39.67 40.17 40.91 41.50 41.91
43.70 43.20 43.22 42.49 44.48 44.64 43.40 42.12 42.70 41.73 41.44 39.79 38.24 37.45 36.56 35.03 34.49 34.87 33.28 33.60 33.64 32.69 32.27 33.29 33.34 33.99 35.04 37.90 37.48 37.26 36.98 37.25 38.30 39.63 40.31 40.80 41.02 41.07
40.20 40.14 40.46 41.06 41.16 41.49 41.34 41.38 41.83 40.11 39.26 39.24 38.02 36.29 35.24 34.95 33.68 32.42 31.34 29.83 28.71 32.42 30.67 31.19 33.71 32.18 34.19 34.09 37.08 35.79 36.91 37.90 38.79 39.44 39.64 39.34 39.08 39.50
37.23 38.40 38.49 39.53 39.35 38.78 39.56 39.19 38.64 38.69 38.54 36.67 34.62 32.88 32.04 32.68 32.83 30.63 30.03 29.64 29.33 31.75 30.48 29.10 32.41 31.02 33.87 35.19 35.80 35.43 36.59 37.83 38.13 38.72 37.82 37.81 38.32 38.75
37.05 36.50 36.92 37.17 38.04 36.84 34.67 34.06 33.66 33.81 34.30 35.02 34.46 33.12 33.54 33.41 32.96 31.83 30.96 30.67 30.72 31.08 30.93 27.84 31.61 30.16 32.74 33.12 34.71 34.07 36.75 37.38 38.00 37.63 37.28 37.84 37.74 37.99
34.22 35.61 35.89 35.45 36.28 36.51 33.67 31.80 31.77 31.98 35.27 35.66 35.54 35.19 34.85 34.57 34.39 31.89 29.87 28.83 28.35 28.28 30.07 27.83 29.89 29.23 30.77 31.20 32.05 34.08 35.01 35.63 36.61 37.59 37.73 37.42 37.64 37.81
34.43 34.76 36.66 35.48 35.58 34.62 31.72 30.47 28.91 29.23 29.80 30.01 30.75 30.79 32.60 32.95 34.45 30.73 31.31 27.00 28.56 27.88 29.05 27.02 28.34 27.63 25.95 30.57 30.11 30.68 30.58 35.78 36.61 36.66 36.34 37.10 37.17 32.81
33.17 33.07 33.97 35.75 34.10 32.64 32.52 29.44 29.02 29.86 30.14 28.56 28.24 28.34 29.05 30.35 29.77 29.91 30.58 30.16 28.98 28.92 29.37 27.37 28.66 28.27 28.53 28.24 28.19 30.33 30.60 30.85 30.72 31.98 35.76 36.15 36.39 34.11
31.42 32.27 33.40 34.55 33.84 33.70 31.41 32.25 31.99 32.10 29.24 27.87 26.96 27.01 27.59 28.72 29.59 29.96 29.88 29.81 31.14 29.59 31.50 30.08 27.55 27.92 26.54 24.98 24.44 28.24 28.52 29.52 29.41 29.75 30.07 33.66 35.55 36.18
31.69 33.17 35.09 33.94 32.86 32.12 31.15 32.05 33.10 29.60 27.83 26.51 26.53 27.62 29.10 29.98 30.78 28.30 27.78 27.74 25.55 27.46 28.92 29.63 28.26 27.95 27.76 25.48 24.87 25.59 26.54 26.34 28.67 28.25 27.23 30.65 30.39 29.27
32.33 31.35 32.28 32.41 32.34 31.27 29.11 29.53 29.04 28.81 28.12 28.11 28.00 28.93 29.54 28.99 27.50 29.49 27.30 27.24 26.95 26.87 30.76 29.98 23.81 27.08 25.25 25.73 25.92 24.92 26.42 23.96 25.50 27.12 28.60 30.34 30.12 29.74
31.48 30.27 28.83 28.04 27.57 27.18 27.17 27.49 27.45 27.02 26.47 26.98 27.76 27.87 27.83 27.41 26.59 28.18 27.71 26.75 25.46 25.17 26.39 29.29 29.53 28.71 27.69 25.92 23.37 24.23 24.09 25.52 27.55 29.53 29.51 27.76 28.49 28.91
29.74 27.53 26.86 26.69 25.98 26.18 25.73 25.76 26.14 27.37 27.09 28.18 27.73 27.72 26.74 26.26 25.51 27.82 27.34 26.26 24.66 24.96 25.51 27.26 27.30 25.75 25.40 25.70 28.93 23.89 24.49 24.99 24.38 26.16 27.84 26.55 26.45 27.88
28.76 27.40 26.63 26.42 26.00 26.06 26.18 26.63 26.40 26.73 26.35 27.19 27.18 26.83 26.69 25.96 25.96 24.14 23.88 24.70 24.05 23.61 23.81 26.01 25.43 22.99 19.58 17.23 23.80 32.60 24.79 23.49 24.66 25.33 26.08 26.19 25.60 27.14
30.12 28.99 27.94 27.32 27.20 27.04 26.94 26.87 27.05 27.26 26.41 26.77 26.46 26.19 25.52 24.84 23.64 23.49 24.16 22.05 22.77 21.79 20.60 20.88 19.95 22.74 21.25 16.40 15.69 20.79 28.80 21.31 22.29 22.27 23.35 25.71 27.40 31.22
30.72 30.08 29.75 29.36 28.62 28.60 28.36 28.04 27.51 27.05 26.61 25.84 25.96 25.47 25.48 24.99 24.11 24.00 24.19 26.63 25.32 21.72 20.81 21.41 22.40 29.13 20.01 18.79 18.86 19.25 22.77 28.83 27.49 24.57 25.39 24.13 23.39 23.87
31.23 31.25 31.07 30.44 30.07 29.36 28.96 28.34 27.20 26.89 26.42 25.82 25.58 25.69 24.86 24.82 24.01 23.68 23.78 22.58 22.78 22.70 22.43 21.09 21.04 19.22 17.93 20.91 18.07 18.47 20.70 23.62 27.18 28.85 29.37 28.62 24.55 20.88
31.86 31.58 31.01 30.73 30.44 29.66 28.69 28.10 27.20 27.37 26.68 26.03 25.90 24.78 25.08 23.53 24.32 24.47 23.94 23.32 22.22 20.19 20.61 20.05 19.94 19.33 19.75 19.66 21.19 21.20 21.98 21.87 23.36 23.66 24.92 30.40 31.04 31.57

GFSNE_sfc_wetblb_102.txt.gz
Wetbulb
61.23 61.06 60.82 60.60 60.07 59.36 57.69 57.04 54.66 47.73 46.70 44.99 42.31 43.54 44.28 44.99 46.59 45.94 46.83 51.20 51.46 51.48 51.25 50.42 50.03 49.71 49.24 48.77 48.02 47.51 47.16 46.76 46.60 46.63 46.98 47.25 47.61 48.02
59.78 59.72 59.25 57.85 58.30 57.48 56.53 55.67 54.99 52.62 48.36 43.56 42.91 40.81 42.25 44.51 44.86 44.89 45.63 46.96 48.42 48.64 48.03 47.32 46.83 46.30 45.91 45.65 45.66 45.55 45.34 44.92 44.91 44.82 44.93 45.44 45.92 46.25
55.47 56.18 56.51 55.03 53.91 53.42 53.69 53.51 52.45 51.76 47.57 39.80 40.31 40.31 41.34 42.42 42.38 43.64 43.97 42.99 42.24 44.45 44.54 44.20 43.91 43.92 43.96 44.18 44.06 43.53 43.03 42.69 42.58 42.79 43.35 43.92 44.85 44.68
51.94 51.73 50.95 50.21 49.56 49.56 49.32 49.12 48.51 48.98 46.02 41.39 40.33 40.57 41.89 43.03 42.94 39.86 40.27 40.87 38.23 41.39 42.08 42.42 42.65 42.72 42.05 41.48 41.24 40.73 40.55 40.71 40.87 41.34 41.74 42.31 43.08 43.49
48.99 48.94 48.08 48.24 47.03 46.92 46.98 46.47 46.38 46.46 46.39 40.63 39.66 40.64 39.54 40.07 38.63 37.38 36.43 35.37 37.07 39.81 39.59 39.19 39.47 39.62 39.92 40.09 40.00 39.63 39.22 39.24 40.05 40.41 40.49 40.74 41.31 41.99
46.43 46.89 46.67 46.80 46.17 45.91 45.50 45.07 44.01 42.12 42.31 40.53 35.92 35.38 35.34 36.04 36.35 33.34 32.25 33.76 33.09 35.87 36.74 36.56 37.18 37.83 38.48 39.20 39.57 39.04 38.27 38.55 39.37 39.60 39.65 40.28 40.91 41.50
43.11 42.86 42.39 44.06 46.07 45.21 43.01 40.75 41.94 40.93 38.46 33.52 31.98 33.83 32.20 32.23 31.75 32.70 31.26 30.93 30.13 29.56 28.38 28.89 29.54 30.24 31.27 37.99 37.34 37.78 37.61 37.65 38.06 39.06 39.91 40.24 40.54 40.68
39.73 39.59 40.86 41.82 42.82 43.73 43.93 43.78 41.70 36.73 34.98 31.62 30.23 33.02 32.73 31.77 30.66 29.79 28.98 25.27 24.83 28.14 26.88 26.82 29.21 28.39 30.65 30.98 38.15 37.90 37.00 37.58 38.46 39.32 39.63 39.75 38.90 39.16
37.15 38.23 38.56 39.81 39.35 38.84 40.84 41.03 40.82 40.96 39.24 35.34 33.84 31.68 30.20 30.19 29.83 27.50 27.09 24.28 22.82 27.66 26.96 25.34 28.01 27.64 30.05 34.54 37.59 36.34 36.39 37.62 38.38 38.73 39.08 37.78 38.01 38.53
37.23 36.94 36.95 37.05 37.19 35.42 33.98 32.25 30.16 31.53 32.92 33.76 30.86 30.81 30.67 31.30 30.58 28.97 27.26 27.03 27.19 27.50 27.51 21.74 27.29 26.98 28.71 29.30 37.10 35.41 36.00 37.60 37.90 38.37 37.37 37.69 38.31 38.44
35.32 36.27 35.65 35.29 38.79 37.29 31.50 29.40 28.65 30.12 36.08 37.22 36.52 36.79 36.51 36.03 32.38 27.80 24.56 22.85 22.84 25.38 26.84 25.06 25.52 26.43 27.79 28.31 29.73 35.08 34.86 36.04 36.64 37.11 37.67 37.84 37.82 38.03
33.09 34.91 37.29 34.91 37.42 36.90 29.24 28.08 27.60 27.82 28.91 29.24 28.63 31.19 32.43 32.57 34.52 28.13 24.72 17.30 19.86 20.94 26.29 21.18 22.93 22.86 19.54 26.84 28.07 28.42 28.08 34.71 36.30 36.96 37.23 36.98 37.53 32.36
32.05 31.91 32.53 36.75 35.55 34.00 32.69 27.00 27.22 28.60 30.23 26.51 25.50 25.27 27.03 26.55 26.90 27.77 28.11 19.59 17.91 21.18 27.15 20.29 20.25 27.08 21.89 22.35 24.09 26.53 27.59 28.86 28.70 30.24 34.89 35.75 36.16 35.48
30.29 30.30 31.59 36.01 34.72 33.47 30.62 33.35 33.84 31.45 26.67 25.68 24.58 23.39 23.90 24.21 24.48 25.40 27.19 25.72 25.14 28.59 29.99 25.48 16.20 24.95 24.76 21.89 20.92 24.09 23.14 26.15 25.45 27.59 28.03 32.12 34.42 35.23
29.97 32.01 35.32 34.89 34.07 33.25 32.69 33.66 33.26 27.50 25.97 23.56 22.79 22.57 23.13 23.04 22.94 27.74 22.82 23.44 18.58 22.10 27.17 26.49 19.82 25.45 26.05 24.57 17.95 22.30 26.22 24.49 26.97 22.65 23.79 25.14 27.73 28.67
33.55 31.53 33.21 32.12 31.94 30.18 29.32 29.54 28.64 27.52 24.98 22.51 22.15 23.71 23.81 22.72 19.80 19.28 25.94 26.57 25.74 26.45 29.76 29.60 27.66 21.20 24.74 25.42 25.42 24.27 25.82 23.55 18.94 23.39 24.16 29.38 30.77 30.69
29.42 28.37 27.78 26.95 26.88 26.11 25.68 26.14 26.36 25.50 23.20 22.67 22.25 22.65 23.19 22.00 20.53 25.87 26.38 25.84 24.28 24.35 25.40 28.26 29.06 27.67 27.34 25.66 23.38 24.60 24.34 23.21 23.29 23.58 27.99 28.16 28.32 27.13
28.56 26.74 26.32 26.21 25.47 25.43 24.91 24.15 24.11 26.09 24.03 23.40 21.48 22.55 20.67 20.92 18.11 15.85 18.51 24.67 23.54 22.53 23.44 24.29 26.98 26.05 25.57 25.21 28.79 23.70 23.30 23.06 22.33 22.07 20.14 19.85 24.48 26.08
27.39 25.69 24.83 24.77 24.86 24.23 23.73 23.09 22.50 23.06 19.73 21.09 21.85 19.96 18.81 18.05 25.76 15.34 15.67 17.77 17.89 18.29 17.26 16.27 18.32 22.22 15.60 16.77 21.14 29.07 22.95 15.34 23.58 25.05 21.18 23.13 22.85 24.86
29.24 27.00 26.21 26.02 25.53 25.04 24.28 23.15 22.57 22.27 20.90 21.70 18.13 18.29 19.05 18.11 14.71 14.20 17.98 17.68 19.38 15.78 14.65 12.69 14.09 14.10 17.19 14.46 11.34 16.64 28.13 13.25 14.95 18.84 19.75 23.05 25.36 29.67
30.53 29.20 28.92 27.70 26.54 26.19 25.76 24.02 22.80 21.05 19.85 18.22 18.96 21.00 22.02 21.48 19.81 20.52 20.71 26.81 24.31 17.76 16.94 16.09 18.29 27.60 22.91 19.61 19.96 20.70 21.37 26.68 26.06 17.73 17.43 22.86 22.93 23.59
30.64 30.18 30.24 29.48 28.57 27.29 26.18 25.50 24.45 26.42 23.17 22.11 22.94 23.84 24.29 24.58 23.98 22.48 22.90 21.85 22.38 20.33 19.62 14.49 15.54 13.99 10.14 14.08 17.73 15.72 17.51 22.03 26.19 28.33 28.93 27.92 23.47 20.30
31.66 30.81 30.87 30.34 29.77 29.22 28.06 27.23 26.39 25.80 25.54 25.14 24.17 24.03 23.96 23.73 24.77 24.02 23.51 22.45 21.70 21.27 21.26 20.00 17.60 14.83 16.30 17.14 20.43 18.95 18.63 19.44 21.88 21.73 23.38 29.03 30.18 30.78

GFSNE_sfc_wetblb_105.txt.gz
Wetbulb
61.16 60.76 60.11 59.32 59.04 59.36 57.82 57.01 56.02 51.27 50.08 46.88 43.95 44.44 44.43 44.04 46.87 46.69 47.37 52.25 52.93 53.42 52.95 52.04 51.54 51.45 51.08 50.92 50.07 49.14 48.75 48.15 47.63 47.35 47.27 47.27 47.40 47.65
59.36 58.73 58.15 58.03 58.70 58.53 58.25 57.88 55.90 55.32 51.58 45.48 42.20 42.48 43.31 44.20 46.26 44.88 46.12 48.48 49.98 49.89 49.46 48.76 48.47 47.89 47.55 47.31 47.26 47.05 46.87 46.29 45.94 45.23 44.99 45.37 45.71 45.87
54.87 55.41 55.94 55.86 56.07 54.96 54.72 53.73 53.85 53.18 50.98 40.79 41.40 41.89 41.88 41.14 42.46 44.07 44.34 42.96 43.51 46.22 46.32 45.84 45.45 45.30 45.43 45.57 45.77 45.19 44.43 43.67 43.03 43.01 43.42 43.55 44.39 44.47
50.63 50.78 52.07 51.05 52.39 51.76 51.95 51.82 51.51 50.17 48.16 42.68 40.75 40.63 41.44 42.32 42.83 41.30 41.08 41.50 39.21 42.66 43.56 43.69 43.94 44.47 44.03 43.25 42.77 42.14 41.44 41.15 41.12 41.40 41.58 42.03 42.68 43.12
48.39 48.70 49.79 49.52 49.29 48.58 48.92 48.49 48.24 47.57 46.77 43.16 39.77 40.76 40.24 40.75 40.09 38.19 36.42 34.23 36.93 41.58 42.12 41.87 41.68 41.33 41.03 40.85 40.72 40.21 39.50 39.31 39.97 40.46 40.59 40.85 41.27 41.79
46.63 47.45 47.74 47.60 47.64 47.01 46.63 46.75 45.98 45.91 44.51 41.93 39.12 37.57 37.58 38.09 37.51 33.36 31.79 33.09 32.77 35.69 37.30 36.97 38.05 38.47 39.03 39.59 40.20 39.91 38.99 38.48 39.49 40.29 40.32 40.28 40.77 41.36
43.60 43.10 42.87 44.48 46.78 47.15 45.61 44.64 44.02 42.83 41.20 37.71 33.05 33.02 29.68 31.97 32.25 33.18 31.76 30.45 29.54 29.38 28.58 29.41 29.70 29.92 30.71 37.19 37.09 38.39 38.36 38.39 38.90 39.47 40.11 40.41 40.56 40.85
38.42 38.64 41.13 42.75 44.18 45.09 45.01 44.81 43.61 40.29 37.79 35.69 34.06 31.18 31.17 31.34 31.56 30.54 29.05 26.66 26.13 27.78 27.40 27.00 28.01 27.32 29.13 29.36 37.20 38.54 37.99 37.93 38.58 39.38 40.03 40.18 40.04 39.10
37.43 38.73 39.03 40.65 40.46 40.51 42.69 42.63 42.67 42.58 41.36 37.42 33.51 32.70 30.97 31.12 30.55 28.67 27.78 26.19 25.69 27.93 26.87 24.87 27.09 26.64 28.27 33.43 38.97 37.83 37.11 37.38 38.25 39.24 39.70 39.74 38.32 38.48
38.55 38.13 37.66 37.10 37.07 36.24 33.65 32.39 32.42 33.27 33.35 34.35 32.03 30.51 30.76 31.04 31.32 30.00 28.42 27.70 27.19 27.38 26.92 20.86 25.76 26.25 27.68 28.35 37.35 36.63 35.96 37.17 38.44 38.35 39.21 37.98 38.22 38.76
36.45 36.88 36.95 36.97 39.08 37.60 32.35 30.60 30.55 31.53 37.14 37.60 36.82 37.31 37.21 36.31 33.34 29.89 27.21 25.08 23.18 25.16 26.14 24.78 24.23 25.56 26.61 27.42 28.93 35.97 35.22 36.04 37.12 38.09 37.81 37.78 38.13 38.15
33.85 36.28 37.97 36.41 39.18 37.42 31.05 29.73 28.35 28.54 28.98 28.76 28.96 32.56 33.17 34.18 34.90 29.02 26.31 18.78 19.73 20.40 25.85 20.61 21.66 21.82 18.42 25.40 27.47 28.05 27.91 33.99 36.19 36.74 36.97 37.14 37.32 31.86
32.23 32.43 34.21 37.99 38.24 37.30 34.00 28.83 27.80 28.53 30.86 26.26 25.63 26.88 27.54 27.96 27.41 28.46 27.37 20.33 14.34 16.07 26.63 19.35 12.91 18.73 16.99 18.93 23.14 25.26 26.49 27.38 27.84 29.31 33.38 34.54 35.66 35.02
31.69 31.93 32.83 37.39 35.82 34.60 31.66 32.88 34.21 32.46 26.28 25.26 25.15 24.90 26.03 25.87 25.75 26.23 26.81 25.26 23.87 21.33 24.69 18.79 12.37 13.86 11.89 13.46 18.23 22.97 21.71 23.76 23.97 26.47 26.82 30.56 33.37 33.93
31.56 32.91 35.68 36.78 35.69 32.84 33.09 33.91 34.37 26.74 26.21 25.10 24.97 24.98 25.04 24.94 23.14 20.90 22.47 22.91 17.23 20.90 23.49 23.16 24.57 13.66 16.32 13.20 13.79 18.77 25.62 23.69 24.90 19.77 21.02 23.12 24.73 26.82
34.14 33.44 34.91 33.83 32.40 30.53 30.00 30.71 28.78 27.59 26.26 25.05 24.96 25.17 23.63 20.92 18.20 16.47 15.46 17.30 18.80 24.34 29.57 29.15 27.82 26.58 24.22 25.30 25.00 23.91 25.71 21.04 16.98 18.69 20.46 22.58 26.00 29.30
30.17 29.62 29.76 28.16 26.97 26.36 26.10 26.18 26.93 27.90 26.46 25.90 24.90 24.80 24.87 21.55 19.93 15.58 16.38 21.89 23.71 23.93 25.06 27.97 29.68 26.79 25.84 23.79 22.67 23.06 24.01 24.33 24.49 17.25 18.57 22.52 22.87 25.34
29.12 27.22 27.64 27.80 27.17 26.81 25.83 25.01 25.74 27.96 26.10 25.39 24.92 25.42 23.38 20.35 17.41 13.30 13.39 15.49 18.92 20.48 21.71 22.89 22.81 25.99 21.08 22.83 28.25 22.10 24.16 23.57 23.39 18.00 18.68 23.42 23.82 23.73
28.64 27.07 26.55 26.89 27.04 26.67 26.22 25.55 24.94 25.69 24.70 23.99 23.74 22.67 21.59 20.52 25.25 14.33 14.70 17.27 17.74 15.49 14.41 13.75 13.17 15.17 15.36 16.10 20.99 28.17 21.24 14.62 23.20 23.29 21.66 20.84 20.41 22.34
29.77 28.18 27.06 26.68 26.12 25.66 25.28 24.82 24.62 24.23 23.13 23.52 22.87 22.90 20.29 18.79 16.40 13.68 18.83 17.60 19.33 15.48 12.66 10.55 13.67 17.93 18.97 16.73 16.73 17.31 27.00 13.38 15.17 13.67 17.05 20.99 23.15 28.34
30.80 29.45 29.07 27.62 26.66 26.20 25.91 25.57 24.98 24.28 23.79 23.01 23.22 22.55 22.24 21.85 21.06 23.38 22.47 26.39 24.14 19.68 19.41 18.76 21.18 27.79 20.42 20.24 20.71 21.56 21.41 28.15 25.20 13.83 12.55 18.44 21.38 21.36
31.82 31.15 30.73 29.82 29.07 28.17 27.44 26.63 25.15 25.51 25.47 22.80 22.50 23.06 23.88 23.82 24.57 23.40 23.56 23.28 24.01 24.82 23.87 21.05 16.98 16.26 15.66 20.87 20.94 20.96 16.80 21.39 25.15 27.25 28.30 27.31 23.05 19.85
32.33 31.85 31.54 30.99 30.66 30.17 29.07 27.66 26.61 25.89 25.87 25.14 24.24 23.97 24.01 23.54 24.84 25.09 24.00 24.05 24.13 23.53 23.00 20.66 20.40 18.60 20.57 19.40 21.69 20.38 17.77 17.98 20.95 20.84 22.26 27.83 29.12 29.86

GFSNE_sfc_wetblb_108.txt.gz
Wetbulb
60.23 60.57 60.38 60.52 60.58 60.19 58.99 56.65 55.45 51.57 50.52 48.68 44.78 44.49 44.93 45.11 47.77 47.18 47.91 53.01 54.08 53.96 53.33 52.94 52.88 52.93 52.58 52.68 52.09 51.83 50.85 49.65 48.86 48.41 48.01 47.69 47.57 47.57
59.88 60.12 60.10 59.66 58.39 57.94 57.61 56.58 56.35 56.48 53.80 46.58 44.17 43.32 44.54 45.03 47.39 45.67 46.53 49.40 50.98 50.78 50.50 50.02 49.78 49.57 49.30 48.89 48.91 48.85 48.60 47.95 47.43 46.48 45.74 45.88 46.01 45.95
55.22 55.43 55.69 56.06 55.79 56.15 55.48 54.81 54.60 53.25 53.35 41.52 42.39 41.41 42.89 43.38 44.40 44.55 44.13 43.42 44.06 47.83 47.58 47.24 46.87 46.70 46.82 46.94 47.35 47.08 46.27 45.60 44.55 44.07 44.38 44.05 44.58 44.63
50.57 50.31 50.17 50.50 51.57 52.38 51.78 52.66 53.01 52.15 49.89 44.72 41.23 41.31 42.29 42.65 42.07 40.91 42.24 41.42 40.08 44.15 44.89 44.94 44.80 45.42 45.78 45.38 44.72 43.98 43.09 42.46 42.29 42.23 41.92 42.14 42.79 43.24
46.62 46.87 47.88 49.56 49.33 49.69 49.82 50.36 49.73 48.90 48.46 44.62 40.27 41.01 40.71 41.87 40.73 38.96 36.97 35.80 37.42 42.44 43.75 43.85 43.87 43.37 42.76 42.48 42.09 41.49 40.59 40.14 40.56 40.65 40.66 41.02 41.57 42.07
44.73 45.16 46.34 46.62 47.59 47.99 47.72 48.17 47.97 47.49 46.04 43.07 40.20 38.59 39.02 39.69 39.08 35.59 34.10 33.95 31.79 35.34 37.47 37.34 39.06 39.63 40.19 40.41 41.10 40.62 39.77 38.73 39.31 40.28 40.59 40.43 40.61 41.19
42.02 42.37 43.34 43.83 45.72 47.52 46.51 46.42 45.75 44.68 42.71 39.37 36.98 36.42 34.83 35.50 36.41 34.36 33.02 29.82 29.12 29.53 28.78 29.68 29.91 29.54 30.99 36.09 36.97 39.21 39.10 38.66 39.11 40.12 40.48 40.73 40.59 40.77
39.18 38.43 39.32 41.84 43.35 45.73 46.23 46.01 45.22 42.66 39.87 37.76 35.72 35.55 34.24 34.15 33.25 30.64 29.61 25.41 26.69 27.48 27.46 27.46 28.09 27.45 28.86 29.04 36.49 38.71 38.48 38.41 38.72 39.34 40.08 40.55 40.30 39.93
34.98 37.30 39.85 40.61 40.70 41.14 42.76 42.62 42.85 42.82 42.61 39.63 36.95 36.14 34.25 33.77 30.25 28.14 27.55 25.68 25.98 27.89 27.47 25.89 27.36 26.79 28.15 31.41 38.20 38.94 38.47 37.93 38.28 39.01 39.82 40.27 40.04 39.00
36.97 37.63 38.29 37.83 37.78 37.33 34.82 33.58 33.71 33.94 34.52 36.35 36.95 35.54 34.21 32.19 31.32 29.50 28.37 27.20 27.25 27.68 27.67 22.64 26.13 26.12 27.46 27.89 36.86 38.18 36.97 37.12 38.37 38.72 38.89 39.87 38.58 38.58
36.80 37.11 37.54 37.13 39.43 37.92 33.27 31.79 31.75 32.47 37.93 38.12 37.49 37.74 37.68 36.81 32.95 29.69 27.03 26.44 25.14 26.16 26.81 25.54 24.93 25.70 26.20 26.86 28.64 36.79 36.00 36.01 37.53 38.68 38.79 38.36 38.18 38.28
34.29 36.15 38.94 37.43 39.92 38.36 31.69 30.43 29.45 30.54 31.56 31.19 31.02 31.61 32.92 34.50 35.10 29.03 27.27 24.82 23.56 22.37 26.47 22.63 22.19 22.23 18.46 24.83 26.59 27.35 27.84 34.15 36.31 37.42 37.37 37.21 37.06 31.00
32.22 33.25 34.71 38.58 39.56 38.58 35.15 30.09 29.82 30.76 31.81 25.91 26.23 27.19 27.99 26.84 28.35 28.77 28.04 24.34 18.36 18.58 27.34 19.87 11.33 16.61 13.59 18.16 22.81 24.79 26.03 26.36 26.78 28.20 32.35 33.91 35.09 34.48
32.17 32.65 32.87 37.92 38.64 37.34 34.78 33.43 34.44 32.40 26.09 24.78 25.23 25.77 26.23 25.62 26.85 27.88 27.82 27.00 25.52 23.32 24.98 18.20 11.94 12.63 6.98 11.47 17.92 22.40 20.90 22.60 23.86 25.84 26.01 29.83 32.13 33.28
32.69 33.70 35.74 37.04 36.63 34.29 33.93 34.31 34.80 26.45 25.54 23.89 24.24 24.33 26.28 27.19 25.33 24.22 25.08 24.11 20.70 22.64 23.76 16.92 16.77 8.02 10.42 9.14 12.10 17.16 20.04 21.37 22.34 19.31 20.46 21.81 23.26 25.25
34.77 33.48 35.06 36.03 35.38 32.58 31.31 30.91 27.57 26.61 25.78 25.27 24.74 25.54 25.21 24.89 23.69 19.87 16.98 17.40 15.68 17.65 24.12 20.15 19.12 24.12 23.71 25.03 24.41 22.91 20.82 19.86 16.53 17.35 18.85 20.83 23.57 25.70
31.45 29.48 30.46 29.65 28.68 27.81 26.77 26.48 26.94 27.99 25.97 25.79 25.99 25.83 26.30 25.63 23.43 17.84 17.57 16.42 15.89 17.43 21.60 25.95 29.45 27.89 22.44 19.35 17.31 19.82 17.26 23.32 25.64 23.93 17.56 18.97 21.65 24.22
30.36 26.88 28.31 28.64 27.29 26.57 25.72 25.74 25.70 28.13 27.41 26.77 25.98 26.26 25.74 24.36 22.25 17.23 17.58 17.75 15.86 20.58 23.17 21.76 22.44 25.15 22.46 22.73 27.49 19.10 18.50 23.94 24.60 18.20 21.48 22.73 22.13 22.67
29.98 26.33 26.27 27.78 27.98 27.68 26.76 25.75 25.20 25.78 26.13 25.96 25.50 25.14 24.65 24.02 26.18 19.85 19.89 19.64 18.21 16.36 16.24 14.76 18.26 21.11 18.60 17.14 22.13 29.54 22.75 17.06 19.59 20.59 21.83 21.35 20.62 21.91
32.34 29.08 27.30 26.93 26.36 26.66 27.24 27.05 26.40 25.10 24.66 24.30 23.73 23.15 22.80 23.06 20.06 18.93 21.74 20.36 20.06 16.91 16.30 14.15 17.74 19.95 20.28 18.71 19.71 19.03 28.40 17.67 17.79 15.18 17.24 20.66 22.68 27.68
32.97 30.98 30.49 29.07 27.44 26.39 26.07 26.68 26.43 25.45 24.94 23.89 24.08 23.72 23.56 23.02 23.02 23.70 23.16 26.13 24.66 19.55 19.69 20.62 21.92 27.77 23.39 23.07 20.85 21.78 23.25 28.14 24.73 17.90 15.15 16.19 19.50 21.19
32.50 32.11 31.62 31.22 29.47 27.81 27.26 26.93 25.97 25.83 25.70 24.35 23.81 24.11 24.24 24.12 24.04 23.51 23.84 23.50 25.33 25.50 22.80 24.05 19.46 20.98 20.60 21.68 21.69 22.35 22.22 22.59 26.15 28.15 28.26 24.87 17.08 16.16
32.85 32.47 32.48 32.16 31.74 30.51 29.36 28.22 27.07 26.78 25.47 25.93 24.75 24.26 24.16 23.56 24.31 25.09 24.85 24.73 24.75 24.18 24.67 23.12 20.55 19.71 20.86 21.86 22.89 22.01 22.12 20.51 20.76 20.78 22.08 27.61 29.03 29.70

GFSNE_sfc_wetblb_111.txt.gz
Wetbulb
58.83 58.86 59.05 59.14 59.59 59.57 58.91 58.34 56.41 51.92 51.84 50.54 46.97 45.17 45.78 45.91 48.17 48.65 49.64 54.06 54.30 54.36 54.07 54.25 54.11 54.11 54.22 54.04 53.89 53.74 53.10 51.77 50.70 50.09 49.42 48.81 48.38 48.08
58.38 58.50 58.51 58.77 58.47 58.33 58.19 58.20 57.35 55.90 52.75 49.06 45.03 43.88 45.14 45.16 48.00 47.54 48.49 50.13 51.80 51.69 51.15 51.01 51.08 51.24 50.89 50.88 51.00 50.71 50.08 49.53 49.33 48.82 47.52 46.91 46.74 46.74
55.06 54.47 54.17 54.20 53.79 54.44 55.06 55.13 54.88 54.64 53.60 44.68 43.73 43.03 43.10 44.00 44.93 45.60 45.44 44.56 45.58 49.18 48.96 48.51 48.33 48.20 48.31 48.57 48.85 48.77 48.19 47.65 46.58 46.15 46.26 45.27 45.39 45.12
50.61 51.36 49.32 49.55 49.95 50.63 50.89 51.65 52.36 52.67 52.22 51.60 42.17 41.89 42.69 43.44 43.92 43.59 42.95 41.83 41.09 45.63 46.39 46.33 46.19 46.43 46.94 47.26 46.91 46.04 45.01 44.30 43.93 43.99 43.08 42.59 42.94 43.53
45.41 45.39 45.38 46.01 47.43 48.07 48.77 49.32 50.08 49.72 50.44 46.19 41.46 41.62 41.63 42.46 40.84 39.50 37.93 37.45 38.31 43.17 44.77 45.05 45.75 45.76 45.11 44.62 44.03 43.21 42.29 41.86 41.65 41.35 40.99 41.25 41.97 42.55
43.73 43.61 43.96 43.90 43.60 45.10 46.75 47.54 47.96 47.91 47.09 44.56 40.97 39.34 40.07 40.78 40.07 36.95 34.98 35.29 34.69 36.23 38.42 38.58 41.44 42.34 42.37 42.27 42.21 41.52 40.51 39.59 39.73 40.61 40.65 40.85 40.99 41.47
40.91 41.03 41.19 42.31 44.63 46.01 46.12 45.72 46.12 45.43 44.25 40.35 37.34 37.56 36.13 37.01 37.77 36.54 34.90 33.22 31.91 30.93 28.62 28.63 30.05 29.38 31.62 36.38 37.60 40.60 40.39 39.51 39.31 40.43 41.16 41.01 41.04 40.86
37.44 37.49 38.64 40.77 41.11 44.86 45.94 46.17 45.92 43.33 40.99 38.63 37.05 37.24 36.39 36.79 35.70 34.38 32.49 30.68 31.08 27.58 27.15 26.48 27.92 27.88 29.64 29.36 36.29 38.73 39.18 39.23 39.18 39.81 40.59 41.06 40.83 40.57
37.38 36.21 37.92 39.48 39.70 39.30 40.27 40.12 39.88 41.11 43.32 41.14 38.57 38.26 37.07 36.59 34.79 32.12 30.98 29.13 25.85 26.50 26.41 24.76 27.43 27.90 28.70 30.93 37.23 39.26 39.11 38.72 38.69 39.25 40.03 40.60 40.72 40.28
38.27 37.83 37.75 36.99 36.99 37.89 35.70 34.55 34.38 35.59 36.02 35.99 37.36 38.19 37.39 36.14 35.58 34.02 31.12 28.24 27.82 27.19 26.42 23.42 26.53 26.52 28.01 28.15 36.92 39.12 38.40 37.40 37.74 38.69 39.27 40.27 40.39 39.28
36.03 36.85 37.42 37.35 39.02 39.26 34.16 32.70 32.48 32.96 37.91 39.32 38.72 38.36 38.05 37.54 34.21 31.70 27.40 26.99 23.69 25.71 26.62 26.01 25.70 26.89 27.02 27.34 28.68 37.02 37.00 36.42 37.24 39.17 39.59 39.91 39.17 38.71
32.60 34.30 39.04 37.91 39.38 39.70 32.75 31.07 30.45 31.26 31.76 31.90 31.35 32.05 32.94 35.60 34.62 29.66 28.37 22.73 24.54 23.84 26.91 25.68 25.13 24.37 21.27 25.23 26.58 27.08 27.89 34.92 36.83 38.12 38.41 38.34 37.76 30.65
31.00 31.40 33.82 38.45 39.38 40.10 36.77 30.47 30.33 31.45 32.46 29.21 28.99 29.32 28.55 28.58 28.01 27.92 27.59 25.29 20.53 23.01 28.16 24.17 16.15 19.24 17.20 19.34 23.22 24.79 25.81 26.04 26.41 27.75 32.57 34.02 35.04 33.83
32.82 33.27 33.57 36.91 38.86 39.00 36.72 35.63 35.12 33.71 28.01 26.45 26.49 25.03 24.69 24.73 25.81 28.12 28.28 27.30 27.17 27.37 29.67 22.62 16.92 16.42 9.27 12.56 18.71 22.41 20.63 22.31 23.90 25.72 25.69 29.60 31.24 32.62
33.46 34.26 36.63 36.71 38.03 36.41 36.01 34.44 35.07 29.12 27.11 25.00 22.74 22.05 22.76 22.87 24.75 24.20 25.62 25.83 25.61 27.26 24.68 19.19 18.54 9.06 11.48 9.61 12.81 17.15 17.59 20.83 21.94 19.36 20.53 21.85 23.16 24.59
36.44 34.17 35.04 35.65 36.46 33.71 32.57 30.92 28.92 27.64 25.53 24.47 23.11 23.92 25.61 24.10 21.67 23.33 22.72 22.24 22.01 22.64 25.69 20.14 19.63 17.70 13.79 16.30 15.76 14.35 18.36 15.47 15.95 18.18 18.77 20.90 23.25 24.40
33.63 30.57 30.35 30.43 29.18 28.99 27.88 26.68 26.72 26.83 25.66 24.47 23.97 23.93 25.67 24.91 23.95 22.81 22.51 21.48 20.26 20.17 20.38 23.77 26.11 25.45 25.67 19.11 14.67 18.62 15.73 16.92 20.03 21.04 21.74 18.75 21.20 23.13
33.70 28.71 28.66 28.40 27.68 27.88 26.93 26.08 25.28 27.46 26.45 25.56 24.65 25.72 25.23 24.81 24.23 22.20 21.65 21.28 20.68 21.17 19.49 21.59 24.52 25.47 23.48 23.45 26.98 14.92 14.74 15.40 20.70 23.58 20.00 21.14 20.99 22.49
33.71 30.00 27.70 27.25 27.04 27.43 26.70 25.20 24.78 24.98 26.23 26.81 25.65 24.88 25.74 24.93 26.97 23.11 22.18 21.67 20.95 20.78 19.74 17.60 15.81 20.06 15.03 14.33 22.77 29.99 23.02 19.59 23.36 22.87 23.63 23.50 23.35 24.15
33.39 32.33 28.72 27.80 26.21 26.80 26.29 26.02 26.13 24.36 25.52 25.70 25.10 25.95 25.56 24.81 23.72 21.91 22.43 21.13 22.20 21.22 19.32 17.09 15.86 18.48 18.15 15.94 16.14 21.81 29.16 20.14 21.77 20.62 21.24 23.22 24.41 27.74
33.80 32.76 31.65 30.31 28.61 27.14 26.78 26.00 26.17 26.01 24.71 23.38 23.80 23.17 22.74 23.25 23.38 23.50 23.27 26.05 24.77 21.74 20.62 20.81 21.02 27.18 21.62 21.58 20.42 22.32 23.07 29.02 24.92 19.85 19.53 19.14 20.10 22.21
33.78 33.06 32.53 31.75 30.87 29.59 28.67 27.85 26.20 26.44 27.01 25.93 24.78 23.96 23.16 23.11 22.89 23.20 23.64 23.19 25.28 25.57 23.01 20.33 20.14 24.38 22.26 21.65 21.31 21.02 22.24 23.89 27.59 29.96 28.86 25.83 17.71 16.15
33.63 33.22 33.15 32.84 32.50 31.85 30.47 29.16 28.46 27.95 26.72 26.86 25.97 25.13 24.92 23.64 24.48 24.68 23.93 24.21 24.48 24.42 25.54 23.36 19.75 20.39 21.81 22.85 23.34 22.65 22.09 20.60 21.26 21.57 22.66 28.19 29.41 30.09

GFSNE_sfc_wetblb_114.txt.gz
Wetbulb
58.25 58.27 58.47 58.68 58.77 58.92 58.28 57.78 55.54 51.96 51.68 51.80 49.84 46.07 47.71 47.79 48.95 49.08 50.17 54.39 54.85 55.10 55.39 55.07 55.15 55.47 55.75 55.95 55.74 55.64 54.96 53.68 52.75 52.05 51.15 50.64 50.48 49.97
57.70 57.56 57.78 57.46 57.20 57.35 57.30 57.47 57.00 55.73 52.76 51.42 47.46 45.22 45.46 46.06 48.67 48.40 49.29 51.31 52.76 52.66 52.38 52.12 52.40 52.30 52.59 52.78 52.89 52.50 51.71 51.29 51.32 51.21 50.01 49.01 48.72 48.45
53.86 52.72 52.01 51.63 51.62 51.81 51.92 52.35 53.35 53.98 52.18 47.94 45.49 44.32 44.53 44.90 46.28 46.47 46.95 45.90 48.30 50.43 50.43 49.96 49.74 49.68 49.81 50.28 50.59 50.68 50.21 50.06 49.34 48.64 48.46 47.95 47.45 46.62
50.25 49.54 48.06 48.42 48.41 47.96 48.43 48.60 50.48 51.38 50.92 50.04 44.55 42.27 43.81 44.28 44.73 44.35 43.46 43.18 43.44 47.52 48.06 47.86 47.74 47.79 48.25 48.80 48.90 48.16 47.44 46.71 46.51 46.74 45.36 44.84 44.99 45.13
45.12 44.91 44.33 44.26 43.71 45.07 46.30 46.28 47.47 48.98 49.81 48.51 44.67 42.23 42.24 43.10 41.92 40.74 40.29 38.44 39.65 44.73 46.12 46.22 46.91 47.15 47.26 46.89 46.13 45.12 44.27 44.00 43.92 43.29 42.63 42.59 43.15 43.74
42.55 42.46 42.02 41.60 41.28 41.25 42.64 43.00 44.96 46.71 47.49 46.08 42.76 40.49 40.86 41.29 40.71 37.53 36.54 36.38 36.00 37.57 40.61 41.63 43.76 44.98 44.72 44.47 43.92 42.94 41.74 41.30 41.67 41.61 41.27 41.64 42.10 42.78
39.52 39.59 39.45 41.28 43.55 44.05 43.26 41.53 43.01 44.58 44.32 41.95 39.16 39.03 37.35 37.66 38.31 37.60 36.10 34.56 33.48 33.27 32.64 32.17 31.08 30.35 32.32 37.57 39.25 41.91 41.25 40.21 39.81 40.96 41.35 41.42 41.58 41.80
38.38 37.20 37.43 39.92 40.74 43.50 44.45 44.62 44.51 42.70 40.83 38.38 37.18 37.81 38.22 38.29 36.84 36.13 33.68 32.38 32.14 32.07 30.87 29.63 28.11 28.01 28.77 28.88 36.88 39.52 40.87 40.46 39.79 40.56 41.44 41.78 41.66 41.10
37.91 35.47 37.16 38.37 37.86 36.99 38.95 39.54 38.55 40.16 39.98 39.93 38.95 39.05 38.58 38.21 36.67 34.31 33.68 33.25 33.03 28.99 29.39 25.89 26.83 26.51 28.45 30.76 36.90 39.22 39.50 39.71 39.72 40.16 40.72 41.28 41.35 40.79
37.40 36.33 36.03 35.69 36.23 36.85 34.23 32.68 32.63 35.19 37.32 36.65 36.10 37.05 37.85 37.95 37.18 35.82 33.92 30.07 29.15 29.02 29.31 27.32 25.79 26.74 28.02 29.09 36.68 39.65 39.90 39.41 38.94 39.14 39.81 40.53 40.82 40.75
34.62 34.75 35.24 35.14 39.05 39.94 33.42 31.10 30.95 31.97 37.19 39.44 39.46 39.66 39.18 38.31 35.42 32.95 30.61 30.67 27.75 27.69 28.30 27.27 26.65 26.22 28.36 28.81 30.13 38.40 39.00 38.09 37.88 38.86 39.86 39.74 40.43 39.81
34.16 34.73 38.71 37.09 39.68 40.57 34.07 31.34 29.84 30.75 31.75 31.63 31.02 31.77 32.80 34.56 34.28 31.28 32.07 31.15 28.38 27.14 26.77 26.08 23.50 26.14 25.02 26.98 28.24 28.69 29.86 36.08 37.53 38.74 39.49 39.55 39.20 32.28
33.71 33.60 34.19 38.74 39.96 40.61 38.11 31.51 30.77 30.82 32.76 29.72 29.39 29.64 28.96 29.43 29.48 29.22 29.15 28.94 21.09 19.01 28.58 25.14 22.60 24.23 22.10 25.19 25.32 26.56 27.31 27.53 27.56 29.12 35.07 35.79 36.41 33.98
33.66 33.90 34.09 37.28 38.36 39.60 38.27 37.17 36.07 34.23 28.64 27.15 27.12 27.37 27.71 27.91 27.65 27.57 27.03 26.00 26.02 25.65 30.24 25.63 21.31 22.64 20.97 20.61 22.96 24.30 23.01 24.05 24.88 26.44 26.40 30.38 32.69 34.23
35.14 35.39 37.13 37.31 37.74 37.91 38.11 35.71 34.96 29.09 27.86 26.24 25.86 25.75 25.83 22.93 20.39 22.50 23.34 23.88 22.76 27.52 26.29 22.45 22.91 18.05 16.93 16.97 19.17 21.07 21.16 22.52 23.20 20.87 21.80 22.78 24.12 25.11
39.14 36.16 35.73 36.08 36.58 35.15 33.52 31.32 28.46 27.41 24.96 23.82 23.60 23.36 21.23 18.72 19.12 17.69 17.12 18.01 20.05 21.75 26.25 22.12 23.02 21.57 17.24 18.48 18.65 18.35 20.49 17.08 18.27 19.92 20.27 21.78 24.09 24.89
35.34 31.42 30.80 31.01 31.20 30.85 28.89 27.33 26.17 26.28 24.09 23.02 21.83 22.28 22.89 21.14 20.38 17.83 18.36 16.87 15.69 17.57 21.92 25.72 26.25 24.25 22.88 20.31 17.81 20.66 18.96 17.70 21.30 20.17 20.58 19.34 22.33 23.88
34.95 30.45 30.13 30.05 29.59 29.49 28.40 26.95 25.29 26.60 25.49 24.90 23.54 23.95 23.29 22.08 20.68 17.79 17.62 17.30 17.01 20.85 21.07 21.26 25.73 25.55 23.57 24.55 27.16 18.42 18.13 18.46 20.19 22.41 22.67 21.22 19.90 22.83
34.19 31.53 30.05 29.12 29.13 29.09 27.93 24.14 21.40 23.57 23.32 26.21 25.73 24.38 23.91 23.85 26.15 22.90 20.14 20.61 20.74 20.97 20.02 19.06 18.59 19.46 18.00 17.14 22.82 29.92 21.96 19.10 22.12 22.73 22.40 22.36 21.67 23.61
33.29 32.97 31.40 30.43 28.91 28.15 26.33 23.98 23.78 21.19 23.91 26.02 25.55 25.75 25.06 24.12 23.41 23.64 22.96 23.12 23.25 20.68 19.65 19.66 18.95 17.83 18.66 18.08 16.86 18.10 29.38 20.24 21.66 20.80 20.64 23.93 25.37 28.81
33.77 33.08 33.07 31.38 30.46 30.03 28.60 26.95 26.30 24.90 24.55 25.98 25.46 24.74 24.32 24.56 24.32 24.64 23.51 26.77 25.63 23.13 21.67 22.10 21.67 26.98 23.27 21.95 18.85 19.28 22.04 29.53 26.18 20.55 20.84 19.86 20.85 22.49
33.51 33.58 33.32 32.94 32.05 31.32 30.32 28.49 27.42 27.29 27.61 25.99 25.70 25.23 24.04 23.56 23.51 23.79 24.25 23.92 25.23 25.69 23.65 22.03 20.29 23.97 22.70 21.72 21.01 19.61 20.39 23.17 28.69 29.76 28.48 26.14 18.84 17.62
33.22 33.24 33.29 33.28 32.98 32.60 31.75 30.36 29.07 28.47 27.71 27.72 26.80 25.71 25.64 23.71 24.27 24.33 24.06 23.97 23.98 24.03 25.76 22.68 20.85 22.47 23.66 23.16 23.19 22.17 22.00 21.32 21.95 22.19 23.89 30.43 31.25 31.01

GFSNE_sfc_wetblb_117.txt.gz
Wetbulb
60.52 60.54 60.22 60.36 58.94 59.61 59.85 57.87 56.00 52.24 52.27 53.76 53.24 49.03 49.73 49.96 50.21 51.10 52.28 54.79 55.77 57.30 57.00 56.67 56.56 56.61 56.97 57.88 58.95 58.45 57.04 55.75 54.69 53.68 52.88 52.64 52.92 52.77
59.56 59.02 57.88 55.68 55.45 55.65 55.20 55.91 56.35 55.57 53.62 54.03 51.52 49.24 49.51 48.30 49.64 50.71 52.01 52.25 53.65 53.88 53.69 54.06 54.14 54.25 54.39 54.56 54.38 54.29 53.89 53.40 53.16 52.86 52.61 51.77 51.16 51.04
55.62 54.55 52.62 53.02 52.79 52.83 52.91 52.87 53.11 53.51 52.64 52.13 49.60 48.38 47.56 48.51 48.68 49.55 50.18 49.57 51.38 51.95 51.85 51.64 51.50 51.56 52.07 52.62 52.67 52.39 52.10 51.97 51.98 51.12 50.59 50.43 50.09 49.09
51.00 50.24 48.98 49.68 49.81 49.95 50.24 49.94 50.97 52.55 51.36 49.18 50.71 47.60 45.95 47.79 48.96 48.29 46.16 46.03 47.20 49.42 49.90 49.58 49.40 49.60 49.95 50.55 50.98 50.52 50.68 49.86 48.99 49.26 48.47 48.30 48.20 47.19
48.18 48.57 47.66 47.68 47.34 47.81 48.09 47.66 47.98 48.90 49.82 49.71 49.48 45.38 45.07 45.07 44.44 44.06 43.65 41.49 41.98 46.33 48.01 48.07 48.05 48.18 48.71 49.12 48.33 47.27 46.63 46.47 46.67 45.53 44.79 44.61 45.57 45.61
46.23 45.88 45.48 45.34 45.27 45.76 46.25 46.48 47.21 47.32 46.95 47.87 46.38 43.54 42.96 43.24 43.11 40.17 39.02 38.60 38.37 39.82 43.05 43.86 47.00 47.41 47.20 46.84 45.89 44.97 44.34 44.21 44.11 43.34 42.64 42.70 43.44 44.17
43.30 43.00 43.27 43.46 44.11 45.46 45.44 45.34 44.36 43.69 44.39 44.39 42.85 41.69 40.15 39.46 39.76 40.54 39.85 36.62 36.12 36.34 35.44 35.71 39.18 38.63 41.68 43.66 43.97 42.83 42.09 41.86 41.79 42.28 42.12 42.27 42.52 43.39
41.37 40.72 41.71 41.64 42.50 44.38 43.49 43.27 43.42 43.32 42.71 42.10 41.10 39.63 40.60 39.58 38.89 37.42 35.11 34.07 34.25 35.39 33.66 32.79 33.17 35.24 35.71 38.65 38.66 42.18 42.18 41.56 40.71 41.20 41.99 42.07 42.10 42.33
40.63 39.97 40.58 40.34 40.23 40.36 40.32 39.45 39.42 40.36 40.05 40.06 40.37 40.49 39.69 39.73 37.92 35.64 35.14 35.34 35.83 32.10 32.05 31.37 31.25 31.59 33.72 35.19 36.84 39.72 40.90 41.06 40.61 40.57 41.58 42.10 42.26 41.79
40.56 40.24 40.32 39.89 39.89 39.57 38.49 37.69 36.81 37.64 39.77 39.20 38.71 38.27 37.89 38.39 38.22 36.81 35.76 32.04 30.48 30.10 31.20 32.22 29.63 30.69 32.57 35.62 36.08 38.99 40.41 40.30 40.26 40.40 40.96 41.63 41.68 41.38
38.33 38.78 39.22 39.35 39.89 40.82 37.86 36.43 35.74 36.06 37.41 37.91 37.93 38.97 39.71 39.00 36.87 34.69 32.65 32.64 30.10 29.72 30.17 29.98 28.73 29.36 31.40 33.67 35.57 38.21 40.56 40.26 39.60 39.63 40.12 40.74 41.17 41.04
37.41 37.85 38.71 39.58 39.83 41.17 38.18 35.63 34.18 33.88 34.41 34.53 34.25 33.57 33.08 33.74 34.46 32.97 34.50 33.22 31.35 29.94 30.64 30.15 28.25 30.76 30.82 31.79 32.82 34.64 38.51 38.84 38.70 38.90 40.03 40.50 40.68 39.85
36.88 36.79 36.67 38.82 40.24 40.81 40.47 34.92 34.09 33.40 34.21 33.06 32.61 31.52 30.73 30.82 30.67 30.46 30.47 32.66 31.57 30.46 30.47 31.47 30.70 29.95 30.23 29.54 30.14 31.94 33.17 34.30 35.43 35.82 39.19 39.88 39.89 38.07
36.69 36.66 37.03 38.07 38.68 39.56 40.23 38.11 37.65 35.25 32.33 30.85 30.03 29.51 29.42 29.84 29.62 29.30 29.16 29.71 30.21 31.29 33.43 31.39 30.75 30.65 30.03 28.46 28.49 28.83 29.90 31.23 31.90 33.06 33.79 34.70 36.29 37.82
38.07 37.43 37.54 37.83 38.33 38.85 40.05 38.81 36.33 33.67 31.89 29.98 29.38 29.31 29.96 30.10 28.64 28.88 29.30 29.21 29.12 29.76 29.40 27.90 29.89 27.49 29.35 29.71 28.31 27.76 28.33 29.45 29.85 30.86 30.72 31.49 32.52 32.81
40.85 38.82 38.04 37.21 37.35 36.36 36.44 34.01 31.92 31.92 31.47 31.06 30.09 29.44 29.02 28.48 28.67 28.37 28.55 28.50 28.74 29.28 29.01 27.94 28.02 28.17 27.35 27.65 27.75 27.23 28.49 27.85 28.22 28.39 29.40 29.50 29.92 30.43
37.56 33.82 32.55 32.26 32.64 33.11 32.50 31.12 30.58 30.53 30.72 29.80 28.99 28.59 28.11 28.16 27.82 27.08 27.29 27.22 27.29 26.95 27.83 28.73 28.77 28.36 28.66 27.74 26.41 27.40 27.37 26.64 27.52 27.75 27.13 27.72 29.10 29.79
36.09 32.81 32.72 32.08 31.69 31.55 30.97 30.63 29.75 30.45 29.96 29.95 29.57 29.20 28.72 27.64 27.44 26.55 26.69 26.93 26.54 26.62 26.54 27.68 28.08 27.64 27.53 28.29 29.76 26.99 26.26 26.22 27.14 27.62 27.43 26.04 26.43 29.16
35.34 33.37 32.33 31.64 31.39 30.67 30.36 30.20 30.19 30.28 30.58 29.85 29.91 29.38 28.71 27.83 28.37 26.72 26.48 26.47 25.80 26.31 26.96 27.05 26.79 25.67 23.26 23.12 26.99 30.72 26.79 25.79 26.35 26.22 27.20 26.57 26.49 28.76
34.74 34.21 33.26 32.76 31.35 31.04 31.14 30.79 30.29 30.29 29.00 29.13 28.86 28.98 28.14 28.12 27.34 27.55 27.02 26.01 26.15 26.64 26.10 25.68 25.10 25.42 23.81 23.98 24.79 27.09 29.90 26.67 26.20 26.38 26.10 27.28 27.94 29.78
34.61 34.25 34.32 33.54 32.25 31.78 31.92 31.72 31.08 30.44 29.97 28.42 28.66 28.37 28.28 27.85 27.22 27.91 27.64 27.90 27.55 26.51 25.24 25.70 26.76 28.83 27.83 26.35 23.59 24.70 27.07 29.98 28.81 27.60 27.30 25.87 25.30 25.65
33.86 34.05 33.94 33.81 33.17 32.58 32.24 31.76 30.80 30.41 31.31 30.70 29.29 28.70 28.21 27.53 27.07 27.03 27.09 26.74 27.55 28.62 27.09 28.54 27.56 27.66 25.44 24.04 23.97 25.08 25.86 27.40 29.88 30.62 29.72 29.10 26.64 24.46
33.15 33.37 33.68 33.61 33.51 33.31 32.71 32.06 31.18 31.16 30.46 30.67 30.59 29.72 28.57 26.74 27.01 27.07 26.95 26.77 27.04 26.64 27.97 26.96 26.35 26.33 25.60 24.81 25.29 25.27 25.40 25.42 26.21 25.86 28.37 31.42 31.01 30.57